GFSMA_925_thetae_000.txt.gz
Theta_e
352 352 351 351 350 350 349 349 349 349 348 346 345 342 339 339 342 340 342 345 344 342 344 346 344 347 348 344 347 347 346 342 341 336 341 345 343 342 339 339 340 343 342
350 351 350 349 350 350 349 348 349 348 347 345 342 341 339 337 339 341 340 342 346 343 341 344 346 343 347 349 345 346 348 346 345 344 340 343 341 341 336 334 335 339 339
350 350 350 349 349 350 351 349 349 348 344 343 341 339 340 340 339 340 340 339 342 347 341 341 341 341 343 346 348 347 342 342 343 344 343 339 338 341 342 340 336 337 336
352 351 351 349 349 348 349 349 348 345 343 341 339 340 340 339 339 340 339 340 337 338 344 344 343 342 341 343 343 343 344 344 343 343 343 343 341 336 339 339 338 340 336
351 351 350 349 350 348 349 347 345 344 341 339 338 337 340 339 339 337 340 342 342 340 337 343 343 344 342 347 345 344 344 343 343 343 342 341 342 341 340 339 335 333 331
351 351 350 349 349 348 347 347 345 341 341 339 337 336 340 339 339 338 337 336 337 341 342 346 344 345 344 344 344 344 342 342 342 342 343 343 342 342 342 342 342 339 334
353 352 350 350 350 349 346 344 341 340 336 339 336 336 339 339 338 337 335 329 331 333 337 342 344 344 346 344 341 342 343 344 343 342 341 341 342 342 342 342 343 342 341
353 352 351 351 350 344 345 342 340 338 337 338 338 337 337 340 338 336 332 327 327 327 331 335 339 342 343 344 341 340 342 343 343 343 345 343 342 341 341 341 341 342 341
356 355 354 350 349 341 335 340 339 338 336 341 341 338 337 337 334 336 336 329 327 326 327 330 333 333 333 333 334 335 331 334 336 338 340 342 343 343 342 341 341 341 342
355 354 352 350 342 337 339 339 338 337 339 336 336 338 339 339 337 336 333 330 328 326 327 325 327 329 329 327 328 326 320 321 322 326 330 335 338 341 342 343 342 341 341
354 350 351 346 341 338 341 340 338 339 337 336 334 335 337 334 335 333 332 330 329 329 327 326 325 325 326 326 324 325 319 319 319 319 319 321 323 329 335 340 342 342 343
349 350 351 346 340 337 340 339 338 338 337 337 336 337 332 331 331 331 330 330 330 328 328 327 327 324 324 325 324 319 318 318 318 317 317 317 317 318 320 324 333 340 342
345 347 351 346 340 340 339 337 337 336 337 336 337 335 334 333 332 331 331 331 331 330 330 330 329 326 325 325 326 326 324 321 318 317 317 317 317 316 316 317 318 323 333
341 342 350 344 340 339 338 335 334 334 334 334 335 336 334 334 332 332 331 332 334 330 330 332 330 327 326 326 326 326 328 326 322 317 317 317 316 316 316 316 316 317 319
341 346 346 343 338 339 336 335 333 334 332 333 332 333 335 331 330 331 332 333 332 333 330 328 328 327 328 327 328 328 329 328 327 323 319 318 316 316 316 317 317 317 317
347 344 343 339 338 338 335 336 333 333 333 330 329 330 333 331 331 331 332 331 330 331 333 328 327 327 329 329 329 329 329 328 327 326 324 322 320 318 317 318 318 317 317
347 344 343 337 337 337 336 336 335 332 333 332 331 333 335 336 333 330 330 329 329 329 330 328 327 327 328 330 330 330 329 328 327 326 324 323 322 319 319 319 319 318 318
343 342 341 339 337 336 336 336 335 332 332 332 333 334 336 334 334 333 332 332 330 330 330 329 328 329 328 327 328 330 329 327 326 326 325 324 321 321 320 321 321 319 320
329 333 322 330 336 337 336 337 337 335 333 332 333 335 335 335 333 333 332 330 329 329 329 329 329 328 327 326 327 327 328 325 326 325 324 323 322 321 322 321 321 321 320
326 328 326 323 334 339 337 337 336 336 333 332 334 335 336 336 334 333 332 332 332 331 329 328 329 327 326 326 326 326 326 324 323 324 324 323 321 322 322 322 322 321 321
327 324 326 328 332 339 337 336 335 334 334 334 335 336 336 337 334 331 330 329 330 329 328 327 327 326 325 326 327 326 325 325 324 324 324 322 320 322 324 323 322 321 321
328 325 328 331 334 336 333 332 333 334 335 337 337 338 336 333 334 331 329 326 326 327 327 326 326 326 327 328 327 326 326 325 326 324 323 321 323 324 323 322 321 320 320
331 332 334 335 334 336 334 332 331 332 335 336 338 336 334 331 332 333 333 330 327 327 326 327 329 328 328 326 326 326 325 325 324 321 323 324 323 323 321 321 320 321 321
334 336 337 336 335 335 337 336 333 334 336 338 337 334 330 330 331 332 332 330 329 329 329 328 327 326 325 324 322 321 322 322 322 322 323 325 322 320 320 320 320 320 319
337 339 339 338 337 337 339 336 334 334 336 336 330 329 326 325 331 329 327 328 329 328 326 324 322 320 319 318 318 319 320 321 322 321 320 321 320 320 320 319 320 320 321
339 339 339 338 337 338 337 332 331 333 334 328 328 328 329 330 329 326 324 327 326 325 325 322 321 321 319 320 319 319 320 320 320 319 318 320 320 319 319 318 319 320 320

GFSMA_925_thetae_003.txt.gz
Theta_e
353 353 352 351 351 350 349 348 348 349 348 347 345 343 341 338 337 336 339 342 343 343 343 347 344 345 347 347 347 347 346 346 338 336 344 344 344 344 342 339 336 341 343
351 353 351 350 349 349 349 347 351 349 347 344 342 342 341 339 339 339 338 342 341 344 342 343 345 343 345 349 348 348 348 346 344 340 336 340 342 343 343 337 331 331 335
352 354 351 350 349 350 352 350 349 347 344 339 339 339 339 339 338 340 339 337 342 345 343 340 342 342 343 348 349 344 342 345 346 346 345 341 340 338 338 339 338 336 335
355 355 351 350 349 350 349 350 347 344 340 338 337 338 338 338 339 339 339 338 337 337 346 342 340 341 341 342 343 344 346 344 342 342 341 343 342 339 336 338 342 338 339
354 354 351 349 351 350 349 349 347 342 338 337 337 336 339 339 338 338 337 339 341 341 337 345 342 343 342 342 343 343 343 343 343 343 343 342 342 342 342 339 337 336 334
355 355 351 352 351 350 348 347 345 339 339 339 337 334 339 340 338 336 335 334 338 339 342 343 346 346 343 343 343 344 344 343 342 342 342 342 342 342 341 341 341 341 341
355 354 353 351 350 350 348 343 341 337 338 338 335 337 339 339 338 336 332 331 332 332 337 341 343 345 344 343 343 343 344 344 342 342 341 341 342 342 342 342 342 342 342
352 353 353 350 350 348 347 344 341 338 337 338 338 336 341 341 339 336 334 329 328 329 333 337 340 342 343 343 343 340 342 343 344 344 344 344 343 342 342 341 341 341 342
355 356 355 354 353 347 334 343 340 339 336 340 338 338 339 345 340 337 337 332 329 328 329 332 334 334 334 336 339 336 333 336 338 339 340 341 341 342 342 342 341 341 341
355 355 355 351 351 338 342 339 338 339 339 336 336 337 337 338 340 340 336 334 331 329 328 327 327 330 329 328 329 328 320 321 322 324 327 330 332 335 338 340 341 342 341
353 351 350 352 348 338 340 340 339 340 341 337 335 334 338 334 335 333 333 333 330 330 329 327 327 325 326 327 326 326 318 317 318 318 318 318 318 319 322 328 334 338 341
352 349 348 351 346 337 340 340 339 340 339 339 337 337 335 332 333 332 331 330 331 330 330 329 328 328 325 325 326 323 321 317 316 316 316 317 316 316 316 316 317 321 329
346 352 349 353 346 341 340 339 339 340 338 338 338 337 334 334 333 332 331 331 333 331 331 331 330 330 328 326 326 326 327 323 321 317 315 316 316 316 316 316 316 316 316
345 347 350 350 347 340 340 339 337 336 336 337 336 336 336 335 335 333 332 334 336 333 331 331 331 330 328 328 328 326 328 329 327 326 318 317 316 317 316 316 316 317 317
345 343 347 347 345 340 341 339 336 336 335 335 334 335 335 333 331 331 332 331 333 335 335 330 328 328 328 330 329 329 330 331 330 328 327 324 321 319 318 317 316 318 318
347 345 348 347 343 339 341 338 336 336 335 334 332 331 333 332 331 331 333 332 330 329 331 328 329 329 329 329 329 330 330 330 329 328 328 326 324 322 322 320 318 318 319
352 346 347 344 340 340 340 339 337 337 337 337 335 332 333 335 334 332 330 331 329 329 330 329 329 329 330 330 330 331 331 330 329 328 327 326 324 323 322 321 320 320 321
352 347 345 344 338 339 338 339 338 336 335 335 334 334 335 335 337 337 334 333 333 332 332 334 331 331 330 330 330 329 329 328 327 327 326 326 324 323 322 322 321 321 321
352 346 344 343 337 337 338 338 338 338 336 334 334 334 335 336 336 335 335 334 332 332 332 330 330 329 328 328 327 328 329 328 327 326 326 325 325 324 323 322 321 321 322
350 343 341 339 337 338 339 339 338 338 337 336 334 335 336 337 337 336 336 336 335 335 333 330 329 329 329 328 327 327 328 326 327 326 326 325 322 324 323 321 321 322 323
348 340 338 336 336 338 339 340 338 337 338 337 334 335 337 337 337 336 335 333 332 332 332 331 330 329 329 328 328 328 328 327 327 325 324 324 325 324 323 322 323 324 324
345 338 335 334 336 335 334 336 337 336 336 336 336 337 337 339 335 332 330 332 331 329 329 329 330 329 329 329 329 329 328 326 325 323 324 324 322 323 324 324 325 324 322
344 338 335 336 336 338 334 335 333 335 334 335 335 337 339 336 334 334 330 328 327 330 329 326 330 331 330 330 327 327 326 325 324 322 322 323 322 323 324 325 323 321 320
346 341 337 335 336 338 335 333 331 332 332 333 335 337 338 337 335 329 329 328 331 333 331 330 330 331 328 326 325 323 322 322 321 321 322 324 322 322 323 323 321 322 320
349 342 338 337 339 339 336 333 333 334 334 335 336 337 338 334 329 327 327 329 331 331 331 330 328 325 322 320 319 319 320 319 319 319 319 320 320 318 318 319 321 321 321
349 343 340 340 342 342 340 336 335 335 334 333 335 338 333 328 328 329 330 330 331 330 328 327 327 323 322 322 319 319 320 321 319 319 316 315 315 316 322 321 321 320 319

GFSMA_925_thetae_006.txt.gz
Theta_e
351 350 353 351 350 351 350 348 347 349 345 345 341 343 341 340 339 337 340 343 340 341 342 344 344 338 342 347 345 346 346 345 344 344 344 344 342 342 341 341 339 340 341
352 350 352 349 349 350 347 348 349 348 349 347 343 341 340 340 338 340 339 342 341 341 342 341 344 343 344 347 344 344 345 343 341 340 341 343 340 343 342 341 339 332 333
352 354 354 352 351 350 351 350 347 347 345 343 338 338 339 339 339 339 339 338 345 344 342 341 340 341 342 344 347 346 344 345 345 344 341 339 341 341 340 339 336 335 335
353 354 353 352 348 350 349 349 349 346 343 338 337 339 338 339 336 340 339 336 338 342 342 342 339 339 340 341 344 346 343 341 341 342 345 343 343 340 339 338 338 341 338
352 352 352 352 350 352 349 349 347 344 337 338 337 336 338 338 337 337 337 339 339 340 345 345 340 340 342 341 342 343 343 343 343 342 342 342 341 342 342 341 338 335 336
353 352 352 352 350 350 348 345 345 341 339 338 340 335 339 339 339 335 334 336 336 339 343 346 346 346 342 343 344 342 342 342 342 342 342 342 342 342 341 341 342 341 340
354 353 353 351 351 349 348 345 341 339 338 338 335 337 339 338 336 335 331 331 330 333 337 340 344 344 342 343 343 343 343 343 344 342 341 341 341 342 342 342 342 342 342
353 352 350 350 351 350 348 346 342 340 338 338 336 339 344 342 338 336 331 329 329 330 334 337 339 339 343 343 341 338 340 342 343 342 342 341 341 341 341 341 341 341 341
354 353 354 353 350 345 343 344 341 340 338 341 337 340 346 348 341 339 334 331 329 329 329 333 333 332 332 337 340 336 331 331 336 338 340 341 342 342 342 342 342 341 341
355 353 352 352 352 343 340 340 339 337 340 340 341 337 336 335 343 343 338 333 330 329 327 327 327 331 327 330 329 328 325 319 320 321 323 325 327 330 333 337 339 341 342
354 355 353 352 349 339 339 340 340 334 342 336 337 339 340 338 332 337 340 334 333 330 329 328 327 326 327 326 327 329 325 318 316 317 318 318 317 317 317 319 323 329 335
354 351 350 349 347 338 343 341 339 340 338 341 338 337 336 338 336 339 338 335 335 332 331 329 329 329 327 326 326 326 325 326 322 316 316 316 316 316 316 316 316 316 317
355 351 347 351 348 341 340 340 341 340 339 338 337 337 337 332 334 332 333 334 335 331 332 332 330 331 330 328 327 327 327 327 326 324 323 315 316 316 316 316 316 316 317
347 351 347 350 349 344 340 340 339 338 338 338 336 336 336 336 333 333 334 333 337 335 330 331 330 332 331 328 328 328 327 329 330 330 329 327 324 323 319 317 316 317 316
349 351 350 351 349 344 341 340 338 337 339 338 337 336 333 334 335 334 332 333 332 338 334 331 329 330 329 329 329 330 330 330 330 331 329 328 326 325 324 321 319 319 318
348 346 350 348 350 344 342 341 338 339 337 335 335 335 336 336 334 333 331 331 332 333 335 330 330 330 330 329 329 330 330 330 330 329 329 329 327 326 325 323 322 321 320
350 347 344 349 348 347 342 342 338 337 336 336 334 333 333 335 334 334 335 333 331 329 335 332 329 330 329 329 328 329 329 329 331 331 330 328 328 327 326 324 323 322 322
353 347 348 349 349 345 343 342 338 338 340 338 339 337 334 335 335 334 334 335 333 333 334 335 332 331 331 331 328 331 330 330 329 329 326 327 327 326 325 325 323 323 322
355 354 349 351 347 343 343 340 339 337 338 335 335 335 334 335 336 336 337 335 334 335 334 333 333 332 330 327 326 327 327 328 329 327 326 327 326 325 325 325 324 324 323
358 357 353 351 348 342 341 341 341 340 338 336 337 335 335 337 336 336 334 334 335 335 333 332 332 332 331 330 330 330 329 328 329 329 328 327 326 324 324 325 325 324 323
361 359 354 350 347 341 342 342 341 340 339 339 339 336 334 336 337 336 336 335 335 333 331 330 329 330 330 330 329 329 329 329 328 327 328 325 324 325 325 324 323 323 323
362 359 351 347 344 340 339 338 341 341 339 339 339 337 335 338 336 333 333 332 330 331 331 330 330 330 329 330 329 328 330 329 328 326 326 324 323 324 323 321 321 324 324
359 355 349 344 342 339 339 338 341 340 337 338 339 336 335 335 336 335 334 333 329 328 327 326 328 329 330 329 328 328 328 327 325 323 322 322 322 323 324 324 323 322 322
357 353 348 341 338 339 336 336 334 338 335 337 337 334 334 334 337 337 335 332 328 329 330 329 330 330 329 328 327 325 320 320 321 321 321 323 320 319 320 321 318 316 314
355 352 348 340 339 339 338 337 334 334 333 334 332 331 334 336 338 332 332 329 329 329 329 331 329 328 329 328 324 321 320 320 321 321 320 319 319 316 314 313 313 316 320
352 352 349 342 340 340 340 338 335 333 333 334 332 333 334 334 335 332 329 330 333 331 331 330 328 327 326 325 321 322 321 321 321 322 319 316 314 312 310 314 320 321 321

GFSMA_925_thetae_009.txt.gz
Theta_e
350 347 347 348 350 349 346 348 349 344 346 345 345 340 338 339 339 338 338 341 340 340 342 343 342 333 343 347 345 345 345 344 345 344 342 341 341 338 341 341 340 341 339
351 350 351 349 350 350 348 348 346 346 344 343 344 338 338 338 338 340 339 339 340 341 341 342 343 342 339 347 347 346 346 344 338 334 340 343 340 341 340 340 338 336 335
349 352 352 350 350 350 350 348 347 345 342 342 337 336 337 338 338 337 338 339 341 341 341 341 341 342 342 344 348 344 344 344 342 339 335 334 338 339 341 342 341 335 333
350 353 349 351 350 349 350 348 347 347 341 338 336 337 337 338 336 337 337 336 338 340 340 341 339 339 340 342 343 344 343 343 344 343 344 343 342 340 339 338 337 337 339
351 350 350 350 350 350 349 348 347 343 339 334 336 337 337 337 337 335 337 336 339 340 340 342 340 340 340 340 341 342 342 342 342 340 341 341 341 341 341 340 339 337 335
350 350 350 353 350 350 347 346 344 340 337 339 339 335 338 339 336 335 336 335 338 342 344 345 344 345 342 345 344 342 342 342 342 342 342 342 342 342 342 341 341 341 340
351 352 349 351 352 349 346 345 341 337 337 339 336 338 337 338 336 333 331 330 333 334 339 340 342 344 342 340 341 343 342 342 342 342 341 341 341 341 342 342 342 341 341
353 350 349 348 349 351 347 345 340 337 338 337 335 339 338 340 337 332 330 329 330 333 335 336 334 341 342 340 337 337 339 341 342 342 341 341 341 341 341 341 341 341 341
350 351 350 350 350 348 347 345 338 335 337 340 337 338 338 338 339 335 330 329 328 328 329 333 330 330 336 336 336 332 327 322 333 338 340 341 341 341 341 342 342 342 342
353 353 352 352 351 344 342 340 341 339 339 338 341 335 334 334 336 337 333 330 329 328 327 328 331 329 327 329 327 328 326 319 317 319 320 322 324 327 329 332 335 338 340
355 355 353 353 351 344 336 339 338 333 339 337 339 339 338 337 332 334 334 335 329 329 329 326 326 326 327 327 326 326 326 325 323 316 316 317 317 317 317 317 318 320 323
352 350 352 351 351 345 337 340 339 332 341 341 338 336 337 337 336 337 330 332 333 332 329 329 328 328 327 326 326 327 326 326 326 325 320 316 316 316 316 316 316 316 316
354 354 354 352 349 343 339 339 337 338 338 339 334 336 338 333 333 332 332 331 330 331 331 332 330 329 329 329 327 326 326 327 326 329 329 328 325 316 315 317 316 316 316
354 352 351 348 347 344 340 338 340 337 339 335 340 335 337 336 334 332 332 331 329 332 331 329 332 331 330 331 328 327 327 328 329 329 329 329 328 326 324 323 321 319 317
355 352 349 348 349 348 338 340 339 337 340 337 335 333 334 335 335 335 335 334 331 329 327 330 328 330 332 331 328 328 329 329 330 330 330 329 328 328 327 326 324 322 320
348 349 350 347 350 348 342 340 339 336 337 339 337 336 333 333 333 335 333 333 332 331 328 330 331 328 328 329 329 329 330 330 330 328 328 330 329 329 328 327 326 325 324
350 350 349 349 350 348 343 341 340 337 338 336 335 334 334 334 335 333 333 334 332 334 332 332 331 330 330 330 327 329 329 329 329 329 328 329 330 328 328 328 327 325 324
353 351 349 348 349 349 345 341 341 339 336 339 335 335 334 332 335 333 333 334 336 335 334 333 332 332 332 332 330 330 328 330 328 328 330 328 328 326 325 325 326 325 325
354 352 348 347 348 347 347 343 341 340 338 339 336 336 335 335 332 334 335 336 336 334 334 333 332 331 330 330 331 330 328 329 328 331 332 328 327 327 327 326 326 324 323
358 354 351 346 346 347 346 344 343 342 336 338 338 339 338 334 333 336 336 335 334 333 333 332 332 330 331 331 329 331 329 328 327 326 327 327 327 326 325 324 325 325 324
360 359 353 350 349 348 347 344 342 341 336 338 338 338 337 336 336 336 335 335 334 328 332 332 331 330 329 329 326 329 329 328 327 327 326 326 326 325 324 322 322 321 319
361 359 357 354 351 350 346 343 342 341 337 340 338 337 337 334 335 336 337 334 333 334 334 332 330 329 329 328 327 330 328 328 326 325 326 322 317 317 319 322 323 323 321
362 361 359 356 353 350 345 342 342 340 340 339 338 338 339 335 335 336 336 333 332 331 330 330 329 327 327 326 328 329 327 327 327 322 318 320 320 321 319 319 319 318 319
363 362 361 357 353 349 343 340 339 339 340 340 340 338 339 337 335 334 333 334 334 332 330 328 330 329 329 328 328 328 327 325 320 318 317 321 321 320 317 315 314 312 311
362 360 358 354 347 344 342 339 335 337 339 340 338 337 337 335 332 333 332 331 331 331 327 329 330 330 328 327 328 328 325 321 319 320 319 320 320 314 312 308 308 313 317
359 356 353 350 346 341 338 336 335 335 335 335 335 335 334 331 333 332 331 332 330 328 330 329 329 327 326 324 324 324 323 320 320 319 320 316 313 311 309 309 310 314 318

GFSMA_925_thetae_012.txt.gz
Theta_e
349 346 345 345 347 347 345 344 345 346 348 345 344 340 338 338 338 338 341 340 340 339 342 342 341 335 346 345 346 344 344 336 337 340 344 342 342 336 339 340 339 337 338
350 347 347 348 349 349 348 348 347 347 344 341 343 338 336 336 338 339 338 340 340 340 340 342 342 334 337 348 346 346 346 345 343 344 343 341 341 340 335 338 340 338 336
350 349 349 349 349 347 349 348 347 344 341 339 336 338 337 337 336 337 337 338 340 341 340 339 341 342 340 342 348 347 346 344 341 336 333 341 342 341 339 341 341 338 334
350 350 350 349 348 348 347 348 347 346 340 337 335 336 337 336 336 336 336 337 339 342 341 340 338 339 340 342 343 347 344 342 343 342 340 335 334 335 337 339 338 339 337
349 349 349 347 349 348 349 348 347 344 339 333 337 337 337 335 334 336 336 336 338 339 342 341 339 339 339 340 341 342 343 342 341 343 342 342 342 341 341 339 339 337 336
351 350 348 350 349 350 350 347 345 341 336 338 339 335 337 336 335 335 334 338 338 338 343 342 343 343 341 341 341 342 341 342 341 342 342 342 341 341 341 341 340 340 340
351 350 349 350 351 351 349 346 342 337 337 338 338 336 338 337 333 334 330 333 334 334 338 339 341 344 342 340 340 341 341 341 341 341 341 341 341 341 341 341 341 341 340
350 349 349 350 351 350 349 346 343 333 337 339 334 337 335 339 335 330 329 333 335 334 335 331 333 341 340 340 335 336 339 341 341 341 340 340 341 340 340 340 341 341 341
351 351 352 349 348 350 350 345 343 333 338 339 337 338 336 336 338 332 328 329 329 329 331 332 329 330 334 333 331 327 324 320 328 337 340 341 341 341 341 341 342 342 341
351 353 350 348 347 349 347 345 339 333 337 337 339 334 336 338 334 337 330 329 328 327 328 329 330 328 327 327 326 326 326 323 322 317 319 321 323 325 327 329 331 335 337
354 352 352 350 349 348 342 341 338 339 338 336 338 337 334 334 333 333 332 332 328 328 327 326 329 327 326 327 326 326 326 325 325 322 317 316 316 317 317 317 317 317 317
353 353 352 352 352 348 341 338 337 336 338 337 338 338 338 335 334 333 328 330 331 330 329 329 327 327 325 326 326 326 327 325 326 326 322 321 320 316 316 316 316 316 316
354 354 354 352 350 349 342 335 339 338 337 339 337 336 336 334 333 332 330 328 327 331 330 330 329 328 328 327 327 327 326 326 327 327 328 328 328 327 322 319 320 321 319
355 354 351 352 349 349 344 336 338 335 334 337 338 334 336 335 332 332 331 330 326 329 330 329 330 331 329 329 328 329 328 327 327 327 329 329 328 328 326 325 325 324 322
353 352 351 353 351 349 344 335 336 337 335 337 334 337 335 336 335 335 335 333 329 326 325 329 329 330 330 331 330 329 328 328 329 329 329 330 330 329 328 328 327 326 325
354 352 353 353 351 348 345 339 337 337 335 338 335 335 333 332 332 334 334 333 332 330 326 330 330 329 328 328 328 329 328 329 330 330 330 330 330 330 330 330 329 328 327
352 352 353 351 349 347 347 341 337 337 335 337 337 337 336 333 333 334 333 333 334 333 329 330 332 330 331 331 330 330 328 328 329 328 330 329 328 328 329 329 327 325 326
355 353 354 352 349 348 348 344 341 338 336 335 336 338 337 333 334 334 335 333 335 335 332 331 332 332 331 329 331 331 330 330 329 329 328 328 329 330 329 328 327 326 326
353 353 349 350 350 349 349 346 342 339 338 336 337 337 334 334 335 333 334 333 334 335 334 333 332 332 330 330 329 329 330 329 330 329 327 326 326 327 328 327 326 325 325
355 355 352 350 349 348 349 347 344 341 339 339 336 336 336 335 334 334 332 335 335 335 334 333 332 331 331 330 329 329 329 329 328 328 325 325 325 323 326 325 324 322 321
356 356 354 352 350 349 348 348 346 343 340 340 338 337 338 337 338 337 333 335 335 334 334 333 332 331 331 329 329 328 327 328 328 325 325 322 322 319 317 316 317 319 321
359 359 355 352 350 349 347 347 346 345 342 341 339 335 337 337 337 336 333 335 334 335 333 332 331 330 329 328 327 326 327 328 325 325 325 324 317 317 319 320 318 319 318
359 360 358 355 352 350 348 347 346 346 343 342 339 333 336 337 337 336 334 333 333 333 333 332 332 330 329 328 328 328 328 328 327 326 325 320 318 318 319 319 318 316 314
359 359 359 359 357 353 351 349 347 344 343 341 338 334 337 338 338 335 334 333 333 331 331 330 330 328 327 328 330 329 328 328 327 326 322 319 320 319 319 316 314 313 308
360 360 360 358 356 337 351 349 343 342 342 341 338 337 338 339 337 333 334 333 330 329 330 330 328 328 327 328 327 326 327 325 321 322 321 320 320 318 313 310 308 307 310
361 361 361 358 341 343 349 348 345 340 340 340 339 340 340 338 336 334 332 330 330 329 330 328 329 328 326 325 323 322 323 322 320 318 319 317 315 312 310 308 307 306 313

GFSMA_925_thetae_015.txt.gz
Theta_e
348 347 346 346 345 346 345 345 345 347 348 344 342 339 337 336 337 338 341 341 340 338 343 341 344 346 346 346 345 344 344 343 341 342 340 341 337 333 335 339 337 335 336
350 346 344 346 347 347 346 347 348 347 343 341 342 338 334 334 337 338 337 339 340 340 339 340 342 337 343 347 345 344 344 342 340 338 341 342 341 338 334 337 340 339 339
349 348 346 348 348 345 348 348 347 344 341 336 336 336 335 336 336 336 338 337 339 339 340 339 341 339 337 345 346 344 343 343 341 341 342 341 341 340 340 338 337 339 335
350 349 348 349 348 347 348 347 347 345 341 336 334 336 336 336 334 334 337 337 339 340 340 339 338 339 341 342 342 347 343 343 342 341 339 334 336 340 340 337 340 339 340
350 349 350 348 347 349 349 348 346 346 340 333 336 336 337 335 334 336 336 334 337 339 341 340 338 338 338 340 343 343 345 343 341 341 341 340 338 336 336 337 338 337 337
350 349 349 348 347 348 348 348 346 343 335 338 339 337 336 335 334 335 336 337 336 337 338 341 340 340 340 343 341 340 340 341 341 341 340 341 340 340 340 340 340 340 339
350 350 350 348 349 348 349 348 344 339 335 337 338 336 337 335 334 333 334 335 333 334 338 338 339 343 341 341 339 340 340 341 341 340 340 341 341 341 342 342 341 341 340
351 351 351 348 349 350 350 347 344 338 335 338 333 335 333 337 332 330 333 332 332 335 334 329 336 342 340 339 334 334 335 338 340 340 340 340 340 340 340 340 340 340 341
352 350 350 349 349 350 350 348 343 340 335 337 336 336 334 335 335 331 332 333 331 331 331 329 330 332 336 333 329 326 323 319 322 332 338 340 341 341 341 341 341 341 341
351 351 350 350 349 349 348 349 344 338 336 338 338 335 336 338 332 331 329 328 328 328 329 329 328 327 327 326 326 326 325 324 323 317 317 319 322 324 326 327 329 331 333
351 350 350 351 348 346 348 348 344 337 334 337 339 335 334 333 335 332 328 329 328 327 327 327 329 328 327 326 326 326 326 325 325 324 321 316 315 316 317 317 316 316 316
352 351 352 352 349 348 347 345 342 338 336 336 337 338 335 334 332 331 327 328 328 329 328 328 326 327 327 326 326 326 326 326 326 326 326 325 325 325 318 315 315 316 316
352 353 353 352 351 350 349 342 339 336 334 336 336 337 337 334 333 333 330 327 327 330 331 329 330 329 327 327 327 327 327 326 326 327 328 328 327 326 326 325 323 322 322
352 354 353 353 352 351 349 343 337 336 337 336 337 336 336 334 332 331 330 329 325 327 329 329 330 330 331 329 328 327 328 327 326 327 327 328 329 328 328 327 327 326 325
352 354 352 353 353 352 350 346 338 337 337 333 337 337 334 335 334 333 332 331 327 325 324 328 329 328 329 330 331 329 329 329 328 327 327 328 328 330 329 329 329 329 328
352 351 352 353 352 351 349 347 339 336 335 334 334 333 336 334 335 334 334 333 332 329 325 328 329 329 328 328 328 329 329 328 327 328 329 329 329 330 330 329 328 329 329
352 351 351 354 350 351 350 347 340 336 336 334 336 334 334 333 332 332 334 333 333 331 329 330 330 330 329 330 330 330 330 330 329 329 330 329 330 328 329 329 329 329 328
353 354 353 353 351 351 352 349 343 340 336 335 333 336 335 336 335 333 333 334 333 333 332 330 331 331 331 331 330 329 328 329 330 330 330 329 328 326 327 329 328 328 327
354 353 353 352 351 352 351 349 345 344 339 336 333 333 335 336 336 333 334 335 333 334 334 332 331 331 332 331 330 329 328 327 327 329 328 327 325 324 325 324 325 324 323
354 354 353 353 352 352 351 349 346 346 342 339 335 334 334 335 334 333 334 332 332 333 334 334 333 332 331 331 330 328 327 325 327 326 327 326 324 322 320 319 319 318 317
354 353 354 353 353 352 351 349 347 347 345 342 338 337 335 335 335 335 334 335 334 335 335 334 333 332 330 329 328 327 327 326 325 327 327 324 324 322 316 317 319 319 318
354 354 353 352 351 350 349 348 348 346 346 342 341 339 338 336 336 337 336 337 335 334 334 333 332 331 330 329 328 327 327 326 325 327 326 325 325 320 317 317 317 318 318
355 354 353 352 352 352 352 350 349 347 345 343 343 340 338 338 335 337 337 337 335 333 332 332 332 331 330 329 328 328 328 327 327 327 326 325 324 320 320 320 318 317 317
356 355 354 354 353 353 353 352 349 341 340 343 344 343 341 339 334 335 337 336 334 334 332 331 330 329 330 328 328 329 328 327 327 327 325 320 321 321 317 314 313 312 310
356 356 355 356 356 354 355 354 350 337 341 343 344 343 341 339 334 337 337 334 333 333 331 329 329 330 328 328 327 326 325 324 322 323 322 319 320 315 311 308 308 307 307
357 356 357 357 357 356 356 353 342 345 342 344 343 341 340 338 338 339 337 334 333 330 329 330 329 327 325 322 320 320 320 321 320 318 317 316 313 311 308 306 306 307 309

GFSMA_925_thetae_018.txt.gz
Theta_e
347 347 344 344 345 345 344 344 344 346 347 344 342 337 335 335 336 337 340 340 339 338 342 342 341 346 346 345 344 345 344 342 343 342 340 343 335 334 333 336 338 337 333
349 348 344 345 346 345 345 346 346 346 343 341 342 339 333 333 334 337 337 340 338 339 339 341 341 340 344 345 345 345 343 343 343 340 341 341 341 340 335 336 338 339 338
348 349 345 345 347 346 347 347 347 344 340 336 337 334 335 335 333 335 338 336 339 339 339 339 340 342 335 341 344 345 345 342 341 335 339 341 339 339 339 337 336 339 338
349 349 348 347 348 346 344 346 347 346 343 335 335 336 335 336 334 332 336 336 338 339 339 338 338 339 340 341 343 342 341 340 341 342 340 338 338 339 340 338 337 339 339
349 349 349 348 349 348 348 348 347 345 340 334 335 335 336 335 335 335 335 334 336 338 340 340 338 337 338 338 340 341 343 343 341 341 340 340 339 335 333 335 336 337 337
350 348 347 349 348 348 348 347 346 344 335 337 337 335 335 334 334 334 334 336 336 334 340 340 339 340 340 341 341 339 339 340 340 340 340 340 341 340 340 340 340 339 339
350 350 349 349 348 347 348 348 345 341 334 337 337 336 336 334 334 334 337 335 332 334 336 336 338 342 342 339 338 338 339 339 339 339 339 340 340 341 341 341 341 341 341
349 350 350 350 349 349 348 349 345 340 333 337 333 334 339 337 332 331 334 334 333 332 330 328 338 341 340 338 333 333 331 336 340 340 339 339 339 340 340 340 340 340 340
350 350 350 351 349 348 349 350 346 341 333 337 335 334 337 341 333 330 333 334 333 330 329 328 332 333 337 331 326 325 322 321 320 326 334 337 339 340 340 340 340 340 340
350 350 351 351 349 349 348 349 348 343 333 336 337 335 336 336 338 338 329 331 329 328 328 329 328 327 328 327 326 325 324 324 323 320 316 316 317 319 320 321 322 323 325
350 350 350 350 349 350 347 347 347 344 336 336 337 335 333 335 334 332 332 328 328 327 328 327 327 328 327 326 326 325 325 325 325 324 321 319 318 316 316 316 316 316 316
350 352 350 350 350 350 347 345 348 344 338 333 337 337 333 332 331 332 332 329 329 328 328 328 328 327 327 327 326 326 326 326 326 326 327 327 326 325 324 319 316 317 320
351 351 351 351 351 351 349 347 346 343 338 334 334 336 337 336 333 331 331 328 330 330 331 330 329 329 329 328 327 327 327 327 326 326 327 327 328 328 327 326 325 324 324
347 350 350 351 352 352 350 349 346 342 336 334 334 335 336 336 333 332 331 329 330 328 329 330 328 329 329 330 329 328 328 328 328 327 326 327 327 328 329 328 328 328 328
348 348 349 351 352 352 351 350 347 341 336 336 335 336 335 335 334 331 331 329 328 331 331 327 328 328 328 328 329 329 329 328 329 328 328 327 327 328 328 329 329 329 329
350 348 350 352 353 352 352 351 348 344 338 336 335 334 337 335 335 334 334 333 332 328 332 327 328 328 328 328 328 328 328 329 329 328 328 328 329 328 329 330 329 329 329
351 351 349 351 352 352 352 351 350 346 340 336 335 333 334 333 334 334 334 333 333 331 330 329 329 330 329 328 330 330 330 329 329 329 330 330 329 328 328 328 330 329 329
352 351 349 351 351 351 352 351 350 347 342 337 334 334 334 333 333 332 331 332 333 332 331 331 331 330 331 330 331 331 329 328 327 326 327 329 329 327 325 324 324 325 326
351 351 350 350 351 350 352 351 350 349 346 340 337 334 333 335 334 335 333 333 333 333 333 332 332 331 330 331 330 330 329 326 325 326 328 328 327 326 324 322 321 322 323
351 351 351 351 352 353 352 351 350 350 348 344 341 337 333 334 335 335 334 332 334 333 333 333 332 332 332 332 330 329 328 325 325 324 325 327 326 323 322 318 316 317 318
351 352 351 352 352 352 352 351 350 351 350 347 343 341 337 334 333 335 334 333 333 332 332 332 333 332 332 331 329 329 327 326 325 325 325 325 325 324 324 317 316 317 318
352 352 351 351 352 351 351 351 351 350 349 346 343 342 340 337 335 335 336 335 334 334 334 333 334 333 332 330 330 328 327 326 328 326 326 327 327 326 325 321 319 319 318
352 352 351 351 351 352 352 351 352 352 350 345 343 344 344 341 338 337 336 337 337 337 335 333 333 332 331 330 329 328 327 327 327 327 326 326 326 325 321 321 319 315 313
352 352 351 351 351 351 351 351 351 351 348 346 345 346 345 344 342 338 337 336 337 336 334 334 332 331 330 329 329 328 328 327 326 325 324 323 322 321 318 312 311 310 308
353 353 352 351 351 351 352 351 350 348 346 345 346 342 341 343 343 341 337 336 336 334 333 332 331 329 329 328 327 327 326 324 323 322 320 319 319 314 311 309 307 306 306
354 354 352 352 353 352 352 352 351 347 344 344 338 338 342 344 343 340 336 337 335 333 332 330 329 329 327 324 320 319 319 321 320 319 315 317 314 311 309 306 306 307 308

GFSMA_925_thetae_021.txt.gz
Theta_e
348 347 344 343 344 344 346 344 346 343 346 345 344 338 340 339 342 340 342 339 339 338 341 343 341 343 342 344 343 344 341 336 342 339 341 342 335 339 337 335 338 340 334
346 348 347 345 346 345 346 346 347 345 341 344 343 336 339 337 340 341 340 342 337 339 339 342 341 341 345 344 345 345 344 344 343 340 340 341 340 339 335 333 337 338 338
347 349 348 344 346 347 346 346 347 346 341 338 338 338 339 334 334 339 341 341 342 338 338 338 340 340 339 341 344 345 344 342 343 341 339 336 340 339 339 337 333 334 338
348 348 349 348 347 348 344 342 344 346 345 338 337 336 340 338 337 337 339 339 342 342 340 337 338 340 336 339 343 341 342 342 341 342 338 340 340 340 339 339 338 338 339
347 348 349 351 348 350 346 346 347 347 342 339 337 339 339 339 338 337 340 341 342 343 343 339 337 337 338 339 339 340 340 341 341 341 340 339 339 337 334 335 337 336 337
348 348 349 347 348 351 349 350 347 344 339 340 338 339 338 337 337 340 340 341 343 344 344 345 343 342 339 342 340 339 339 340 340 340 339 339 340 340 340 340 340 340 339
350 351 352 348 348 350 349 348 347 344 339 339 339 340 340 337 335 339 340 339 337 339 341 342 343 345 344 339 338 338 339 339 340 339 340 340 340 340 340 341 340 341 340
349 349 350 352 349 351 348 349 346 343 338 339 339 339 340 338 336 334 338 337 337 334 334 338 343 344 343 340 337 329 328 333 339 340 339 339 339 340 340 340 340 339 339
348 348 349 352 350 351 351 350 348 344 342 340 336 338 339 338 339 336 336 336 336 334 334 336 337 339 338 335 330 326 322 322 319 322 329 334 336 338 339 339 338 338 338
349 349 349 350 350 352 352 351 349 346 342 339 340 338 338 341 339 340 335 335 333 332 334 334 334 334 335 333 328 325 324 324 322 321 317 316 316 317 318 318 319 319 319
350 350 349 350 351 352 351 352 348 347 343 339 339 339 339 339 340 339 340 334 333 332 331 332 332 333 333 335 333 328 325 325 326 326 325 324 323 322 319 316 316 316 316
352 350 350 350 350 352 350 351 347 347 344 338 339 340 338 337 337 339 340 337 335 333 332 331 331 332 332 333 330 327 327 326 326 326 327 327 327 326 325 324 323 323 323
352 352 349 351 352 350 350 350 346 347 345 340 335 339 340 338 337 336 336 338 337 335 334 334 333 332 332 332 332 328 328 328 327 327 326 326 327 328 328 328 327 326 326
352 353 350 352 350 350 350 350 348 347 345 341 335 335 339 340 337 336 336 336 337 336 335 334 333 332 333 331 331 328 330 328 327 328 328 327 326 327 328 328 329 329 328
352 353 348 350 350 350 351 351 349 348 345 340 337 335 337 339 337 335 334 334 334 335 334 334 332 330 329 329 330 330 329 329 328 329 327 327 328 328 328 329 329 329 329
350 352 350 353 352 350 352 352 350 349 346 341 339 339 336 338 338 337 335 334 333 334 335 333 332 333 330 331 330 328 329 328 329 329 329 328 328 328 328 328 329 328 327
351 352 351 350 353 351 352 352 351 349 347 343 340 338 338 337 337 337 337 337 336 335 335 335 333 332 329 330 332 331 332 331 332 328 328 328 330 329 328 328 327 327 327
351 351 352 351 353 354 353 352 351 350 348 345 344 340 338 337 338 337 336 337 336 336 335 337 336 335 333 335 335 334 335 332 332 329 325 326 328 328 327 326 325 323 323
352 353 353 353 354 354 353 351 351 352 349 347 345 341 336 336 337 336 336 335 335 336 335 336 335 336 335 335 335 334 334 333 329 327 326 328 327 326 326 324 321 319 317
353 352 352 353 354 354 353 351 351 352 351 348 347 343 341 337 335 336 338 337 336 336 337 336 335 335 336 336 335 334 334 333 331 329 327 325 326 326 323 322 322 317 316
353 352 353 353 353 353 352 353 351 351 351 349 347 345 341 341 336 333 337 338 337 337 337 336 336 335 334 335 335 333 333 332 331 330 328 329 328 327 326 326 324 318 318
354 354 353 353 353 352 352 349 349 352 351 350 349 347 344 343 340 335 333 335 335 337 337 337 336 336 337 337 334 333 332 331 330 330 329 327 329 327 327 326 324 320 320
354 354 354 354 354 353 351 347 350 352 351 350 350 348 346 343 342 339 335 334 335 335 335 339 338 336 335 336 335 333 332 332 331 330 329 328 327 326 324 323 322 315 312
355 355 354 354 354 353 351 347 349 350 352 351 350 349 347 345 344 341 341 338 337 337 336 336 338 338 336 336 331 332 333 332 330 329 328 326 323 323 322 319 316 312 307
356 355 355 355 354 354 351 349 348 350 351 351 351 349 347 346 345 344 340 341 340 340 337 336 335 333 332 329 330 331 330 329 328 326 325 323 321 320 317 316 313 308 306
356 355 356 355 354 354 353 351 350 350 350 351 349 348 345 346 344 343 341 342 341 339 337 333 332 331 329 328 327 327 326 324 322 322 321 318 317 315 313 311 310 308 308

GFSMA_925_thetae_024.txt.gz
Theta_e
353 352 351 350 350 348 348 347 347 345 348 347 346 339 336 336 337 337 340 337 338 338 342 344 343 345 346 344 344 344 332 333 342 339 340 341 340 340 339 332 334 340 334
353 352 352 350 350 350 351 348 346 349 344 345 343 339 336 337 336 337 338 340 337 338 339 345 342 347 346 344 345 345 345 343 341 340 339 341 342 337 334 333 336 336 337
354 352 353 351 349 350 349 349 348 349 344 340 339 339 338 336 335 337 338 340 342 338 338 340 341 342 342 342 346 345 344 341 343 342 340 341 337 339 340 340 336 335 338
355 355 353 351 351 351 349 348 348 347 345 342 339 339 337 336 336 336 336 339 340 342 340 337 339 340 339 339 341 341 343 342 341 342 340 338 340 341 340 339 339 339 337
354 355 353 352 353 353 350 349 349 348 343 340 337 338 337 337 335 337 338 338 338 341 341 337 337 338 338 339 340 341 341 340 340 339 340 339 338 337 339 335 334 336 336
354 356 354 351 351 353 351 351 350 347 342 335 335 337 338 337 336 337 337 336 339 340 342 343 343 342 340 344 340 340 340 341 342 341 341 340 340 340 340 340 340 340 340
356 357 355 352 351 352 351 350 350 348 342 338 338 338 339 338 336 337 336 334 334 336 338 340 342 343 342 339 338 338 339 339 340 340 340 340 340 340 340 340 340 340 340
357 357 353 353 352 352 352 352 348 346 343 337 339 338 340 338 336 336 336 335 334 332 333 337 340 342 341 342 336 327 328 334 339 340 339 339 339 340 340 340 340 340 339
357 358 354 351 354 353 352 354 351 349 344 339 341 340 339 339 338 337 338 336 336 334 334 336 335 338 337 333 331 325 323 321 320 323 329 332 335 337 338 337 336 336 336
356 356 357 356 355 353 354 354 352 350 350 341 339 339 341 343 340 341 338 337 335 335 335 334 335 335 335 333 329 326 324 322 322 318 316 316 316 316 317 317 318 318 317
357 355 357 356 355 353 355 356 354 353 349 344 337 340 340 339 340 340 342 338 337 335 335 335 334 334 335 335 334 328 325 326 326 326 326 325 324 323 320 317 316 316 317
354 356 356 354 355 356 356 357 356 353 351 346 338 339 339 338 338 338 338 339 337 336 335 334 335 333 334 335 334 332 326 326 326 326 327 327 328 327 326 326 325 325 326
352 352 357 357 356 357 356 357 357 353 353 348 345 337 338 339 338 337 335 336 336 336 336 335 334 334 333 334 334 331 330 328 327 327 326 326 326 327 328 328 328 327 327
352 352 355 356 357 356 357 357 357 355 352 350 346 339 337 339 340 338 336 336 338 336 335 336 334 333 333 334 334 333 332 330 328 328 328 328 327 327 327 327 327 328 329
353 354 355 357 356 357 357 357 356 355 352 351 347 344 338 336 339 337 337 335 335 337 337 336 333 333 333 332 333 334 333 334 331 329 328 327 326 327 327 327 328 328 329
356 354 357 356 356 357 357 358 355 355 354 351 346 344 342 335 338 337 336 335 334 334 337 334 333 334 333 333 334 332 334 334 330 328 329 329 329 328 328 328 328 328 329
357 357 357 357 355 357 357 358 357 354 355 353 348 345 344 339 336 337 337 336 335 334 335 333 334 335 337 338 335 334 335 335 334 333 328 327 326 326 329 330 329 328 327
357 358 358 358 356 356 357 358 358 354 355 354 351 348 346 342 341 338 338 337 336 336 335 336 335 335 338 338 339 339 337 334 334 332 330 325 324 326 328 329 328 327 326
359 357 358 359 358 356 356 357 358 357 355 355 353 351 348 343 342 337 338 336 337 337 338 335 336 337 336 337 338 339 338 337 335 333 330 328 326 326 327 326 325 323 321
360 359 359 360 358 357 356 356 357 357 356 356 355 353 350 346 342 341 339 339 337 336 336 337 335 334 336 336 336 334 336 338 335 333 331 329 327 328 328 326 323 323 322
360 360 359 360 359 358 356 356 356 356 356 356 356 355 352 349 345 343 340 339 338 339 335 337 336 335 335 335 336 334 334 333 333 334 333 331 330 331 330 328 327 327 323
361 361 360 360 360 358 355 353 355 356 356 357 356 356 354 349 345 342 339 337 339 340 338 336 336 336 336 337 336 335 334 333 333 333 334 333 330 330 330 328 326 325 323
361 361 361 361 361 360 355 353 352 355 357 356 356 356 355 352 347 345 339 335 335 337 337 339 340 338 338 339 338 337 335 335 334 333 333 332 330 328 327 326 324 322 317
361 362 362 361 361 361 358 354 352 352 356 356 355 356 356 354 351 347 346 340 338 337 337 336 338 340 340 339 339 337 336 334 335 334 332 331 327 324 323 322 321 318 314
362 362 362 362 361 361 359 357 353 352 353 356 356 357 356 356 354 349 348 347 344 341 339 337 337 339 340 338 337 335 334 333 333 331 330 327 323 322 321 319 317 314 310
362 361 361 361 362 361 360 357 355 353 352 353 355 356 355 355 354 350 347 349 348 345 342 341 339 337 337 333 330 331 332 332 329 325 326 323 319 318 319 316 313 311 311

GFSMA_925_thetae_027.txt.gz
Theta_e
352 351 351 351 350 350 350 347 348 348 347 347 340 338 338 336 338 343 343 335 337 342 346 346 347 345 344 344 345 340 333 339 341 341 344 343 338 341 340 335 334 339 337
352 353 351 351 349 351 350 348 348 348 345 345 342 338 338 338 335 338 342 340 336 338 341 347 346 348 347 347 345 346 343 334 336 341 340 341 342 338 334 334 336 340 342
354 354 352 349 351 353 352 350 349 347 344 339 339 338 339 337 337 337 342 343 339 337 338 345 344 347 348 347 347 346 344 342 343 341 339 339 340 339 339 340 337 334 334
355 356 352 352 352 351 349 348 348 343 343 340 338 338 336 336 336 336 337 341 344 343 339 339 341 344 343 346 347 348 346 343 341 342 341 337 338 339 340 339 341 340 338
355 356 353 352 353 352 348 347 347 346 341 338 337 337 337 336 338 338 336 339 339 344 341 337 337 340 342 345 347 346 347 343 341 341 340 340 339 340 338 339 335 337 337
355 356 353 354 353 351 351 351 351 344 341 336 336 338 337 336 337 338 338 338 337 339 342 344 342 342 339 345 343 341 343 342 342 341 341 341 340 339 339 340 340 340 340
355 357 355 354 353 353 353 351 350 347 340 339 338 338 338 337 337 337 336 334 335 337 338 340 345 344 342 338 338 339 340 341 341 341 340 341 340 340 340 340 340 340 340
357 355 355 354 354 353 353 353 351 349 340 338 343 339 343 338 336 336 336 335 334 333 334 338 341 343 343 345 338 330 334 339 343 340 340 340 339 340 340 340 340 340 339
356 357 356 354 354 355 351 355 352 349 347 337 342 342 342 350 338 337 337 337 336 334 335 336 337 338 339 334 332 324 322 322 323 326 330 331 332 335 336 335 334 334 334
355 357 356 354 355 353 351 354 352 351 345 341 338 340 343 346 350 347 338 337 338 336 336 336 336 336 336 334 331 328 322 322 319 317 317 317 317 317 317 317 317 317 317
356 355 356 355 355 356 353 353 354 352 349 347 339 339 339 337 339 344 343 341 338 336 336 335 336 336 337 335 336 327 326 326 326 326 326 325 324 323 322 318 317 316 318
356 356 355 357 356 356 355 357 356 355 353 346 341 340 341 340 341 340 341 341 339 337 335 335 336 334 336 336 335 332 327 327 327 327 327 328 328 327 327 326 326 325 325
350 354 355 357 356 357 356 356 358 356 355 352 347 340 340 340 340 339 338 338 338 338 337 335 335 335 334 335 336 333 330 328 327 327 327 326 326 327 327 328 328 328 328
350 350 357 356 357 357 357 357 357 357 354 354 351 343 340 341 341 340 339 338 340 338 337 337 336 335 335 335 335 335 335 333 329 328 328 328 328 327 327 326 326 327 328
352 353 356 358 358 358 358 358 356 358 355 355 352 349 342 338 340 340 339 338 337 341 345 339 335 335 335 335 335 335 335 334 332 331 329 328 327 327 327 327 327 327 327
356 356 355 356 358 358 358 358 356 356 357 355 352 349 345 338 337 340 338 337 336 335 338 337 338 336 334 334 335 333 334 335 334 330 328 328 328 328 328 328 328 328 328
361 356 359 358 358 359 359 359 357 355 358 357 353 350 348 343 339 338 338 337 336 336 335 335 336 336 337 338 337 336 335 336 335 333 333 329 328 326 325 325 327 329 329
361 363 360 361 360 359 359 360 360 354 357 358 356 352 349 348 344 340 339 339 337 337 336 339 336 339 339 338 339 339 339 335 336 335 334 332 330 327 324 326 328 329 327
363 362 362 363 362 360 359 360 361 360 358 358 357 356 352 349 347 340 338 339 339 339 339 338 337 338 338 340 340 341 340 339 338 335 334 333 330 328 327 325 325 324 325
364 363 362 363 363 362 360 360 361 361 360 358 358 358 356 352 349 346 344 340 340 339 339 339 337 335 336 338 338 337 338 338 338 336 334 333 331 330 329 329 326 325 323
365 364 364 363 365 364 361 361 360 361 362 361 359 359 358 355 351 348 344 343 339 340 336 337 338 337 335 336 339 338 337 336 338 337 335 335 334 332 332 331 330 327 325
366 365 365 364 365 365 361 358 360 360 361 362 361 360 358 356 352 348 345 344 342 342 340 336 336 338 339 338 338 337 337 337 336 334 335 335 334 333 332 331 329 327 326
367 367 366 366 365 365 362 358 357 359 361 362 362 361 360 356 354 350 346 344 342 341 341 342 340 339 341 340 340 341 339 339 336 336 334 335 333 332 329 326 325 322 320
367 367 367 367 366 365 364 361 357 356 359 360 361 361 361 357 355 353 350 345 342 340 339 338 341 342 340 342 344 342 340 339 337 336 335 335 332 329 325 324 324 321 318
368 367 367 367 367 366 365 363 360 356 358 358 360 361 360 360 360 353 352 352 347 343 341 338 334 339 340 341 341 340 338 337 335 335 334 333 329 325 322 322 321 318 314
368 367 367 367 367 367 366 364 363 358 357 359 359 360 359 359 360 357 352 353 352 348 344 341 338 337 337 339 339 339 337 336 336 334 331 328 327 322 321 320 318 316 314

GFSMA_925_thetae_030.txt.gz
Theta_e
353 351 352 349 349 347 336 349 349 346 348 339 339 338 338 336 344 342 334 334 334 336 340 347 345 345 346 346 341 336 342 345 341 341 343 342 340 341 340 335 335 337 336
352 351 351 351 350 350 349 351 347 339 346 345 342 339 337 337 338 344 334 334 336 338 343 346 349 347 347 345 345 345 339 335 337 342 342 342 342 339 337 335 335 340 340
353 351 353 351 351 353 350 350 350 348 342 342 338 339 337 337 337 340 342 336 336 337 341 343 345 346 347 347 344 344 344 344 342 342 340 339 341 340 340 339 340 338 338
356 352 353 352 348 353 348 347 348 347 347 344 338 338 338 336 335 338 343 344 343 340 340 343 341 343 344 346 346 346 344 343 341 340 344 340 340 339 340 340 338 340 339
354 355 352 352 353 349 351 348 347 348 340 338 339 336 337 336 337 337 337 343 343 343 341 338 340 339 339 345 347 346 345 344 342 341 340 340 339 339 338 337 339 336 337
355 355 355 354 354 351 353 351 349 342 338 336 338 338 337 335 337 338 338 341 342 342 341 339 340 339 340 344 343 342 343 343 343 342 340 341 340 339 339 339 339 340 340
355 356 355 353 353 352 353 351 349 346 338 339 336 338 336 336 337 338 335 334 338 341 342 344 344 344 338 340 339 339 342 342 342 342 341 340 340 340 339 339 340 340 340
355 354 354 354 354 353 354 353 352 348 338 337 344 342 346 340 336 336 335 335 335 334 336 341 343 343 343 344 330 329 333 340 340 339 339 339 339 339 339 339 340 339 339
353 355 354 352 354 353 350 353 353 350 346 337 340 345 347 347 342 337 335 335 335 335 335 337 340 340 341 332 332 322 321 321 323 326 329 329 330 334 335 334 332 330 329
356 358 355 355 353 355 353 350 354 349 347 343 337 339 341 344 349 346 338 337 337 336 337 336 337 335 337 336 334 329 321 320 318 317 317 317 317 317 317 316 316 316 316
352 355 358 355 354 353 354 352 354 348 353 344 339 338 339 339 340 346 349 343 338 337 337 334 337 336 337 334 329 325 326 326 326 326 325 325 324 324 324 322 320 320 321
354 355 358 357 355 353 355 352 352 354 350 350 345 343 340 341 342 342 346 344 342 338 337 336 335 336 337 336 336 330 327 328 328 328 328 328 328 328 328 327 327 326 326
358 357 355 359 356 354 356 355 354 356 351 351 348 343 341 343 342 341 339 343 344 338 337 336 336 335 335 337 336 334 329 328 328 327 327 327 327 327 327 327 328 328 328
353 357 354 357 357 357 354 358 357 355 357 351 353 341 343 341 341 341 340 341 345 341 338 337 336 336 335 334 335 334 333 332 331 329 329 328 327 327 326 327 327 326 326
354 352 355 354 355 356 358 354 358 358 357 355 353 351 338 341 341 341 340 339 340 348 346 337 337 335 336 335 334 335 335 335 333 331 330 328 328 327 327 328 328 328 327
351 355 358 356 358 359 360 358 360 356 357 358 355 353 346 337 338 340 340 339 337 337 345 339 337 336 335 336 335 334 335 334 334 334 331 328 328 327 328 328 327 327 329
360 353 362 360 359 360 360 360 359 358 358 357 357 354 350 341 338 340 340 339 337 336 338 336 339 337 335 335 336 334 333 334 335 334 333 331 329 328 328 326 324 325 328
355 361 357 359 361 360 360 361 361 358 359 360 357 356 355 348 341 341 343 339 338 337 337 339 338 337 335 335 335 338 338 336 337 338 337 333 333 331 329 327 325 323 326
364 360 363 361 361 361 361 362 361 361 357 361 361 358 355 352 349 340 340 342 339 339 341 338 340 339 340 339 338 336 338 340 335 335 336 334 333 332 329 330 329 325 323
363 363 363 364 364 363 362 362 362 362 361 358 360 361 358 353 351 348 339 338 342 340 339 341 339 337 340 339 340 339 341 340 340 339 338 335 334 332 331 331 330 329 325
363 364 364 364 364 365 364 363 362 362 363 362 360 361 360 358 353 350 347 343 338 342 343 341 341 340 339 339 343 342 341 338 338 337 338 336 333 334 334 333 331 330 328
365 365 366 365 365 365 365 363 362 362 363 363 363 360 361 360 358 353 350 346 342 340 343 342 341 341 340 338 340 340 339 338 339 336 337 336 335 334 335 335 332 330 329
367 367 367 367 366 365 365 364 363 362 362 363 363 363 362 361 359 357 353 350 345 344 338 338 339 339 340 339 340 340 340 339 338 337 334 335 335 334 332 327 326 324 322
368 368 368 368 367 367 365 365 364 362 361 362 362 362 362 361 360 358 354 350 349 345 343 342 340 338 338 342 341 341 341 339 338 338 337 335 334 334 330 325 324 323 321
369 369 368 369 369 368 367 366 365 362 360 361 362 362 363 362 361 359 355 351 348 347 344 343 342 343 341 337 342 343 341 340 340 338 335 336 335 334 326 324 323 321 318
370 370 370 369 369 369 368 367 366 363 360 359 360 362 362 362 362 361 357 354 352 349 347 344 341 341 339 342 342 343 341 339 339 337 335 335 334 328 324 321 322 319 316

GFSMA_925_thetae_033.txt.gz
Theta_e
350 350 350 348 348 348 343 348 348 345 343 338 339 339 345 344 343 337 336 337 340 343 349 345 346 345 344 341 337 341 343 341 342 343 343 339 338 340 338 334 334 337 337
351 350 350 349 348 347 348 347 347 338 338 340 338 337 340 340 343 337 332 336 338 341 342 348 346 346 344 344 343 335 332 338 339 341 340 341 341 339 337 336 335 338 338
352 351 349 350 349 352 350 346 343 347 344 344 341 339 337 340 342 337 336 334 336 337 343 345 345 343 346 342 343 344 342 337 336 338 340 339 341 340 340 340 340 338 338
352 351 351 349 350 349 349 349 347 345 345 342 339 339 336 335 339 342 343 342 340 336 339 340 342 343 342 341 346 344 342 342 341 341 342 339 338 339 338 340 341 337 340
355 352 352 351 350 349 349 347 349 345 342 343 340 338 337 337 336 342 343 343 342 340 336 339 340 338 338 341 343 344 342 342 342 340 340 339 338 338 338 338 337 337 336
348 353 353 352 348 349 348 350 347 340 335 338 338 336 335 337 338 337 343 343 342 340 337 337 337 338 338 345 343 342 343 342 341 340 339 339 339 339 339 339 339 339 339
347 352 353 353 350 351 351 348 342 345 336 339 338 338 334 336 338 338 342 340 342 341 341 342 342 339 339 342 339 339 342 341 342 340 340 340 340 339 339 339 339 340 339
350 352 351 353 351 352 351 348 351 348 339 338 344 341 337 337 338 334 336 339 341 342 343 343 343 343 340 338 333 333 335 336 339 339 339 338 338 338 339 339 339 339 338
351 353 353 352 354 353 352 350 351 346 340 339 340 344 337 337 339 336 335 333 336 339 341 343 343 342 339 331 327 322 322 322 326 331 333 333 332 333 334 332 327 323 321
350 352 354 352 354 352 351 348 349 348 347 338 338 342 342 344 337 338 337 334 336 335 335 338 338 340 338 334 332 324 320 319 317 316 317 317 317 317 316 316 316 316 316
348 352 355 354 352 354 355 353 352 352 349 347 338 339 339 339 342 342 337 338 337 336 336 336 336 335 338 335 330 324 324 325 325 325 324 324 324 323 323 323 322 323 323
349 350 357 357 353 352 353 352 351 352 349 351 344 344 338 339 340 340 341 341 338 338 337 334 337 335 336 336 332 329 326 327 327 327 327 327 327 327 327 327 327 327 327
351 351 352 358 355 353 352 354 351 353 349 351 348 343 341 339 340 339 343 341 340 340 338 335 336 336 336 336 335 334 329 327 327 327 326 326 326 326 326 326 327 327 327
354 353 352 356 357 355 352 354 353 353 354 347 349 344 340 341 343 341 339 341 336 338 338 336 336 335 335 336 336 335 332 331 330 329 328 328 327 326 326 326 326 326 326
353 354 355 354 357 356 353 354 356 354 355 355 348 345 341 339 340 342 340 339 339 337 338 337 337 336 335 335 335 335 334 333 333 331 331 329 328 327 327 327 328 328 327
353 354 353 357 354 356 355 353 357 359 356 357 355 350 339 339 340 342 341 339 338 337 334 341 336 336 336 335 335 334 334 334 334 333 333 332 328 327 327 327 326 325 324
356 351 354 355 355 356 356 355 353 355 358 357 357 355 352 341 336 339 342 339 339 337 336 336 337 337 335 335 335 335 335 335 334 334 334 332 331 329 327 328 328 324 324
354 357 353 358 357 355 354 357 357 356 358 357 358 357 355 352 345 334 340 340 338 337 336 335 339 339 335 335 334 335 334 332 334 334 335 336 335 333 331 330 328 327 325
352 352 357 361 360 358 357 358 357 358 358 358 356 357 356 354 351 348 337 343 340 338 337 336 339 337 335 335 335 335 335 335 336 337 338 337 336 334 332 331 330 329 328
358 358 355 357 362 360 358 358 357 356 357 357 357 360 357 356 353 351 349 339 342 340 338 340 337 340 339 336 336 337 337 335 337 338 336 336 337 335 333 333 331 330 329
358 360 360 363 359 362 361 360 359 358 358 359 356 356 360 359 356 353 350 347 339 342 341 340 340 338 337 341 342 339 338 338 338 338 338 338 337 336 334 333 333 331 329
358 359 363 360 362 363 363 361 360 360 360 360 360 358 357 360 360 358 353 350 344 337 342 341 339 340 339 337 339 341 340 340 340 338 338 338 338 337 334 334 334 334 331
364 361 360 363 361 362 363 364 363 362 361 361 360 360 359 358 360 360 357 353 351 349 340 340 341 339 338 339 338 341 341 340 339 337 336 336 338 336 335 334 328 326 325
364 365 364 362 364 363 363 363 364 364 362 361 361 361 360 359 359 360 359 356 352 351 350 344 339 341 340 338 337 338 340 340 339 337 336 335 335 334 334 333 326 324 323
365 365 365 365 365 365 365 365 364 365 362 362 361 361 362 361 360 359 359 356 353 351 351 351 346 341 338 339 342 342 341 340 339 338 337 337 336 335 333 331 324 323 322
366 366 366 367 366 366 366 366 366 365 362 361 361 361 361 361 361 361 360 358 355 352 350 348 346 344 342 341 341 341 342 340 339 338 337 335 334 334 330 325 323 321 321

GFSMA_925_thetae_036.txt.gz
Theta_e
349 349 348 347 347 347 346 347 345 345 343 340 340 342 345 345 342 336 338 342 346 346 347 346 345 341 338 339 342 341 343 343 343 341 340 339 338 340 338 333 334 336 336
349 350 349 348 347 346 343 346 345 339 340 340 341 342 343 344 342 334 335 336 338 343 347 346 347 346 345 341 336 336 341 341 340 340 339 341 340 338 336 336 334 333 335
350 348 348 348 348 348 349 346 345 342 341 338 342 342 341 342 341 333 333 334 337 341 343 346 344 344 344 345 344 339 334 330 333 336 340 338 340 341 338 338 337 337 338
351 351 350 349 348 347 348 345 347 343 341 340 339 338 337 339 341 337 335 337 336 339 342 343 344 342 343 345 345 343 342 342 341 340 341 341 338 337 337 339 339 339 337
350 349 351 349 349 350 348 346 347 344 344 343 341 339 335 339 341 341 339 341 339 336 339 339 341 340 340 341 343 343 343 342 341 340 339 340 339 338 337 338 337 337 337
352 348 351 349 350 349 348 348 346 337 337 340 338 338 337 336 338 341 342 342 342 337 337 337 338 338 339 342 342 341 342 341 341 340 339 339 339 339 338 338 338 339 339
345 353 350 352 349 349 348 347 343 341 339 337 336 335 335 337 337 338 340 342 342 340 339 339 339 338 338 339 339 339 340 341 341 340 338 338 339 339 339 339 339 339 338
344 349 351 351 351 350 349 348 346 344 336 339 338 336 332 335 338 338 341 341 342 341 341 342 341 339 339 335 332 332 335 336 338 339 339 338 338 338 339 339 338 338 337
346 347 349 351 351 351 350 348 348 347 336 339 342 339 334 333 335 337 342 340 341 341 342 341 341 340 338 333 327 323 324 324 326 332 335 335 335 336 335 331 326 321 319
349 349 350 350 350 353 352 349 348 346 343 339 339 343 342 340 332 334 334 338 341 340 340 342 340 339 338 333 329 322 320 318 317 316 316 317 317 317 316 316 316 316 318
350 350 350 351 350 353 352 350 348 346 348 338 336 341 340 342 340 337 334 336 337 335 337 338 338 335 337 334 332 323 323 323 324 324 323 323 323 323 323 322 323 323 324
350 350 350 351 352 352 352 352 350 350 349 349 342 338 338 338 339 340 336 337 336 337 336 336 337 335 334 335 334 326 325 326 326 325 326 326 326 327 327 327 328 328 328
351 351 350 352 356 354 351 352 352 350 349 350 346 344 339 337 338 338 339 339 338 338 338 336 336 336 335 336 335 330 328 328 327 325 324 325 325 325 326 326 326 326 327
349 349 349 351 355 356 353 351 353 350 351 348 349 346 341 341 340 343 340 340 333 337 338 337 335 336 336 335 336 334 332 329 329 327 327 327 326 326 326 326 326 326 327
349 349 349 350 351 356 355 353 351 352 351 352 348 348 344 340 340 341 340 339 338 335 333 338 336 335 336 335 336 335 334 332 331 330 330 329 328 327 327 327 327 327 327
350 350 352 352 352 354 357 354 352 353 353 352 353 348 345 341 339 340 342 340 339 337 332 337 337 336 335 335 335 336 335 334 333 333 332 331 331 328 327 326 327 327 326
355 353 354 353 353 353 355 356 353 352 355 355 354 354 350 341 338 339 340 341 340 338 335 335 336 337 336 335 335 335 335 334 333 333 333 333 333 331 329 328 329 328 326
349 356 353 354 354 355 355 356 354 353 355 359 356 355 355 353 348 336 338 339 341 339 337 335 335 337 336 336 335 335 334 334 334 333 334 333 334 333 332 331 331 329 327
352 349 357 355 353 355 356 355 355 354 353 353 356 356 355 355 354 351 338 337 338 340 338 337 335 335 338 336 336 335 335 334 334 333 333 334 335 337 336 334 332 330 328
356 352 350 355 358 356 356 356 354 354 354 354 354 355 355 356 356 354 352 345 337 339 341 338 337 336 338 337 335 336 335 335 334 334 334 336 337 337 335 335 333 332 330
356 357 352 351 355 357 360 358 356 355 354 356 355 355 356 356 355 355 354 353 349 345 340 342 339 338 338 337 336 336 335 335 335 336 336 337 338 337 337 335 333 332 332
354 355 357 357 355 356 357 359 360 358 356 356 356 355 354 355 355 356 358 357 356 351 345 340 340 338 337 338 338 337 337 337 336 337 337 337 338 338 337 337 335 333 333
358 355 354 357 358 358 359 359 360 359 358 358 357 357 357 356 355 355 356 358 358 357 354 347 340 339 338 338 337 338 339 339 338 338 338 338 337 337 337 337 335 334 331
362 361 358 356 358 358 357 359 361 361 360 359 359 359 358 358 357 356 356 356 357 357 356 354 345 342 340 338 338 337 337 338 338 338 338 338 337 336 335 337 335 334 328
361 361 362 360 358 358 360 360 360 362 361 361 361 360 360 359 359 358 357 357 356 356 355 357 356 355 349 342 340 337 338 338 338 338 339 338 336 336 336 336 334 333 326
362 362 362 362 362 362 360 361 362 361 360 360 360 361 361 360 360 360 359 358 357 356 354 352 352 353 352 349 343 340 339 338 338 337 339 336 335 335 333 334 334 332 326

GFSMA_925_thetae_039.txt.gz
Theta_e
346 347 343 342 345 345 346 345 345 343 339 338 340 343 343 345 342 336 338 342 342 345 346 344 341 340 343 343 340 341 343 341 337 337 336 338 337 339 338 334 334 334 336
348 348 348 347 346 346 344 345 345 339 339 339 339 342 345 345 342 336 337 342 345 345 343 345 345 343 341 339 341 342 342 339 340 341 341 340 339 338 337 337 337 335 335
349 347 348 347 347 346 345 343 345 342 342 340 342 342 344 343 342 334 336 337 340 342 344 344 344 344 345 344 339 333 331 335 335 337 340 339 338 341 339 338 338 337 339
350 348 347 347 347 347 345 341 346 343 342 341 339 340 342 342 340 334 336 337 338 340 341 345 342 341 342 343 344 342 341 341 339 339 339 340 337 336 337 337 338 338 338
350 350 350 348 348 347 345 345 347 344 341 343 340 337 341 340 340 337 338 338 337 338 341 341 340 339 338 341 344 341 342 341 340 340 339 338 338 338 338 337 337 338 338
352 349 350 349 349 349 345 346 344 336 341 341 339 337 338 339 341 340 340 340 339 337 338 340 340 339 338 339 339 339 340 340 339 340 339 338 338 338 338 338 338 338 338
353 348 349 348 348 348 347 348 342 339 337 338 337 335 337 336 339 341 341 341 341 338 337 338 338 338 337 338 339 339 339 340 341 340 339 338 338 339 339 339 339 338 338
351 352 348 349 349 349 349 348 343 338 338 337 335 333 330 335 337 339 340 342 341 340 339 340 340 338 338 336 333 331 333 334 335 336 339 339 337 337 338 338 338 336 332
346 350 350 350 349 350 348 348 347 342 337 340 338 336 331 332 333 338 339 341 341 341 340 340 341 339 338 334 327 323 323 324 326 329 333 334 333 334 334 329 321 317 317
346 347 348 348 350 349 350 350 347 347 336 339 341 342 338 335 330 332 335 340 340 340 340 339 339 338 337 334 329 322 320 320 318 318 317 317 316 317 316 316 316 318 320
347 346 348 350 350 350 352 351 348 349 346 338 338 342 342 340 336 333 331 334 337 339 338 339 339 337 336 335 333 325 323 322 322 321 321 321 321 321 321 322 323 324 325
347 348 348 350 350 350 352 351 349 347 347 343 338 336 340 340 339 338 333 334 335 336 335 336 337 337 334 335 334 331 325 325 324 324 325 325 325 326 326 326 327 327 327
348 348 349 351 351 351 351 351 351 349 348 349 347 341 338 338 338 339 338 337 336 336 337 336 335 337 336 334 335 334 329 327 326 324 324 325 325 326 325 325 326 326 326
350 347 348 349 350 351 354 352 352 352 349 349 349 346 342 341 336 338 338 338 334 335 337 338 336 336 335 335 335 335 334 330 329 327 325 324 325 325 325 325 326 326 326
351 347 347 349 349 350 354 355 351 351 350 350 348 348 346 342 341 341 342 339 337 333 331 338 338 337 336 335 335 335 335 334 332 331 328 327 327 327 327 326 326 326 327
350 348 347 349 349 349 351 355 354 351 351 351 350 350 348 347 342 340 340 341 339 336 331 336 337 337 336 335 335 335 335 335 334 332 332 330 330 329 328 327 327 327 327
350 350 348 348 350 349 350 352 355 354 351 350 351 351 351 348 345 344 340 340 341 339 334 337 335 336 337 337 336 335 335 335 335 334 332 332 332 331 331 330 328 327 328
351 350 350 350 350 352 351 351 353 355 353 351 351 353 352 353 352 347 342 340 339 340 339 336 337 336 335 337 336 335 334 334 334 334 333 332 333 333 332 332 331 331 329
352 351 351 354 353 353 353 353 353 354 355 353 351 351 353 354 353 352 352 349 338 338 338 339 338 337 336 335 336 336 335 335 334 334 334 333 333 333 333 333 334 334 331
353 353 352 349 352 354 353 353 353 354 355 354 353 352 351 353 354 352 352 352 351 346 337 338 339 338 337 336 336 336 336 335 335 334 334 334 334 333 333 335 337 336 334
352 351 353 353 350 352 355 355 353 353 355 355 354 353 353 352 351 351 352 352 352 352 349 342 337 338 338 337 337 336 336 336 335 335 334 334 334 333 335 335 336 336 334
353 353 353 353 353 351 350 353 355 356 355 355 355 354 353 353 353 352 351 352 353 352 348 344 344 340 338 337 337 337 336 335 334 334 334 334 334 335 335 336 336 336 335
352 353 353 353 352 352 352 351 353 356 357 357 357 356 355 354 354 354 354 354 353 354 355 352 346 346 343 341 338 336 336 336 335 335 336 336 336 337 336 336 336 336 336
354 353 353 353 353 353 352 352 352 355 356 356 357 356 357 356 356 356 356 355 355 355 354 355 352 352 349 348 342 340 338 337 336 336 336 336 336 337 336 337 336 336 336
358 357 356 355 353 354 354 354 355 357 357 358 357 358 357 357 357 357 357 356 356 356 356 357 356 356 354 352 348 341 337 335 336 337 337 337 337 337 337 337 337 335 337
359 359 359 360 359 357 356 356 356 356 356 356 357 358 358 358 358 359 358 357 356 357 356 355 355 356 357 356 354 345 342 339 337 340 339 336 337 336 335 335 337 336 336

GFSMA_925_thetae_042.txt.gz
Theta_e
345 343 340 341 344 344 344 345 343 341 338 340 341 342 344 344 341 336 340 343 343 344 341 343 344 343 342 342 343 342 340 340 337 336 335 336 334 337 337 334 333 333 335
345 346 346 345 346 344 344 344 340 339 338 339 340 342 343 345 341 336 338 341 343 343 344 342 340 342 342 340 338 339 341 340 340 341 341 339 338 338 338 338 338 338 337
347 346 346 346 346 346 344 344 342 339 338 340 341 343 344 344 341 334 336 338 341 343 342 342 343 341 342 340 337 335 335 336 336 336 339 338 337 338 340 337 338 337 338
348 346 346 346 345 346 343 342 345 342 340 340 340 339 342 343 341 333 336 337 338 340 342 342 341 341 342 343 344 343 339 339 337 337 336 340 339 338 336 337 337 337 337
348 348 346 346 346 345 343 344 344 346 342 341 338 339 340 341 340 335 338 337 337 338 340 341 340 339 338 340 341 341 341 341 340 340 339 338 337 336 337 337 337 337 337
348 350 346 346 347 345 343 344 343 336 342 342 341 336 339 340 340 337 339 339 338 337 338 339 339 339 338 338 340 339 339 339 339 338 339 338 338 337 338 337 337 338 338
350 351 348 347 345 347 345 345 342 337 339 337 337 336 336 336 339 340 340 340 340 338 337 338 338 337 337 340 340 339 339 340 341 341 340 339 338 338 339 339 338 338 337
349 352 349 348 346 347 347 347 343 337 337 337 334 332 336 336 336 339 340 341 341 340 339 339 339 337 337 336 336 333 333 333 334 337 338 338 337 336 337 337 336 331 322
348 349 352 348 348 348 348 348 344 339 337 339 335 334 336 338 332 336 337 339 341 340 340 339 340 337 336 334 329 325 324 325 325 329 333 334 333 333 331 326 318 316 316
347 347 347 351 350 349 349 348 346 345 336 339 340 340 335 334 337 338 335 339 340 339 339 339 339 338 337 335 332 325 322 321 320 319 319 318 318 317 316 316 317 319 321
346 347 346 347 349 350 349 350 349 345 345 337 339 341 341 336 334 332 337 333 334 335 337 337 338 338 336 335 334 331 324 322 321 320 320 320 320 319 320 321 322 324 325
346 346 347 347 350 350 349 351 351 347 346 344 337 338 340 340 338 337 335 335 333 335 336 336 336 336 337 334 334 334 330 325 324 323 324 324 324 324 325 325 326 326 327
347 346 346 347 349 350 350 350 351 349 346 345 345 342 337 338 338 338 337 336 336 336 335 336 336 335 335 336 335 334 334 330 327 325 323 324 325 325 325 326 326 326 328
344 347 347 347 348 349 350 351 351 350 351 348 347 347 346 339 339 337 337 336 339 335 337 337 338 337 336 335 335 335 334 334 331 328 326 323 323 324 325 325 325 325 326
344 347 348 347 347 348 350 351 353 351 350 351 348 347 347 347 343 339 337 340 338 341 339 337 337 337 337 336 335 334 335 335 334 332 330 328 326 325 326 326 326 326 326
344 347 349 349 347 348 349 350 352 354 352 350 350 350 349 347 347 344 341 340 340 337 339 335 336 336 337 337 336 335 335 335 334 335 333 331 330 328 328 328 327 327 326
346 346 349 349 347 347 348 350 351 352 354 352 350 351 350 350 349 347 346 343 339 339 336 338 338 338 336 336 336 336 336 335 335 334 334 334 332 331 330 329 330 329 328
347 345 349 350 349 348 348 349 349 350 352 354 352 350 349 350 350 351 351 348 344 341 338 338 339 339 339 338 336 335 336 336 335 335 334 334 334 333 331 331 331 331 331
348 348 348 349 349 349 349 349 351 350 351 352 353 353 351 349 351 351 351 351 350 348 341 338 337 337 337 338 338 336 335 335 335 335 335 334 334 334 333 332 332 332 332
348 349 349 349 349 349 351 351 352 353 352 352 352 353 353 352 350 350 351 351 351 351 351 348 341 338 336 336 337 337 337 336 335 335 335 335 335 334 334 333 333 333 333
350 350 350 350 350 349 348 351 353 352 352 353 353 353 353 353 352 351 351 350 349 351 349 347 344 342 341 338 337 337 336 337 336 336 335 335 335 335 334 334 334 333 333
351 352 352 352 350 350 350 348 348 353 354 353 353 351 351 352 353 352 352 351 352 351 349 348 347 347 346 344 343 341 338 337 339 338 335 335 335 335 334 335 334 334 334
351 352 352 352 351 350 348 349 349 348 351 353 353 354 354 355 354 353 353 353 353 353 354 353 351 349 348 348 347 343 340 339 340 340 337 336 335 334 334 335 334 335 335
351 352 352 352 352 350 350 347 348 351 350 350 350 352 353 354 353 354 354 355 354 355 355 355 354 354 353 353 351 349 347 344 341 340 338 337 338 336 336 335 335 335 335
352 351 351 352 352 352 351 351 350 351 352 352 353 352 353 353 353 354 354 355 355 355 356 357 357 357 357 357 355 351 347 340 338 340 340 337 338 338 336 336 336 337 335
354 354 353 353 352 353 352 352 352 352 351 352 353 354 355 355 356 356 356 356 356 356 357 356 357 357 358 358 358 356 352 347 346 344 344 340 340 338 338 337 336 336 336

GFSMA_925_thetae_045.txt.gz
Theta_e
343 342 343 343 345 344 343 344 344 342 341 341 345 347 347 346 343 343 346 342 343 344 340 342 344 342 342 342 343 340 340 338 336 337 337 337 335 335 335 336 337 336 336
344 345 344 344 346 344 343 344 339 340 343 346 347 347 348 346 343 343 343 346 342 342 345 340 339 340 342 339 338 340 342 340 340 340 339 336 337 338 339 337 338 338 337
346 345 346 345 346 343 343 342 340 339 344 345 347 347 347 346 344 342 343 344 345 343 342 343 344 340 340 339 335 334 334 334 335 333 334 338 337 335 335 336 337 337 336
346 346 346 349 346 345 342 345 346 344 339 343 345 345 346 345 343 342 343 343 344 344 344 342 341 342 341 342 344 343 340 339 338 337 337 338 339 337 337 337 337 337 337
347 347 346 346 345 346 348 350 341 347 343 343 342 343 345 345 343 341 344 344 344 344 345 342 340 339 338 339 341 342 341 342 340 340 339 339 338 338 337 338 337 337 338
347 348 346 345 346 344 347 347 339 340 346 346 339 337 342 343 344 342 343 343 343 343 344 346 345 344 338 339 343 341 340 340 339 339 339 338 338 338 338 338 338 338 338
347 349 347 346 346 348 345 344 343 341 342 341 341 340 339 339 343 343 343 343 344 343 344 345 344 343 342 338 339 339 339 339 341 340 340 339 338 338 339 338 338 337 335
347 350 348 346 346 347 345 346 344 342 341 339 340 340 341 340 340 342 343 344 344 344 343 344 344 343 342 341 338 330 331 333 334 335 336 338 336 336 337 337 336 327 319
346 349 350 348 347 346 345 345 345 339 341 342 336 340 340 340 341 340 341 342 345 344 344 343 343 343 342 342 337 332 323 324 325 327 330 332 332 332 329 324 318 316 318
346 348 349 348 347 349 347 349 345 343 339 342 342 341 335 340 340 340 339 341 341 343 343 343 342 342 341 341 338 330 323 321 319 319 319 317 317 317 317 316 317 320 322
347 347 347 346 346 349 347 349 348 346 342 341 343 345 345 342 337 339 341 340 339 339 340 342 341 342 343 341 341 338 329 325 322 321 321 320 320 319 319 321 322 324 325
349 347 347 347 347 350 350 351 349 347 348 345 341 342 344 344 343 342 341 343 342 341 340 341 340 340 342 343 339 335 334 330 326 323 323 323 323 323 324 324 325 326 326
350 349 346 347 349 348 349 349 351 351 349 350 346 342 341 341 342 343 342 343 342 343 341 341 340 339 340 341 342 335 335 334 331 328 323 323 324 325 325 326 326 327 327
347 349 344 345 346 347 349 349 352 353 353 352 351 347 349 346 341 341 341 341 343 344 343 344 342 340 339 338 339 335 336 334 334 333 329 327 323 324 325 325 325 326 326
347 349 343 346 346 347 348 350 353 354 352 352 354 354 351 350 348 345 342 341 343 346 344 343 342 338 337 337 337 336 335 335 334 335 334 331 330 327 324 324 325 325 326
343 347 345 347 349 348 348 350 354 355 356 355 353 354 353 350 350 348 347 344 343 343 345 342 342 342 339 337 336 336 336 335 335 335 334 335 333 331 330 328 327 327 326
344 342 344 346 349 350 349 351 352 354 356 356 356 355 354 354 352 351 349 347 346 344 343 341 343 341 339 339 338 337 336 335 337 336 335 334 334 334 333 331 330 329 329
344 345 345 345 348 350 351 352 354 354 355 356 356 356 355 354 354 354 353 352 349 348 345 345 342 342 342 342 338 338 338 339 338 337 335 335 335 334 334 334 332 331 330
345 346 348 346 350 349 351 350 349 354 355 355 355 357 357 356 356 353 354 353 352 352 350 347 347 345 343 341 341 340 338 338 338 337 336 335 334 335 334 334 334 333 332
346 347 348 349 351 351 352 352 353 354 355 356 356 356 356 357 357 357 356 356 355 354 352 352 350 348 348 347 345 344 343 343 342 341 340 338 337 336 335 335 334 334 333
348 347 349 350 352 352 351 353 354 355 356 356 357 357 357 356 355 354 356 356 356 355 354 352 351 350 349 349 348 347 347 347 346 345 344 343 342 340 338 337 335 334 334
351 352 353 353 353 352 350 349 348 354 356 357 357 357 356 353 351 351 350 351 354 356 356 355 354 354 356 355 354 353 352 351 353 351 348 345 343 344 343 342 340 340 335
352 353 353 353 354 353 350 347 347 350 352 354 356 357 357 356 355 354 356 354 353 353 353 353 356 357 358 357 357 357 356 356 355 354 351 350 349 347 345 345 344 341 342
355 354 354 354 354 354 351 350 349 348 351 353 353 353 354 354 354 355 355 355 356 356 356 353 352 353 355 357 358 358 357 355 352 352 351 348 349 349 348 347 344 341 339
354 355 355 356 355 354 352 350 350 351 352 353 353 354 354 354 354 352 353 353 354 356 356 356 356 357 356 356 355 353 350 351 351 351 353 349 349 349 349 348 347 344 340
355 354 355 355 356 356 354 351 351 351 352 353 354 355 354 353 354 353 354 355 357 358 359 361 362 360 358 358 358 357 356 348 349 351 354 353 351 348 347 348 347 345 343

GFSMA_925_thetae_048.txt.gz
Theta_e
349 349 349 348 348 347 346 346 345 346 347 346 346 346 344 342 340 343 347 342 344 341 345 344 345 344 341 343 344 340 341 337 336 339 340 339 338 338 338 337 337 339 336
350 348 348 350 350 349 347 346 345 343 341 343 347 345 345 344 343 342 344 345 342 343 342 341 340 340 343 339 338 341 342 340 340 339 339 337 338 339 340 339 339 338 337
348 349 349 349 350 349 349 347 345 342 341 340 345 346 344 345 344 344 343 344 345 342 341 345 344 340 340 340 338 336 335 334 335 334 334 337 339 339 338 337 337 337 338
349 350 349 349 351 348 347 343 341 342 340 338 342 343 342 343 344 344 343 344 343 345 345 341 340 342 341 344 344 344 342 340 340 339 339 340 340 338 337 337 338 338 338
354 353 351 350 349 349 349 344 343 341 341 337 338 340 340 341 342 341 344 343 342 343 344 342 339 339 338 344 342 344 343 342 342 339 339 339 339 338 338 338 338 338 338
354 354 351 350 349 347 348 348 345 344 343 339 337 337 339 340 341 341 341 341 340 341 341 345 346 345 336 337 341 342 342 342 342 342 341 339 338 338 338 338 338 338 338
354 356 351 349 350 347 348 349 345 347 342 342 339 336 337 340 343 342 341 340 341 340 341 341 342 343 345 337 337 335 337 337 336 336 338 338 338 339 339 338 338 337 330
355 354 352 350 352 350 347 347 349 343 342 341 339 338 340 340 340 341 341 341 341 341 341 342 341 342 340 338 336 325 325 328 327 327 331 334 335 335 337 336 332 320 317
355 355 351 352 349 350 349 349 349 346 342 343 344 342 341 347 340 340 342 341 342 341 341 342 342 341 342 341 339 337 325 321 322 323 326 330 330 330 331 322 317 317 319
354 355 352 352 351 351 351 350 350 345 346 342 342 341 342 343 343 345 340 341 342 342 342 342 341 342 342 341 341 335 327 322 320 319 319 320 319 319 318 317 318 321 323
355 354 353 352 352 350 352 353 353 350 342 343 342 342 343 343 343 342 343 342 341 340 340 342 341 341 342 342 341 342 335 327 323 321 321 320 319 318 318 319 321 324 325
353 355 356 356 352 351 354 353 353 354 350 346 343 344 344 345 344 344 343 344 343 342 341 341 341 341 341 342 342 339 337 334 330 326 322 322 322 322 322 323 324 325 326
348 351 356 357 355 355 355 354 353 355 354 350 351 342 342 342 343 344 344 343 344 343 343 342 342 342 341 341 341 341 338 334 334 332 329 323 323 324 324 325 326 326 326
346 347 355 355 356 356 356 356 355 354 354 354 354 351 346 345 345 342 342 343 344 344 344 346 343 342 343 343 342 342 340 339 335 334 334 331 328 323 324 325 325 325 326
347 348 350 353 353 354 356 356 353 356 355 355 355 355 353 347 348 346 345 344 343 347 345 346 341 343 341 342 343 344 345 344 341 336 334 334 333 331 328 324 324 324 325
351 348 351 351 351 354 355 356 354 355 356 356 353 354 355 348 349 349 348 346 345 345 346 342 343 343 345 344 342 342 343 343 342 338 336 335 334 334 333 331 329 326 325
352 353 351 350 352 355 355 356 355 354 357 357 356 355 356 356 352 349 348 348 347 346 345 342 341 341 347 348 346 346 345 345 342 341 338 336 335 335 334 334 332 331 330
354 354 353 352 352 352 355 357 356 353 356 356 356 356 356 354 356 355 352 351 348 347 346 349 346 344 343 344 345 347 347 344 341 340 340 339 337 335 335 335 334 334 333
355 354 354 354 353 352 355 356 356 356 355 356 357 356 357 357 357 355 354 352 352 354 354 353 352 348 346 347 348 348 349 347 347 345 343 341 340 338 336 335 335 334 334
355 355 354 354 354 353 352 354 355 356 356 356 357 357 357 358 359 360 359 359 358 357 354 353 351 348 346 345 347 349 350 350 349 349 349 348 346 343 342 341 339 335 335
356 356 355 355 355 353 351 352 353 353 355 356 356 358 358 358 359 359 359 358 358 358 354 352 351 350 350 351 352 352 354 353 353 353 353 353 352 351 349 346 345 344 341
356 357 355 355 356 354 349 349 350 351 353 355 357 357 358 358 358 357 356 353 353 358 360 358 355 353 357 357 355 355 354 354 357 357 359 358 357 356 355 354 352 349 346
357 357 357 356 356 356 352 350 349 349 350 353 355 356 355 352 354 356 357 357 356 354 353 354 357 358 358 357 358 360 359 361 362 361 360 359 358 357 356 355 354 353 350
358 358 357 357 357 357 356 354 351 351 351 352 352 353 354 354 353 355 356 356 356 356 357 357 356 356 356 356 359 362 360 360 360 358 357 357 357 357 356 356 355 354 352
359 358 358 358 359 358 356 354 353 353 353 354 354 354 355 355 355 355 355 354 354 354 352 352 353 355 356 358 358 357 355 357 357 359 359 358 358 359 357 356 353 350 350
359 359 359 359 359 360 359 356 354 354 353 353 354 356 355 354 355 355 355 354 355 355 357 360 363 363 363 362 362 362 357 355 356 356 359 357 357 355 353 349 346 345 344

GFSMA_925_thetae_051.txt.gz
Theta_e
348 348 347 347 347 346 345 346 343 345 341 342 345 344 341 341 345 346 346 339 336 345 348 346 346 344 343 345 345 342 342 338 337 342 342 341 341 341 342 341 342 341 338
352 349 349 350 349 346 346 345 347 343 342 341 342 343 343 342 343 346 347 343 340 338 338 343 344 345 342 340 339 343 344 341 340 338 338 339 338 337 336 338 339 339 338
352 352 350 348 350 347 347 344 342 342 340 344 341 343 341 344 342 344 345 346 344 340 340 340 339 338 339 339 338 336 334 333 332 333 334 335 339 339 338 337 338 338 338
352 353 350 346 347 346 347 343 342 339 342 341 344 343 342 342 342 343 342 346 347 347 342 338 339 341 341 345 346 345 343 341 341 340 339 339 341 340 339 338 338 338 338
353 350 350 351 350 348 346 342 341 335 341 340 339 341 341 339 342 342 342 342 340 346 348 341 338 337 337 340 343 344 343 342 342 339 339 339 339 339 339 338 338 338 338
353 354 352 351 350 345 348 348 345 343 341 339 337 339 341 340 340 341 340 340 339 341 346 342 345 345 335 334 337 340 340 341 343 341 341 340 339 338 338 338 338 338 336
353 355 351 352 351 347 349 347 344 344 341 339 339 336 337 338 341 339 339 339 339 340 339 341 345 347 343 339 338 332 334 336 339 338 336 337 338 338 337 337 337 333 324
354 350 352 352 351 351 351 349 347 342 340 339 342 338 344 342 341 342 339 340 340 340 341 342 340 341 343 343 344 326 322 324 327 332 331 334 335 335 335 336 332 319 317
355 354 352 353 352 354 349 350 350 347 343 339 343 343 350 348 343 340 342 341 342 341 341 342 342 341 341 343 340 340 336 321 320 321 324 327 329 330 331 327 319 317 319
355 354 354 354 352 351 353 350 351 347 346 342 340 341 342 343 352 348 340 341 341 341 342 342 342 342 343 343 342 337 332 327 321 320 319 318 319 319 319 317 317 320 322
355 355 354 354 355 352 353 354 354 350 343 347 342 341 343 342 342 345 350 342 342 340 341 343 341 341 344 342 342 344 340 333 329 321 321 321 320 319 318 318 320 322 324
353 354 355 356 355 353 355 354 354 353 351 346 346 344 344 344 345 343 344 345 343 343 342 341 342 341 342 343 344 341 340 336 333 331 323 321 322 321 321 322 322 323 325
347 351 355 356 355 355 355 356 356 354 353 350 350 345 343 343 343 343 343 343 343 343 344 343 343 343 343 343 343 343 342 338 334 334 332 330 323 323 323 324 324 325 325
345 354 357 355 357 357 355 356 355 354 353 353 353 351 348 344 345 344 343 344 346 345 346 344 343 344 344 344 344 343 343 342 340 336 334 334 332 330 325 324 324 325 325
346 347 353 355 354 354 356 355 353 355 356 357 354 354 353 348 347 346 345 345 345 349 347 351 342 344 342 342 343 345 344 345 345 344 341 336 334 334 332 331 326 324 324
348 350 349 351 354 353 354 355 352 355 355 354 352 354 354 351 348 349 348 346 345 345 347 343 344 343 344 344 344 345 345 344 344 344 343 341 339 336 334 334 332 331 328
353 352 353 352 352 352 354 356 354 354 355 354 356 354 355 355 353 348 348 348 347 347 346 345 343 343 346 350 349 349 348 347 347 345 343 342 341 339 337 335 334 333 332
355 355 356 354 352 352 355 356 356 351 356 356 356 355 355 355 357 356 355 352 349 349 349 351 348 349 350 349 347 349 350 350 348 347 345 343 343 342 341 340 339 336 335
357 356 357 357 354 353 354 357 357 356 354 354 355 356 356 356 357 356 356 352 351 354 355 356 355 353 350 350 349 349 351 353 353 351 349 348 346 345 344 343 343 343 340
358 358 358 358 356 355 354 354 356 357 356 355 355 356 356 357 358 360 359 359 358 357 354 354 353 353 350 347 348 351 352 352 353 354 354 353 353 352 352 351 349 348 347
358 359 359 358 357 356 354 353 355 357 357 357 356 356 356 357 357 359 359 359 358 359 357 354 352 350 349 350 354 354 354 356 353 351 353 358 360 360 359 357 356 355 354
360 360 360 360 358 356 352 351 352 354 355 357 358 358 357 357 357 357 358 358 357 360 363 359 355 354 355 356 355 355 355 355 360 358 362 362 360 361 359 358 358 358 356
361 362 361 361 360 358 353 351 349 350 353 355 355 358 358 353 355 358 360 359 357 355 355 354 357 358 357 358 359 360 357 361 365 363 361 361 360 359 359 358 357 357 357
361 362 363 362 361 361 357 354 351 349 350 352 355 356 357 356 355 356 358 357 359 361 360 358 357 357 359 358 359 360 361 362 361 361 360 361 360 361 361 359 355 352 349
363 363 363 363 363 362 358 355 355 352 352 354 355 354 355 357 358 357 354 356 357 357 352 351 351 351 352 352 353 355 358 360 360 360 361 361 361 359 356 351 349 347 346
364 362 363 363 364 364 362 359 356 356 354 355 356 357 356 355 356 357 358 358 360 360 357 356 357 361 365 364 363 362 360 359 360 359 360 359 358 356 351 347 345 343 339

GFSMA_925_thetae_054.txt.gz
Theta_e
349 348 347 344 348 347 345 344 346 345 347 346 343 343 344 346 347 344 334 333 338 342 344 348 341 342 345 346 343 344 342 338 339 343 341 339 338 339 340 342 342 341 340
349 351 350 347 347 342 344 342 344 343 345 345 343 343 343 344 346 346 338 338 333 332 335 341 342 342 346 344 341 345 345 339 337 335 334 337 340 340 341 342 341 341 340
353 353 349 349 346 348 348 344 342 340 343 342 342 343 343 343 344 347 346 342 339 338 336 335 334 337 339 337 336 336 333 331 330 333 336 337 339 340 339 338 339 339 338
353 352 349 350 349 344 342 341 340 341 343 341 341 342 344 341 342 345 345 347 347 345 339 340 339 339 340 342 344 343 342 341 340 340 339 340 342 340 339 338 338 338 338
352 348 351 349 343 349 347 344 342 339 343 341 340 343 342 341 343 342 343 345 346 346 348 339 338 336 336 338 339 340 344 343 342 341 339 339 339 339 339 338 338 338 337
354 350 351 351 351 346 340 349 345 339 342 339 340 342 342 341 342 341 340 341 340 342 348 342 344 342 336 335 336 335 337 340 341 340 342 342 342 339 338 338 338 337 332
353 351 353 349 348 350 347 347 341 338 344 337 336 337 337 338 341 341 341 340 339 343 347 343 342 348 344 339 339 325 325 329 334 333 330 332 336 337 336 336 336 331 320
353 352 351 351 349 351 351 350 350 346 339 338 343 345 346 343 342 341 341 339 341 341 341 342 341 342 345 347 342 329 324 321 322 325 324 328 331 332 331 332 329 319 317
353 354 353 352 350 351 350 349 349 348 346 340 341 347 346 348 345 340 340 343 339 341 342 341 342 341 339 345 342 342 336 324 320 319 320 322 324 323 324 322 319 317 319
353 356 353 355 351 352 349 350 349 349 345 346 339 344 344 342 348 350 343 342 341 341 341 342 343 343 343 342 344 342 334 331 324 320 319 318 317 318 318 318 318 319 321
355 355 354 355 352 353 351 351 351 348 349 347 341 341 340 342 340 349 349 345 342 343 343 341 342 343 343 343 343 343 343 340 332 327 320 320 320 319 319 319 320 321 323
354 356 355 354 355 353 352 353 353 350 348 349 346 347 343 345 347 348 351 349 346 341 341 341 342 342 343 343 344 343 342 338 333 332 330 324 322 321 321 321 322 322 323
352 353 355 354 354 354 353 354 352 355 349 353 348 348 347 344 344 343 344 349 347 343 344 343 343 343 343 342 343 344 343 342 340 336 333 332 330 326 323 323 323 323 324
351 350 354 354 354 354 355 353 353 353 354 349 353 348 348 351 344 345 343 345 352 350 346 344 344 344 344 344 344 344 343 342 343 342 341 338 334 333 331 328 324 324 324
348 353 350 358 354 356 352 355 353 350 356 353 353 352 348 351 350 346 345 344 347 354 354 346 343 344 343 342 342 344 343 344 345 345 345 345 344 341 337 334 332 330 326
347 355 354 354 355 355 357 355 355 352 353 356 354 356 353 350 352 350 349 348 346 345 354 346 346 345 346 345 345 345 344 342 344 345 345 344 343 342 341 340 338 335 333
354 348 355 356 355 354 356 355 352 355 354 352 355 356 356 353 353 355 351 348 348 348 351 348 348 347 347 347 347 346 346 346 348 348 348 347 346 344 343 342 341 340 339
350 357 350 355 352 355 355 355 357 354 356 355 353 352 357 357 356 351 353 355 355 354 353 354 351 348 349 353 352 351 350 350 349 350 350 351 349 347 345 343 344 344 342
356 353 358 353 357 354 354 355 358 354 354 358 357 356 354 355 356 360 358 356 353 353 354 353 356 358 355 352 351 351 351 350 351 351 354 354 353 352 351 349 348 347 347
356 357 356 359 358 356 354 356 359 359 357 355 357 355 357 358 358 358 357 356 356 357 355 356 355 356 356 353 352 356 355 353 354 356 355 350 353 361 361 360 358 356 356
358 359 359 360 360 359 357 355 356 359 359 358 357 357 357 358 358 358 361 361 360 360 361 361 361 358 355 355 356 356 359 358 355 352 353 362 363 360 361 360 359 358 358
358 359 361 361 362 360 358 355 355 356 359 359 359 358 359 359 356 355 357 358 359 359 359 361 363 361 358 357 357 355 356 358 358 359 364 361 362 361 361 359 358 359 359
358 360 361 362 362 362 358 354 353 354 356 358 360 360 360 359 357 357 356 356 356 356 356 356 357 357 356 354 354 359 360 360 362 363 361 362 362 361 360 362 360 354 350
359 360 362 362 363 363 361 355 353 352 353 356 356 356 357 358 355 357 359 361 360 359 357 357 357 357 357 356 356 356 359 360 358 360 360 361 361 362 361 356 351 349 345
361 361 362 363 363 364 363 359 354 353 351 351 351 351 356 360 358 353 350 351 352 354 358 358 357 353 353 353 354 359 356 354 361 361 360 360 360 359 356 353 349 342 338
362 362 363 363 364 364 363 362 358 355 354 354 354 354 354 351 350 355 359 359 360 359 359 359 358 357 359 363 364 365 365 358 360 361 360 358 358 357 353 348 343 337 336

GFSMA_925_thetae_057.txt.gz
Theta_e
347 348 347 346 346 348 345 345 344 344 345 346 345 344 344 342 336 334 336 337 342 341 345 341 342 340 344 344 343 341 340 339 340 342 336 337 336 335 337 338 340 340 339
349 349 346 348 344 344 345 346 344 343 345 344 343 346 345 345 342 336 334 335 338 340 343 340 334 339 345 343 341 344 343 337 337 335 333 334 337 338 339 339 340 340 340
349 350 348 345 346 348 346 343 346 343 345 342 343 343 346 344 345 345 340 338 336 335 336 336 334 334 331 332 333 332 332 332 333 336 337 338 338 342 340 338 338 339 338
350 349 348 346 346 346 343 343 341 344 343 341 343 344 344 343 345 345 345 345 341 340 338 338 336 336 337 338 340 340 339 340 339 340 339 339 339 339 338 338 338 338 338
347 348 349 349 347 345 343 342 341 343 342 342 342 343 342 342 344 344 344 345 346 345 344 338 339 337 337 339 340 339 340 340 339 339 338 338 338 338 338 338 338 337 336
349 346 348 348 348 346 342 346 344 339 343 339 340 342 342 341 343 342 342 344 344 344 345 341 342 341 336 335 335 334 334 335 337 337 335 335 336 337 337 337 337 336 330
351 347 347 347 347 345 345 344 342 341 343 340 340 341 341 342 341 342 340 342 341 341 345 343 342 346 345 340 336 327 323 325 328 328 326 327 330 333 333 333 334 332 322
350 348 348 349 350 346 350 347 349 344 345 339 342 345 340 338 339 341 341 340 340 341 345 343 341 341 344 345 342 333 331 320 320 321 321 323 327 328 329 329 328 323 318
352 352 351 351 347 349 349 349 347 347 343 341 341 345 339 342 344 341 340 341 339 340 342 341 341 341 340 342 343 341 337 329 320 319 318 318 320 321 323 323 322 319 318
349 354 352 350 348 350 350 345 346 348 344 343 340 342 343 343 342 341 342 342 340 342 342 341 342 342 341 339 342 343 340 335 330 323 319 319 318 317 318 319 319 319 319
352 353 352 354 350 351 349 350 351 351 348 349 341 343 340 340 342 346 342 343 341 341 341 340 342 343 342 342 342 342 343 343 340 331 328 322 321 320 320 319 320 320 321
353 355 353 350 350 351 351 351 354 349 346 347 347 344 342 344 347 346 344 345 343 342 342 341 341 341 341 343 343 343 341 342 340 335 332 331 329 324 323 322 322 322 322
354 355 355 353 353 350 352 348 353 352 349 348 347 347 348 348 346 345 345 346 346 344 343 341 341 342 342 342 342 342 343 343 342 342 341 339 336 333 332 329 326 323 323
352 351 354 353 350 351 352 351 352 349 350 348 349 349 345 347 346 348 344 343 342 346 349 343 343 342 343 343 343 343 344 343 342 342 342 343 343 343 341 337 334 331 328
352 349 353 353 351 352 350 353 351 349 355 353 348 346 343 347 349 350 345 344 345 343 342 347 346 345 344 344 344 344 343 343 343 343 344 344 344 344 343 343 342 339 335
346 350 353 354 353 352 354 354 354 353 351 354 352 354 351 341 343 353 350 348 348 346 343 346 345 349 347 345 346 345 345 345 346 346 346 348 347 347 347 345 344 343 342
349 348 354 353 355 354 354 355 354 353 353 351 355 353 354 355 349 351 354 352 349 348 349 348 348 349 347 346 344 348 350 350 349 349 348 349 349 350 349 348 346 345 344
347 356 354 352 353 354 354 355 355 354 354 354 354 353 355 357 354 353 351 351 353 354 354 351 349 348 355 356 354 353 352 352 351 350 350 351 351 352 352 352 353 350 348
342 346 355 356 355 354 352 352 354 352 353 353 355 354 352 351 357 357 355 357 357 356 359 358 357 357 354 351 354 355 355 354 355 355 356 355 350 358 361 360 360 359 358
345 347 350 355 352 352 353 353 354 353 353 351 355 358 356 355 356 354 355 356 355 355 354 354 354 356 357 357 357 355 354 353 353 350 347 353 361 362 358 359 360 358 358
347 355 355 355 357 353 354 353 353 354 356 354 351 351 357 357 354 356 357 357 358 359 358 359 360 361 361 359 357 353 353 350 354 353 358 360 359 359 361 359 359 360 359
358 351 353 356 357 358 355 355 353 354 358 358 357 356 352 356 357 356 356 357 358 359 361 362 360 359 357 354 351 352 353 357 357 358 359 358 359 359 359 360 361 353 347
349 359 357 357 357 356 358 357 356 353 354 356 358 358 357 355 355 357 357 356 356 355 356 356 356 355 355 353 354 355 355 356 357 357 359 358 359 359 360 361 353 349 339
353 352 357 359 359 358 358 359 358 356 355 353 353 358 358 357 357 358 357 357 356 355 355 355 356 357 357 357 356 354 355 358 360 360 355 360 360 359 358 352 350 339 336
357 355 357 359 360 360 359 359 360 357 355 354 353 353 353 355 355 356 355 355 358 360 361 361 361 358 354 356 355 356 358 359 354 357 361 361 360 358 355 350 344 339 335
356 358 357 358 360 360 361 360 360 359 355 352 353 353 354 355 355 357 359 357 356 354 351 351 354 355 357 359 359 360 362 358 359 359 359 359 358 352 347 348 343 336 334

GFSMA_925_thetae_060.txt.gz
Theta_e
346 346 343 345 345 346 344 343 343 344 343 343 344 343 343 335 336 337 338 339 338 340 346 344 345 340 339 341 341 340 338 337 337 339 334 338 339 338 339 340 339 339 339
346 346 346 346 344 344 344 345 342 342 344 344 343 343 342 339 335 334 334 337 337 342 344 338 338 339 344 342 339 342 342 336 333 332 333 335 336 340 338 338 340 340 339
347 346 345 347 344 345 343 345 343 342 344 344 344 344 344 343 337 337 336 335 337 335 337 336 332 334 337 333 332 333 332 332 333 336 337 338 338 341 340 339 338 339 338
347 348 347 344 346 347 346 343 345 343 342 342 343 344 344 344 345 344 341 340 339 338 337 336 334 335 335 335 337 338 339 339 339 340 340 339 339 339 340 339 338 337 337
349 348 346 344 344 342 341 341 343 343 342 341 343 344 344 343 345 344 344 343 343 342 340 338 337 336 337 338 340 341 340 340 339 339 339 338 338 339 338 337 337 337 335
346 348 348 344 346 346 342 339 341 342 343 341 341 343 342 343 345 342 343 343 343 344 344 340 340 339 337 336 336 335 334 334 334 336 336 333 332 334 336 336 335 335 330
345 347 345 347 345 345 345 344 343 342 344 339 340 341 341 342 343 342 342 343 341 343 344 343 341 343 343 341 338 330 325 324 323 324 325 325 327 331 332 332 333 332 325
349 346 346 345 346 342 346 345 345 346 341 340 340 342 334 338 341 341 342 341 342 340 343 344 342 342 343 342 344 338 333 324 320 320 319 320 322 324 325 327 329 327 321
349 349 345 345 349 347 349 346 344 343 339 341 340 340 334 337 341 341 341 341 341 340 341 343 341 341 338 339 342 342 341 331 327 320 319 318 318 319 319 320 322 323 320
351 350 350 351 347 349 348 347 348 346 340 341 341 341 342 343 337 338 341 341 339 341 341 342 341 341 341 339 339 342 342 341 338 332 326 321 320 319 318 318 319 320 320
351 352 351 350 348 349 347 343 348 348 346 346 340 342 341 340 342 342 339 342 341 341 342 342 341 342 342 342 342 342 341 341 342 340 334 330 328 325 322 321 321 320 320
352 351 352 349 348 350 349 348 350 348 346 348 345 345 343 343 346 345 340 341 340 341 341 341 341 341 342 341 341 342 342 342 342 342 341 339 336 334 331 329 326 323 322
352 353 353 350 346 348 348 350 353 350 346 346 347 347 346 348 347 346 343 344 343 344 341 341 341 341 341 342 342 342 342 342 343 343 342 341 341 340 340 339 336 332 329
350 351 355 353 350 347 351 349 348 350 346 346 348 347 346 347 349 350 345 342 339 342 345 345 343 341 341 342 342 343 342 343 343 343 342 342 343 343 343 342 342 342 340
350 352 353 354 351 350 349 349 350 349 349 346 344 344 345 344 346 348 352 344 344 340 338 346 345 346 346 342 343 343 343 343 344 345 346 346 345 345 346 345 345 346 345
351 351 352 354 352 350 350 350 350 350 349 354 350 347 347 343 342 344 353 350 348 345 340 345 345 347 349 347 347 346 345 346 347 350 350 350 349 348 349 349 350 349 348
353 353 352 350 352 350 352 351 351 351 351 351 351 352 351 353 353 350 351 352 354 353 347 348 347 349 349 349 355 354 353 353 353 353 353 354 353 353 351 352 354 358 354
349 349 346 351 353 351 350 353 352 353 352 353 351 352 353 354 355 354 353 352 350 351 353 352 353 354 354 353 351 353 356 353 354 356 356 355 350 351 360 359 359 360 358
345 350 354 351 353 352 352 352 353 353 354 353 353 354 353 352 353 356 356 356 354 354 359 359 358 355 353 350 356 358 355 350 347 347 349 355 360 360 358 359 359 360 358
342 343 348 354 353 352 353 352 352 353 352 352 352 352 355 355 353 351 352 352 353 354 354 354 354 354 356 357 360 357 358 352 349 350 355 358 356 357 358 359 359 359 351
344 341 341 348 354 353 352 351 351 350 351 351 350 352 352 356 357 355 356 355 355 356 356 357 358 359 360 361 360 357 353 352 353 351 355 356 356 358 358 360 359 353 345
344 344 341 341 350 354 353 353 352 351 350 351 351 352 353 351 351 355 356 356 355 357 357 358 358 360 360 357 353 353 353 354 354 353 355 356 357 358 358 358 356 342 339
342 346 349 347 354 354 355 353 352 352 352 351 350 354 355 354 354 353 353 357 358 357 357 357 357 357 356 354 354 355 356 355 355 355 358 359 357 359 357 357 343 337 335
346 342 348 351 350 355 355 355 354 353 353 353 351 352 354 354 354 355 355 354 353 355 356 356 355 355 354 355 357 358 356 356 356 358 359 354 360 359 356 341 338 337 334
352 347 347 353 354 353 352 352 353 355 356 356 354 352 351 351 350 354 357 357 356 355 350 353 357 358 360 358 354 357 356 356 357 358 360 360 359 358 355 341 340 337 334
353 353 350 349 354 357 357 356 354 355 357 356 356 355 354 354 353 351 353 354 356 355 354 353 353 352 352 355 356 359 358 357 356 356 359 358 358 354 346 348 342 336 333

GFSMA_925_thetae_066.txt.gz
Theta_e
341 341 343 342 343 341 339 338 342 343 343 343 343 343 344 337 337 339 338 338 339 342 344 343 343 338 337 340 338 340 338 336 334 333 333 335 336 339 342 340 338 339 337
343 343 342 344 344 344 343 342 342 343 343 343 343 343 340 335 336 337 337 338 338 340 344 340 342 338 343 342 338 340 341 336 332 333 336 337 338 339 341 340 339 338 335
345 344 345 344 343 343 344 344 343 342 343 343 343 342 341 337 337 337 336 338 338 339 342 341 337 336 340 342 342 340 337 337 338 339 339 341 341 339 339 340 339 336 334
346 345 344 345 343 343 343 344 342 343 343 343 343 343 342 341 338 339 339 338 338 338 338 342 342 337 338 342 343 343 343 342 341 341 342 341 339 337 338 338 336 335 332
346 345 344 344 343 344 342 341 342 343 342 342 344 343 343 344 343 342 342 341 340 340 340 339 339 338 337 340 342 342 341 339 336 337 339 336 333 332 336 337 334 333 329
345 346 345 343 345 343 341 340 342 342 342 342 341 343 344 344 343 344 343 343 342 342 342 341 340 340 339 339 339 338 335 332 329 328 328 328 327 326 329 331 331 330 327
346 346 346 344 343 343 342 340 341 342 342 341 341 340 341 342 341 341 342 343 342 343 342 342 343 341 340 341 341 341 340 335 329 323 323 323 323 323 324 325 326 327 325
345 346 347 345 345 343 343 342 340 344 342 340 338 338 337 336 339 341 341 341 342 341 342 341 341 342 341 338 340 341 341 341 338 333 326 322 322 321 320 321 322 323 324
347 345 346 345 343 344 345 344 341 343 340 339 339 338 338 339 337 340 340 340 340 340 341 341 340 341 342 341 339 338 340 341 341 341 338 333 328 325 323 321 321 321 321
349 348 346 346 345 345 343 342 343 345 338 339 340 342 341 340 341 343 339 339 340 340 338 340 340 341 341 341 341 341 341 341 341 342 342 341 339 337 333 331 329 326 323
350 347 345 343 346 346 346 345 345 346 340 339 341 340 340 339 341 340 344 340 340 340 340 339 340 340 340 340 341 341 341 341 341 341 342 342 342 342 341 340 340 337 336
350 350 349 347 346 347 347 345 345 346 345 343 344 341 340 342 342 342 342 341 339 340 341 340 340 340 340 340 341 341 341 342 342 342 342 342 342 342 343 342 343 342 342
349 349 350 350 347 348 347 348 343 346 347 345 346 344 343 347 346 345 340 341 342 343 343 341 344 344 344 343 342 341 341 342 343 345 348 349 347 346 345 344 344 342 342
347 348 349 349 349 348 348 348 346 347 347 345 345 347 346 346 347 348 350 341 344 340 341 345 344 346 346 346 346 348 352 351 353 353 352 351 353 354 354 353 352 350 351
347 348 349 348 349 350 348 348 348 346 346 346 345 346 346 346 346 345 350 346 341 347 345 342 343 345 346 348 350 352 350 354 353 349 345 346 346 347 349 350 351 358 358
348 347 348 349 348 350 350 349 348 350 347 347 348 346 345 344 344 345 345 352 349 344 348 343 346 348 350 351 350 349 352 355 352 351 348 349 356 356 357 358 358 358 358
347 348 349 351 350 349 348 351 349 348 349 349 348 348 348 347 347 350 351 350 350 351 349 350 350 350 352 352 349 348 354 355 352 346 348 352 357 356 357 358 359 358 358
345 349 351 351 351 350 350 349 350 348 348 349 349 349 350 351 351 350 353 352 352 352 350 351 352 352 350 348 349 352 354 349 348 351 349 354 355 356 358 358 358 358 356
345 344 346 351 351 351 352 351 352 350 349 349 350 350 350 351 350 351 353 352 354 354 353 353 354 352 352 352 351 351 349 350 352 353 349 353 354 357 357 358 358 353 346
341 344 344 344 346 347 349 350 349 351 350 349 349 350 351 351 352 352 352 352 351 352 352 352 353 353 354 353 353 353 352 352 353 353 346 350 356 357 357 357 354 345 341
340 339 343 342 343 343 346 349 349 350 351 350 349 348 349 350 350 350 350 353 353 353 353 354 353 353 354 354 354 354 354 353 355 354 349 352 356 357 357 352 348 342 338
341 341 339 339 340 342 342 345 349 352 351 351 350 350 350 349 349 349 349 350 352 355 356 355 354 354 355 355 355 354 353 352 355 354 353 353 357 357 356 350 341 336 335
343 342 341 340 339 339 341 342 342 347 352 351 350 350 350 349 349 349 347 348 351 350 351 352 354 355 355 354 353 355 354 353 353 353 354 356 357 358 353 344 335 335 335
343 343 343 342 340 338 337 338 340 342 343 349 351 351 351 350 349 349 349 349 349 351 351 352 353 352 351 352 354 355 355 354 354 353 355 358 356 358 352 340 336 335 336
344 343 344 343 343 342 340 336 337 341 342 341 342 344 348 350 350 350 351 350 351 349 349 349 352 352 352 352 353 353 352 351 355 355 357 355 356 357 352 341 337 336 336
346 345 345 345 345 345 345 346 344 343 344 343 343 342 344 349 350 349 351 350 352 350 350 350 349 349 349 349 351 351 353 353 355 355 355 356 357 356 348 345 339 340 338

GFSMA_925_thetae_069.txt.gz
Theta_e
345 346 343 343 341 341 341 341 345 345 346 347 347 347 345 343 344 343 344 340 341 341 343 341 342 339 339 339 338 340 341 338 334 335 336 337 337 339 342 340 339 337 336
342 342 342 344 344 344 342 344 344 344 347 347 346 347 344 343 344 345 345 344 338 340 343 339 342 339 342 343 340 338 341 337 336 338 338 340 341 340 340 340 339 335 333
345 343 346 344 343 343 343 343 343 343 347 346 345 345 345 344 344 345 345 346 345 340 341 342 338 337 337 340 341 343 340 339 339 340 341 342 342 337 337 338 337 335 332
345 345 344 344 344 343 344 345 347 347 346 346 346 346 346 345 344 346 346 346 346 346 344 339 343 338 338 341 344 343 341 340 341 339 339 340 335 332 338 341 335 334 331
346 344 344 346 343 344 342 345 347 346 346 345 345 346 347 347 347 345 346 346 346 346 346 342 339 339 339 338 339 339 340 338 334 331 329 329 329 328 329 332 332 332 330
345 344 344 344 344 346 343 345 344 342 345 345 343 345 347 347 347 347 347 346 346 345 345 344 346 344 340 340 340 340 339 336 332 327 327 326 325 324 324 327 327 327 328
346 346 345 343 344 343 342 341 344 346 346 342 344 344 344 344 345 345 345 346 347 347 347 347 346 347 345 339 340 341 341 340 339 336 329 324 324 322 321 321 322 323 324
346 346 345 344 343 343 341 340 341 348 346 342 344 344 342 341 342 343 344 344 345 345 345 347 347 344 344 346 341 338 339 341 341 341 340 337 333 329 326 323 322 321 321
345 344 346 344 345 345 348 343 342 343 345 343 340 344 343 344 344 344 345 343 340 343 343 343 343 342 341 344 342 343 340 341 341 341 342 342 341 340 338 334 331 328 325
348 346 346 345 344 345 347 346 346 345 340 344 343 344 342 344 346 346 344 344 343 343 343 343 344 343 340 344 342 340 341 341 341 341 341 341 342 342 342 342 340 339 338
349 348 345 346 345 348 344 343 343 343 341 344 344 345 345 345 347 348 347 346 345 344 344 341 343 342 340 340 341 341 341 341 341 341 342 344 343 343 343 343 343 342 341
348 349 347 345 345 348 346 348 344 345 345 345 347 345 345 347 348 348 348 349 348 347 346 345 342 342 342 342 342 342 343 346 349 351 352 352 352 352 350 347 344 343 343
353 351 349 348 346 346 346 347 344 344 347 349 346 348 347 350 350 351 348 347 347 348 348 348 349 348 348 346 347 350 352 351 353 349 346 345 345 345 350 353 352 350 347
351 350 348 347 348 348 347 347 350 349 348 349 345 348 351 351 351 352 353 348 348 347 348 350 349 349 351 349 351 351 353 355 352 353 347 346 350 354 349 350 352 354 357
350 347 348 348 348 349 349 347 351 347 348 349 351 347 350 351 350 350 351 350 349 350 348 348 348 349 352 354 352 351 354 354 352 350 347 347 356 356 356 357 358 358 358
347 350 348 349 348 349 350 348 350 350 347 350 351 351 348 350 349 350 351 352 352 352 351 350 350 351 352 354 352 351 356 355 354 346 347 349 357 356 356 357 357 358 357
347 348 347 349 350 349 350 350 351 351 352 353 350 352 353 352 350 351 352 353 353 352 352 351 353 354 352 356 352 351 355 356 350 352 351 352 355 355 356 357 358 357 356
346 346 347 349 353 352 352 352 348 353 353 353 353 353 352 352 355 355 353 356 354 355 354 354 354 354 356 355 355 357 354 351 354 352 349 352 353 356 356 357 358 354 345
347 348 346 350 351 352 351 350 351 349 354 353 353 354 353 354 355 354 355 355 355 356 357 356 355 355 355 355 355 354 356 357 353 351 350 352 354 357 356 357 352 344 342
342 347 347 346 349 352 353 354 353 355 356 355 354 354 354 354 355 357 356 356 356 356 355 357 354 354 354 355 356 355 353 353 355 354 350 354 357 358 357 354 347 341 340
344 341 346 348 348 351 352 353 354 354 354 355 355 355 353 352 350 352 353 354 356 357 355 354 354 353 353 353 353 354 355 355 354 357 353 356 358 361 352 350 344 339 337
345 345 346 346 348 348 347 346 346 354 355 355 355 355 354 349 347 347 348 348 351 355 356 355 353 353 355 355 354 355 355 356 354 353 356 356 359 361 352 345 343 337 336
347 347 346 346 344 344 345 344 343 349 353 355 355 355 355 353 350 353 351 348 348 347 349 352 354 354 353 354 356 356 356 357 355 352 355 357 360 360 350 350 343 338 337
347 347 348 347 345 344 341 339 339 342 350 352 353 353 354 354 355 353 354 354 354 353 351 349 351 354 355 357 358 357 358 357 355 354 357 360 358 360 349 344 344 337 336
348 347 348 348 347 345 343 340 338 343 346 350 350 351 352 352 346 343 350 354 354 354 351 351 349 350 348 349 353 354 354 353 351 349 356 361 357 360 350 344 348 341 337
349 349 348 348 348 347 345 344 343 344 344 345 347 349 348 346 345 339 341 352 354 352 352 351 354 351 350 349 349 350 353 353 351 352 354 359 356 360 358 350 340 341 339

GFSMA_925_thetae_072.txt.gz
Theta_e
348 347 348 347 346 346 346 348 348 349 349 348 347 346 344 344 343 341 341 335 339 340 344 344 343 341 339 338 336 337 342 342 338 340 339 341 341 341 342 343 340 335 332
349 348 348 347 347 347 347 348 349 348 346 346 347 346 345 345 346 346 345 344 336 338 340 336 337 337 342 346 344 341 339 339 339 340 340 342 343 340 337 338 338 335 331
351 350 349 349 347 349 350 350 349 348 345 346 347 347 346 346 346 347 345 345 348 343 338 340 338 336 336 338 341 343 341 340 341 341 343 341 339 333 335 340 337 334 331
348 349 348 347 349 349 348 347 348 346 345 345 346 345 345 344 346 347 345 345 345 346 347 339 339 338 337 338 342 341 339 337 336 333 331 331 329 328 329 332 334 332 331
348 348 348 348 351 348 347 346 347 346 345 344 343 344 345 345 346 344 347 347 345 345 344 344 341 341 340 340 339 339 337 334 330 327 326 324 323 323 324 326 328 329 329
349 348 348 349 349 346 346 347 347 346 345 344 342 343 343 343 344 344 345 344 345 346 344 346 346 344 340 339 340 340 340 339 337 333 328 325 323 322 321 321 323 324 326
352 350 349 348 349 346 348 350 347 347 343 344 342 341 341 344 342 342 343 343 344 345 345 346 346 344 345 343 342 339 340 341 341 341 341 339 335 331 328 325 322 322 322
350 351 351 350 348 345 349 349 349 343 343 344 342 342 341 342 342 341 342 342 343 343 343 345 346 347 348 346 344 340 340 340 341 341 341 342 342 341 340 337 334 330 325
352 352 353 348 351 348 345 349 348 349 341 344 347 343 344 344 343 341 343 341 344 342 343 343 345 345 348 348 348 348 343 341 341 341 341 341 341 342 342 342 341 340 337
352 352 353 353 353 348 349 349 349 348 344 340 342 344 349 348 347 345 341 342 342 342 343 342 342 344 347 347 346 346 341 341 341 341 342 344 345 345 343 342 342 342 342
352 352 353 353 353 350 351 351 353 350 344 340 341 344 347 348 351 346 344 341 341 341 342 343 343 344 347 349 348 347 342 347 350 352 351 349 347 349 351 349 345 344 343
352 353 352 354 353 352 352 350 353 351 349 346 343 346 345 348 347 346 345 344 344 344 344 345 346 347 348 349 348 349 352 350 353 349 348 347 346 350 351 350 352 351 347
350 353 351 349 350 349 351 350 354 351 352 348 350 346 346 349 350 349 346 345 346 346 346 347 349 350 350 351 352 349 353 351 353 352 348 346 351 355 356 353 352 352 352
351 352 352 351 352 352 351 351 350 348 349 351 352 352 348 349 350 350 350 348 346 345 349 353 349 349 352 353 354 351 352 355 353 351 349 347 354 355 356 356 358 358 357
350 354 352 351 351 352 353 353 351 351 351 352 350 351 350 350 350 350 350 350 349 349 348 351 349 352 352 352 355 353 354 354 355 349 352 347 352 355 356 357 357 357 357
352 352 355 354 352 352 353 355 350 352 352 350 348 351 353 348 350 350 349 350 350 349 350 350 350 352 355 354 353 354 353 354 355 349 351 348 355 354 356 356 358 357 355
352 354 354 354 354 353 354 356 353 352 355 353 350 351 353 353 349 348 350 350 350 350 349 348 351 353 358 358 357 356 352 351 347 349 350 348 353 354 356 356 357 355 348
352 354 354 353 354 354 355 356 353 351 352 352 353 352 352 350 354 353 351 351 349 351 351 350 350 353 355 356 356 357 354 350 352 351 348 349 352 356 356 356 354 347 343
351 352 354 354 353 353 357 357 354 353 355 354 354 353 354 352 352 349 353 350 350 352 353 353 352 351 352 354 355 353 354 354 350 349 348 350 356 356 357 355 351 345 343
351 351 353 354 354 351 353 355 356 354 354 354 355 355 353 353 354 355 354 355 355 354 351 353 352 351 351 352 353 352 350 349 352 351 350 349 356 360 357 354 349 344 341
351 351 350 351 353 354 351 353 356 356 356 355 356 357 355 352 353 355 354 354 355 355 352 351 351 351 351 351 353 349 350 349 350 350 354 349 354 355 359 351 347 343 340
352 352 351 349 349 349 349 351 354 356 356 356 356 357 356 354 352 349 346 345 349 355 355 355 352 351 353 354 351 350 350 349 351 349 350 348 350 357 361 354 346 345 340
351 352 352 351 350 349 345 348 348 350 351 354 355 355 356 353 354 354 353 348 348 348 348 351 353 352 351 352 353 355 353 353 353 352 349 348 350 356 362 350 350 349 344
353 353 353 353 352 351 349 345 345 349 349 350 352 354 355 352 352 355 354 353 353 353 352 350 351 352 352 352 354 355 355 356 354 352 350 353 351 351 362 355 349 349 345
353 353 353 353 353 353 351 348 345 346 345 348 350 351 354 354 354 352 353 352 352 352 350 351 350 350 352 351 349 350 349 347 345 344 344 346 351 352 361 358 347 346 345
352 353 353 353 354 354 353 351 347 347 347 345 345 349 351 352 353 353 355 353 352 349 348 347 350 351 351 352 348 350 351 349 344 343 343 349 351 351 355 360 356 342 342

GFSMA_925_thetae_075.txt.gz
Theta_e
346 347 347 347 346 346 345 346 349 346 346 345 344 343 342 342 341 342 339 334 333 336 339 341 338 340 342 344 342 343 345 343 339 341 341 342 343 341 338 342 341 334 330
348 347 347 346 346 347 348 348 349 347 345 345 345 345 345 345 346 346 346 340 335 333 333 333 335 337 343 347 343 344 341 338 339 341 342 343 340 336 335 338 337 334 329
351 349 345 347 347 350 350 349 347 346 346 346 346 345 344 345 345 345 346 349 345 339 337 337 337 336 336 337 339 338 336 335 335 333 329 332 330 329 330 337 339 333 330
351 353 347 346 346 347 347 347 347 346 346 347 345 344 343 343 344 345 343 346 350 349 344 339 338 338 338 338 338 337 334 331 327 325 324 324 324 324 325 327 330 331 331
351 350 346 348 350 347 346 345 346 344 344 346 344 344 345 344 346 343 344 345 343 345 348 344 342 340 337 338 338 337 336 333 331 327 326 324 323 322 322 322 324 326 328
351 351 349 349 353 346 346 348 347 346 345 344 343 344 344 342 341 342 344 344 345 346 344 346 348 346 338 335 336 338 339 340 340 340 339 338 335 332 329 326 323 322 323
351 352 349 349 352 347 348 348 347 346 344 343 346 342 341 342 342 340 342 342 343 345 344 345 346 346 346 347 340 339 340 340 341 341 341 342 342 342 340 337 333 329 325
352 351 350 347 348 348 350 348 347 346 342 343 347 345 344 342 341 341 341 341 343 343 343 345 344 347 348 348 345 344 342 341 341 341 341 341 341 341 342 342 341 338 335
352 352 354 350 346 350 346 349 348 348 346 340 343 345 351 349 342 343 342 342 343 342 342 343 344 346 348 349 350 350 343 341 341 341 343 345 346 346 344 343 342 342 341
353 353 351 352 350 348 347 346 345 351 343 341 341 342 349 350 357 342 340 341 341 342 342 342 343 344 347 350 348 350 345 343 348 351 350 347 346 346 347 349 348 344 343
353 352 353 353 353 352 347 351 352 350 343 343 342 343 346 344 346 349 343 341 341 341 342 344 344 344 348 349 348 347 351 349 352 349 350 348 347 353 355 349 350 351 350
351 352 353 354 354 354 351 350 351 351 350 347 347 343 346 346 349 344 343 345 343 344 344 345 346 347 348 350 350 348 351 352 351 351 350 346 347 354 356 356 355 352 351
348 353 354 355 353 353 351 351 352 352 349 347 344 349 345 347 350 346 347 346 346 345 346 347 348 349 350 351 354 348 355 354 351 353 345 346 347 355 355 356 357 358 357
350 354 354 353 353 353 353 352 352 349 348 349 348 351 351 347 348 348 349 348 346 346 347 355 348 349 351 352 355 353 353 355 349 352 346 347 347 355 355 356 357 357 357
350 355 353 353 353 353 353 353 351 348 351 350 350 349 349 349 346 348 347 347 350 352 349 352 348 353 352 351 354 355 354 353 352 354 349 344 348 353 355 356 357 356 355
351 352 354 353 353 352 353 354 351 352 351 350 347 348 349 350 348 347 347 348 348 349 351 349 349 352 357 356 355 356 356 353 351 353 350 346 346 352 355 356 356 354 349
353 353 356 355 355 354 353 354 355 353 353 352 351 350 354 352 351 347 346 347 348 349 349 347 349 353 359 357 358 359 357 354 352 350 350 347 349 353 355 356 355 348 344
352 352 355 355 355 355 355 355 354 350 353 353 352 351 351 351 354 351 352 350 350 352 352 355 351 350 351 354 356 357 355 352 352 352 349 348 350 356 355 356 353 347 345
354 351 354 354 354 354 355 356 355 354 354 353 353 352 352 353 352 352 352 349 350 353 352 353 353 351 350 351 353 354 354 353 353 350 349 349 350 356 357 355 354 347 344
354 353 352 354 356 353 353 356 356 356 355 355 355 353 353 353 354 354 354 354 352 353 351 351 350 350 350 350 352 353 351 348 349 350 351 352 349 355 359 355 353 349 342
354 354 353 353 354 354 351 353 354 354 355 356 355 355 354 353 353 354 354 354 352 355 352 350 349 349 349 351 354 355 351 349 350 348 348 351 351 353 358 355 352 350 345
355 355 354 353 352 351 349 350 352 354 354 356 356 357 357 354 352 351 352 352 353 357 359 356 353 352 357 353 351 351 351 349 348 348 350 351 346 346 353 354 353 351 350
356 357 356 355 354 353 348 347 350 350 354 357 356 357 356 351 353 355 353 346 341 341 344 349 355 356 354 353 352 355 352 355 354 350 349 348 348 350 352 359 357 351 350
355 355 356 357 357 356 353 349 346 348 351 351 353 356 356 355 355 357 356 356 356 354 350 348 348 348 350 352 353 354 356 358 356 354 354 354 349 348 349 360 359 357 352
354 355 355 356 357 358 356 353 350 347 347 351 352 351 353 356 357 352 355 357 356 356 351 351 352 351 350 350 349 352 351 347 346 343 341 342 343 344 346 353 360 357 355
355 355 355 355 356 357 358 356 354 351 349 349 350 351 350 351 353 356 355 355 357 356 356 348 351 351 351 351 350 350 352 352 348 346 342 342 343 345 348 349 361 356 355

GFSMA_925_thetae_078.txt.gz
Theta_e
348 349 347 347 346 348 346 347 348 346 345 344 344 342 342 343 342 338 330 328 327 330 335 339 336 336 343 346 342 342 340 339 338 338 341 345 342 337 335 337 336 332 328
346 344 347 349 349 347 350 347 349 346 347 343 343 345 345 345 346 343 339 334 332 332 331 333 334 335 341 343 342 341 336 333 334 334 334 337 334 331 331 336 336 332 329
353 349 348 346 348 348 349 350 350 345 345 345 345 344 345 344 341 347 347 344 337 337 337 336 333 333 332 332 331 331 330 328 324 325 324 324 325 326 327 328 333 331 329
350 341 349 347 346 346 349 344 349 345 346 344 345 345 345 344 344 345 348 350 349 346 337 334 335 336 335 333 331 331 329 326 325 324 323 323 323 322 323 324 325 328 328
352 351 348 344 348 349 349 345 344 345 348 347 345 346 344 344 345 344 343 345 347 350 348 339 343 335 332 333 334 334 335 336 337 337 336 335 332 330 327 325 323 323 325
350 352 348 348 350 351 347 346 348 345 346 344 344 344 345 345 345 344 343 346 343 343 346 346 348 344 337 337 337 339 340 341 341 341 341 342 342 341 340 336 331 327 325
352 350 352 346 353 348 344 347 346 345 346 345 344 345 343 339 341 342 344 345 343 346 344 345 348 348 345 346 339 341 341 341 341 341 341 341 341 341 342 342 341 338 334
349 351 350 345 350 350 348 349 348 347 345 343 346 347 347 345 342 341 342 342 344 343 344 345 345 346 347 349 347 348 345 341 341 341 342 344 345 346 345 344 342 343 341
351 353 350 351 346 351 346 347 347 347 345 339 340 348 352 352 346 340 341 342 342 343 343 341 346 346 347 351 350 349 347 343 346 350 350 348 347 347 350 350 348 346 343
352 353 352 353 350 348 349 346 347 345 344 346 340 341 346 346 358 351 343 341 344 342 343 343 344 345 347 350 350 349 347 348 350 350 350 349 346 353 355 352 349 350 350
349 351 349 351 351 349 344 348 349 348 349 349 345 345 342 350 349 356 350 342 342 342 342 345 345 346 348 347 348 345 348 352 349 350 351 346 347 354 355 356 357 354 351
352 351 350 351 353 349 352 341 349 350 349 347 343 348 349 347 348 353 351 345 345 343 343 345 346 347 348 352 350 348 353 353 353 348 344 346 345 354 355 356 357 357 357
352 351 352 354 350 351 350 352 349 350 348 346 352 345 352 346 349 349 350 349 349 344 347 347 348 349 351 352 353 354 353 353 354 351 347 345 345 354 354 355 357 357 356
350 351 351 353 353 351 352 351 352 349 350 342 345 347 349 349 349 347 350 350 357 351 347 350 348 349 351 351 353 354 354 355 353 351 350 347 345 352 354 355 356 356 355
350 351 351 353 352 352 352 352 348 349 344 347 352 344 345 348 349 345 346 347 349 359 357 349 347 349 352 353 353 354 355 355 351 352 352 347 347 350 354 355 356 354 349
350 343 349 352 352 353 352 352 353 349 351 349 346 350 341 342 349 351 347 347 347 348 355 349 351 353 353 353 355 357 352 351 354 352 349 349 347 352 354 355 354 349 344
354 349 342 350 353 352 352 353 350 351 350 347 351 352 349 351 345 352 353 351 347 349 355 352 352 355 352 351 354 356 355 354 353 352 351 350 347 350 355 355 354 350 347
353 353 351 353 352 354 354 352 352 354 352 353 348 348 351 353 350 349 349 350 349 349 349 353 352 348 348 351 355 355 355 353 354 354 353 350 347 349 355 355 353 350 349
355 354 351 355 354 353 353 353 352 353 351 353 354 353 350 352 352 351 351 354 352 354 351 351 350 353 353 351 351 351 354 351 353 352 349 349 350 350 353 357 354 351 349
357 355 353 355 352 354 354 354 353 353 353 353 353 353 354 353 353 352 352 352 352 354 352 352 351 349 349 350 352 353 354 351 347 351 348 351 352 351 351 358 356 352 350
356 357 356 354 355 353 355 353 355 354 351 350 353 355 355 356 354 354 354 355 355 353 355 354 353 353 352 356 355 354 353 355 352 348 346 353 352 351 349 353 357 351 350
355 356 357 356 355 357 353 352 352 356 356 356 352 352 356 354 356 352 352 353 354 354 354 356 359 358 354 356 354 353 352 352 351 354 353 349 349 348 349 351 355 353 350
355 356 357 358 357 355 353 348 349 352 355 357 355 353 354 354 356 354 352 351 348 344 348 349 349 352 353 344 347 351 355 354 357 349 350 352 350 352 350 353 353 354 352
354 355 357 358 359 358 356 352 350 348 351 351 352 356 355 354 352 355 358 358 355 352 349 345 342 341 340 339 341 347 349 354 356 356 355 358 354 353 351 351 353 357 357
352 353 353 355 358 359 359 357 355 352 350 349 352 351 351 356 356 353 350 353 359 359 359 356 355 352 350 348 348 351 353 353 352 350 347 345 344 344 344 347 349 358 359
343 350 352 353 354 356 359 359 357 356 354 352 350 349 351 352 349 354 359 356 355 353 357 359 356 352 351 352 352 353 352 354 354 353 350 347 346 345 346 345 347 354 358

GFSMA_925_thetae_081.txt.gz
Theta_e
345 345 347 347 347 344 345 346 347 349 344 344 342 343 342 342 337 331 328 326 327 330 330 333 335 337 344 345 339 340 336 336 336 336 338 342 339 334 333 335 333 330 325
347 342 346 346 344 345 347 347 347 346 343 342 342 344 344 344 343 341 335 332 331 331 332 334 334 335 336 335 334 333 331 329 329 329 329 329 330 330 330 333 336 331 328
348 347 347 348 347 347 344 346 346 346 342 343 343 343 342 343 342 346 346 341 339 336 335 333 332 330 328 327 326 327 327 325 325 324 325 325 325 326 326 327 329 331 330
346 346 346 345 348 349 345 345 346 346 344 345 344 344 343 342 343 346 347 348 347 341 331 333 333 332 329 328 328 328 328 329 330 331 331 330 329 328 326 325 324 327 329
347 348 349 347 350 348 347 345 346 347 347 346 345 345 345 343 344 344 347 346 348 349 340 343 338 331 331 331 334 336 338 340 341 341 341 341 341 340 338 334 330 327 325
352 349 345 348 348 348 346 346 346 346 344 345 344 344 345 344 345 345 343 343 343 346 345 345 347 339 341 337 339 340 340 340 340 341 341 341 341 341 342 342 341 338 333
350 349 349 349 349 347 346 345 348 346 346 343 344 345 345 345 344 344 343 345 344 345 345 345 348 347 346 345 343 346 343 341 341 341 341 343 345 345 345 344 342 342 341
351 350 347 349 344 347 349 347 348 347 346 344 344 348 344 342 341 342 344 344 344 346 345 345 344 344 347 349 348 347 347 344 344 348 348 347 347 348 353 351 348 346 343
349 350 348 349 348 348 348 348 346 345 349 339 340 348 347 349 344 340 342 343 342 343 344 343 345 343 347 349 350 349 348 347 349 350 350 347 347 353 355 353 349 350 349
350 352 351 351 348 350 346 348 350 347 349 348 344 345 345 347 347 341 341 340 343 344 342 341 344 344 347 349 351 347 346 351 350 349 349 346 346 354 355 356 356 353 350
351 352 351 352 348 345 346 347 349 347 347 349 346 351 346 351 350 351 339 340 341 342 341 342 344 344 347 349 350 348 352 352 352 348 345 347 345 353 354 355 356 357 356
348 347 348 351 347 344 344 346 350 349 344 346 348 346 353 347 347 351 344 341 342 342 343 344 345 345 348 349 350 352 352 352 353 350 348 347 344 352 353 355 356 356 356
352 351 349 351 348 348 349 345 350 349 344 343 350 345 348 350 350 350 352 348 344 346 343 346 347 349 350 351 353 354 354 352 354 351 351 348 345 351 353 354 355 355 354
351 351 351 351 351 343 350 348 349 348 348 339 341 342 342 346 349 350 349 349 349 352 350 349 348 348 351 352 354 352 354 354 354 353 353 351 346 351 353 354 354 353 350
348 351 352 350 350 349 350 352 349 344 349 348 343 351 343 341 345 350 351 348 348 349 347 350 348 349 351 351 352 352 353 352 347 354 354 351 347 351 353 353 353 348 345
349 350 348 349 352 352 350 351 350 348 348 344 347 347 348 345 340 344 352 352 350 349 348 350 355 354 354 352 349 352 353 351 351 353 351 350 347 348 354 353 353 348 347
350 349 349 346 349 351 353 351 349 351 350 346 347 352 350 350 349 343 344 349 350 351 352 352 351 351 349 345 348 351 353 351 352 353 354 352 349 347 353 355 353 350 348
352 349 345 348 352 351 353 351 351 347 350 350 348 348 349 351 353 351 351 347 352 352 355 351 349 349 351 353 353 351 355 351 352 352 354 352 351 348 351 355 355 352 349
351 353 351 346 350 350 352 353 350 352 352 351 350 350 346 349 347 349 350 348 351 350 352 354 352 354 353 351 348 348 349 351 349 351 349 349 350 349 350 353 356 354 350
354 352 353 352 353 352 354 354 352 351 351 353 351 354 353 351 351 351 349 348 349 350 350 352 351 350 348 350 355 358 356 353 353 352 349 345 351 351 351 351 354 356 351
356 356 354 354 355 353 352 354 354 352 351 351 351 352 352 355 354 354 352 352 351 352 353 354 358 358 358 357 356 354 351 350 350 348 342 346 351 347 348 348 349 354 354
355 355 355 355 353 356 353 351 353 352 353 352 350 349 352 352 355 357 354 353 353 352 355 353 353 354 355 357 354 346 344 345 352 343 347 345 351 351 350 350 352 351 355
354 354 355 357 355 354 354 356 354 354 352 354 353 353 353 351 349 352 351 354 353 351 350 349 351 351 351 347 342 339 338 342 349 346 354 355 348 352 347 348 351 353 353
351 354 354 354 355 357 357 353 351 352 352 354 356 356 355 353 352 351 353 355 355 353 352 352 348 342 341 347 345 343 343 345 349 350 351 355 346 346 341 343 347 351 352
340 346 351 352 353 354 354 357 358 354 353 351 350 351 353 353 354 355 353 354 356 355 353 355 356 356 356 351 351 352 348 351 352 350 350 350 349 348 343 345 345 347 351
332 334 341 346 351 352 353 354 355 354 355 354 353 352 350 349 351 353 353 355 357 356 353 353 357 358 358 356 352 352 352 350 350 351 348 351 349 347 346 345 347 347 348

GFSMA_925_thetae_084.txt.gz
Theta_e
343 345 345 346 346 341 345 347 348 344 343 343 342 344 342 332 332 329 327 329 336 338 333 333 333 337 343 343 337 337 336 335 335 335 336 338 337 335 334 337 336 332 327
344 345 346 345 346 344 344 346 346 346 342 344 342 342 343 340 338 337 334 332 331 332 333 334 334 335 336 333 331 331 330 330 328 328 328 327 327 328 330 331 338 335 330
343 345 346 345 344 345 345 346 346 343 343 343 343 343 344 343 343 344 342 341 336 332 331 332 331 330 328 326 326 327 327 327 327 327 327 328 328 327 327 326 328 332 332
346 346 347 347 346 347 346 346 345 345 343 343 343 344 344 344 343 345 346 345 345 334 332 331 331 330 329 328 329 331 333 336 338 339 340 340 339 337 335 332 328 327 328
344 346 347 347 346 348 344 344 345 346 346 345 344 344 344 344 342 344 345 346 347 346 339 344 335 332 332 334 337 339 340 340 340 341 341 341 341 342 342 342 340 335 329
347 347 347 348 348 347 347 346 345 346 345 345 345 344 345 344 343 344 344 345 344 344 344 345 346 341 341 338 340 340 340 340 340 341 341 342 343 344 344 343 342 342 340
349 346 345 346 345 346 347 347 345 345 345 343 343 344 345 344 344 344 344 344 344 344 344 345 346 346 347 347 344 344 345 344 343 344 347 347 347 347 350 351 348 346 343
347 349 346 346 346 346 346 348 348 346 345 344 345 345 340 341 341 343 344 343 345 345 344 345 345 341 346 348 349 349 347 346 347 349 349 347 347 353 354 354 348 348 347
347 349 342 347 346 348 348 348 345 345 345 342 343 346 343 343 341 341 344 344 345 344 343 344 343 344 345 348 349 350 347 350 349 348 348 347 347 353 355 355 355 351 349
350 346 349 347 346 345 346 347 350 347 345 346 345 347 347 348 340 337 342 343 340 344 343 343 341 343 344 347 349 348 350 351 349 347 346 347 346 353 354 355 356 356 355
349 351 345 347 348 348 347 348 349 346 347 345 348 351 350 352 349 344 337 340 342 343 343 342 341 343 344 347 349 348 351 352 353 349 349 347 346 352 353 354 355 355 355
349 347 349 349 348 346 346 346 349 348 347 346 347 349 349 347 349 349 342 338 339 341 341 341 343 344 344 347 348 352 353 352 353 353 350 350 346 350 353 354 354 354 354
350 350 349 349 349 342 344 345 347 350 346 342 346 344 347 349 349 350 349 345 343 343 342 342 344 348 348 348 350 353 353 353 353 352 353 352 348 351 352 354 353 353 351
349 351 350 350 349 347 344 347 348 348 347 343 342 343 345 343 345 351 350 348 345 348 348 346 346 347 349 352 352 351 351 352 351 347 354 356 352 349 352 353 351 348 346
349 350 350 349 349 350 347 347 347 348 345 348 346 344 349 342 341 346 352 351 347 344 343 351 351 350 352 353 352 349 351 353 352 352 353 353 350 347 352 353 351 348 347
347 349 350 350 348 346 345 349 348 348 347 345 344 346 347 347 347 344 344 349 352 348 344 352 356 355 352 349 344 348 351 352 352 352 353 353 350 348 349 353 353 349 348
349 349 350 350 348 347 351 352 351 349 347 348 344 347 347 350 349 350 348 346 348 350 349 349 348 347 348 349 350 351 350 351 354 352 352 353 353 350 347 352 354 352 349
350 349 349 348 346 349 350 353 351 349 348 350 347 345 347 349 350 352 349 348 349 352 354 353 352 352 353 351 349 349 350 352 351 351 349 347 349 351 349 349 352 354 351
351 349 350 344 342 348 350 351 352 350 348 347 352 349 349 348 347 346 345 348 347 348 350 351 352 351 348 348 350 354 354 353 353 351 350 348 346 350 350 350 350 353 354
352 350 350 350 346 344 349 350 351 352 350 350 351 350 350 351 350 349 349 350 349 349 349 351 349 350 352 352 355 354 352 348 345 345 341 340 350 345 345 347 349 350 353
351 350 351 351 352 351 351 350 353 354 351 350 350 350 350 351 352 351 353 353 352 351 350 351 355 354 353 354 354 355 354 349 337 335 337 341 342 346 349 352 351 349 349
350 351 352 353 354 354 355 354 352 352 353 353 351 350 349 351 351 351 354 355 356 353 352 352 352 353 352 352 352 352 350 344 344 339 344 344 343 338 335 343 343 345 351
346 351 352 353 353 353 354 352 354 353 352 353 353 352 351 350 349 349 350 354 354 353 354 354 352 351 349 344 341 341 340 342 344 344 346 349 345 343 342 340 336 341 345
341 344 350 352 353 353 353 353 354 353 354 353 352 353 354 353 352 352 351 350 349 352 354 354 353 351 351 351 350 351 349 348 349 348 348 351 347 344 344 344 337 341 345
331 333 338 343 350 352 353 352 353 354 354 353 352 352 351 351 354 355 355 353 353 352 351 353 353 352 352 354 355 355 353 349 350 349 349 349 345 346 346 344 339 340 344
325 322 321 326 333 342 346 350 352 351 352 353 352 352 353 352 351 349 350 352 354 353 353 352 351 351 353 351 352 357 357 352 349 349 348 348 346 348 347 346 345 344 343

GFSMA_925_thetae_087.txt.gz
Theta_e
342 345 345 344 343 342 343 345 346 343 343 342 343 344 343 333 331 328 329 332 336 334 334 335 334 337 341 342 338 335 333 332 331 332 331 332 332 331 332 334 336 333 330
342 344 344 345 346 343 344 345 346 344 342 341 341 342 342 335 336 334 332 332 332 333 334 335 335 335 336 335 331 329 328 328 328 327 327 327 327 328 329 331 332 337 332
341 344 345 345 343 345 345 346 346 343 343 342 342 343 341 340 339 339 338 338 335 332 331 331 331 331 330 328 327 328 330 332 333 335 336 337 337 335 333 331 329 328 331
345 345 345 345 346 345 345 345 345 345 343 343 343 343 343 343 342 342 344 343 342 334 334 332 331 331 330 330 333 335 338 339 340 341 341 341 341 342 342 341 337 332 328
345 346 345 345 344 347 344 344 345 345 344 344 344 344 344 343 343 343 344 345 346 345 339 342 338 334 334 336 338 339 340 340 340 340 341 342 343 343 344 344 343 342 337
344 345 344 345 347 346 346 345 344 345 344 344 344 344 343 344 344 343 343 344 344 344 345 344 345 345 343 342 341 341 342 343 342 343 345 346 346 346 348 349 348 345 344
346 347 345 347 346 346 346 345 344 345 345 344 343 344 343 344 344 344 344 343 344 343 344 345 345 344 346 347 347 348 347 346 345 347 348 346 346 352 354 354 350 349 347
344 347 343 345 344 346 346 345 348 346 345 345 344 344 338 339 341 342 344 344 343 344 344 344 343 343 343 346 347 348 349 348 348 348 348 346 346 353 354 355 355 350 349
346 348 347 344 346 345 345 346 345 345 344 344 344 343 341 339 339 340 342 342 343 343 343 343 342 343 344 346 348 348 347 350 349 347 347 346 345 352 353 354 355 355 352
348 348 344 347 346 346 347 347 348 347 345 346 346 346 346 347 337 335 341 342 343 342 343 342 341 342 343 345 346 348 349 351 352 350 349 348 346 351 353 354 354 355 354
348 347 347 346 347 347 346 345 347 347 346 346 348 349 349 349 348 340 336 339 339 341 342 341 341 341 342 343 345 348 351 351 352 352 351 350 347 350 352 353 354 354 353
349 346 347 342 345 347 345 346 348 346 346 347 346 348 348 348 349 348 342 338 336 340 341 341 341 342 345 345 344 349 352 353 353 353 353 353 352 348 352 352 352 352 351
350 350 349 347 346 346 346 345 347 348 346 343 345 344 345 347 348 350 347 345 340 341 342 341 342 344 348 348 347 351 352 352 354 349 351 353 354 348 351 352 350 347 345
349 350 350 349 348 348 342 345 344 347 347 345 343 342 347 343 344 351 349 347 343 345 346 347 348 346 347 350 352 352 350 352 353 352 352 353 352 350 348 352 351 347 345
348 348 349 350 349 348 348 345 346 347 345 345 346 345 345 346 344 342 347 351 345 342 341 352 355 350 352 352 348 345 349 351 352 353 353 353 352 350 347 350 353 349 347
348 349 349 350 349 348 349 347 348 347 347 345 346 344 345 346 348 348 344 348 350 348 342 351 353 351 348 347 350 350 349 349 348 351 350 351 351 352 349 347 351 353 349
347 348 347 349 350 348 347 344 348 349 349 345 347 346 346 348 349 350 350 347 349 351 349 349 349 350 350 351 350 348 349 349 349 351 348 347 347 348 350 348 348 351 353
350 349 348 349 350 348 348 348 351 350 349 347 347 348 342 345 348 350 351 348 347 347 351 350 351 350 350 348 347 350 353 352 352 350 349 348 347 343 349 349 348 350 351
350 349 349 349 349 346 347 348 350 351 351 349 346 347 351 347 347 347 347 345 346 347 347 349 349 348 347 346 348 351 352 352 350 339 332 336 343 346 343 346 348 348 349
350 351 350 349 349 344 342 347 349 349 350 350 349 348 349 349 349 349 349 349 350 350 349 349 350 349 351 349 352 354 353 352 349 336 333 337 344 339 340 347 350 349 348
348 349 350 351 350 349 346 346 347 349 350 350 350 349 349 349 349 351 353 351 352 353 352 350 350 351 351 350 350 350 352 350 339 338 338 340 343 342 338 338 339 344 343
339 343 348 350 350 351 350 350 351 351 351 352 351 351 352 350 349 348 351 351 351 353 354 354 352 351 351 350 349 346 346 345 342 343 343 345 344 341 337 338 341 339 336
338 340 344 348 349 351 352 352 352 352 353 353 352 351 351 352 352 350 349 348 349 349 352 353 353 353 353 353 352 350 349 347 345 347 347 348 346 343 338 340 344 338 335
337 336 337 340 342 347 349 351 351 352 352 352 353 353 353 351 351 352 352 352 352 351 350 350 350 351 352 352 352 351 351 351 351 351 350 349 346 346 340 337 341 337 335
324 330 326 327 327 332 341 345 348 349 350 352 352 352 352 351 351 351 350 349 350 353 353 352 352 350 351 351 352 354 353 352 349 351 350 348 350 347 342 338 339 342 343
317 320 321 321 322 326 331 334 337 342 347 349 350 350 351 351 351 350 351 351 351 350 349 348 348 348 347 348 348 350 353 350 349 349 351 349 347 347 345 345 344 344 345

GFSMA_925_thetae_090.txt.gz
Theta_e
343 344 344 343 342 342 343 343 343 343 342 344 345 344 344 337 332 332 332 332 336 337 335 337 336 337 338 338 343 334 333 331 330 329 330 330 329 329 329 329 331 333 330
343 343 344 344 344 343 343 344 345 342 342 341 343 344 342 337 336 335 334 334 333 334 334 335 334 333 331 335 332 330 331 332 333 334 336 336 335 334 332 330 329 329 332
342 344 345 344 343 344 345 344 343 343 342 342 342 342 342 341 340 340 339 338 337 332 331 331 332 330 331 330 332 335 337 339 339 340 341 341 342 342 342 340 336 331 328
344 345 345 345 345 344 344 345 344 343 343 343 343 343 343 343 342 342 343 344 343 339 337 337 333 332 334 335 337 339 340 340 340 340 341 342 343 344 344 344 343 341 336
345 345 345 345 344 344 344 345 344 344 344 343 344 344 343 344 343 342 342 343 344 345 344 342 342 341 339 339 339 340 341 342 343 343 345 346 346 346 348 348 347 345 343
343 345 344 345 346 346 346 345 344 345 343 343 343 343 343 343 344 343 343 343 343 344 344 344 344 344 345 346 346 346 347 347 346 346 347 346 346 351 353 354 353 350 348
344 345 345 345 345 346 345 345 344 344 345 344 343 344 342 343 343 343 343 343 343 343 343 343 343 343 344 345 346 347 348 348 347 347 346 346 345 352 353 354 354 350 348
345 345 344 346 344 345 345 345 346 345 344 343 342 342 344 340 339 340 341 342 343 343 343 343 343 343 344 345 347 347 348 349 349 347 348 346 346 352 353 354 354 355 351
345 344 345 343 344 345 345 345 345 345 343 345 343 342 346 346 338 339 341 341 342 342 342 342 341 342 343 344 345 347 348 349 351 351 349 350 347 350 352 353 354 354 354
346 346 347 343 346 347 346 346 347 346 345 346 346 345 345 347 345 342 339 341 341 340 342 342 341 341 341 342 344 347 349 351 351 351 352 351 351 349 352 352 352 353 353
348 346 346 346 345 344 344 345 347 346 345 345 348 347 347 346 347 341 346 338 339 340 341 341 341 342 342 344 345 347 350 352 352 353 352 353 353 349 351 351 350 351 350
348 347 346 346 346 346 345 344 348 345 345 346 344 347 347 348 348 347 345 342 336 339 340 341 342 343 344 347 349 349 351 352 353 351 351 353 353 351 348 352 348 346 344
350 347 346 347 343 347 345 345 346 347 344 343 343 344 344 345 350 348 346 345 341 341 342 342 343 343 346 348 351 350 349 350 352 353 352 353 352 351 347 351 351 347 344
349 346 348 347 345 346 345 345 345 346 347 345 344 342 346 344 341 345 349 348 348 344 345 352 348 348 347 351 350 345 348 350 348 352 352 351 352 352 349 347 351 350 347
348 348 349 348 348 348 348 344 345 345 346 344 343 344 343 345 347 344 345 349 345 350 349 351 353 353 351 348 348 349 348 347 348 348 349 349 350 350 350 347 349 351 350
347 347 348 348 347 347 348 348 346 346 346 347 344 344 343 343 346 349 347 346 348 347 350 350 351 346 348 351 350 348 348 349 348 350 349 347 346 347 347 349 348 349 351
345 345 346 348 349 348 348 348 346 347 348 347 345 344 345 345 346 348 350 348 347 350 350 349 350 350 349 349 348 347 350 352 350 348 348 349 349 346 343 349 349 348 349
346 347 347 346 347 349 350 348 344 345 347 348 346 346 347 344 345 347 349 350 348 346 347 348 347 345 344 343 344 345 348 351 351 351 343 334 334 335 340 339 344 347 348
348 348 347 347 348 349 348 348 347 347 348 347 348 348 346 348 346 345 345 346 346 346 347 348 348 347 346 344 346 349 350 349 352 350 340 333 333 339 338 338 343 348 347
348 348 348 348 349 348 346 346 343 347 348 348 348 348 348 347 348 348 348 347 348 348 349 349 349 349 349 349 349 349 348 345 341 336 335 336 339 342 342 339 339 338 343
343 346 348 348 350 349 349 347 344 345 346 348 349 349 349 349 348 347 348 350 351 351 351 353 352 351 351 351 351 351 349 349 349 345 341 344 345 344 341 340 339 340 338
339 340 344 346 347 349 350 349 348 349 350 350 350 351 351 351 351 350 349 349 349 351 351 351 351 352 352 350 351 352 350 348 348 349 349 349 347 343 340 342 340 343 343
336 336 337 340 343 346 347 348 350 351 352 352 352 353 352 351 351 351 351 350 350 350 349 349 349 350 350 349 350 352 351 350 348 351 349 350 348 344 343 343 337 335 341
330 331 330 330 331 332 335 340 345 347 349 351 352 351 352 351 351 351 350 350 350 350 350 351 351 352 352 352 351 351 352 351 350 350 350 349 349 348 345 342 342 337 343
321 323 326 325 325 331 335 338 338 340 345 348 349 350 351 352 351 351 350 349 349 349 349 349 349 348 348 348 348 350 350 349 350 349 349 350 350 349 349 346 345 344 341
319 320 323 324 326 323 331 327 333 335 339 342 345 346 348 349 350 350 350 350 349 350 350 350 351 351 351 351 351 350 350 350 350 350 349 349 351 348 349 347 346 345 346

GFSMA_925_thetae_093.txt.gz
Theta_e
344 343 343 345 341 342 343 343 344 344 341 343 346 348 347 343 341 342 342 333 336 336 337 339 337 336 335 335 340 334 333 334 334 335 336 336 335 334 331 330 329 330 332
343 344 344 345 344 343 343 344 342 343 343 346 345 345 346 344 341 341 343 341 332 331 332 332 333 331 330 332 334 335 337 339 340 341 341 342 342 342 341 339 335 331 329
343 344 346 344 344 344 344 344 344 344 345 344 344 344 346 344 344 344 345 345 343 337 333 332 332 332 334 336 338 340 340 341 341 341 342 343 344 344 344 344 343 341 335
344 344 347 347 345 343 343 345 345 347 346 346 347 346 346 345 345 344 345 345 346 345 343 341 339 337 337 339 340 341 342 342 343 344 345 346 346 347 348 348 347 345 343
344 344 345 344 346 343 344 347 346 347 348 347 347 347 347 347 347 345 346 345 346 344 346 345 344 344 345 345 346 346 347 347 347 346 347 346 346 351 353 354 353 351 348
344 345 344 345 346 348 347 346 345 344 347 347 345 346 347 346 345 347 346 346 345 344 346 343 344 347 344 345 345 346 347 348 347 347 347 346 347 352 353 354 354 351 348
342 344 345 344 345 349 346 346 346 348 348 345 347 347 346 345 347 346 346 347 346 347 347 347 344 348 349 346 346 346 348 349 350 348 349 347 349 351 353 354 354 355 350
344 345 344 345 344 347 345 345 345 348 347 344 347 348 347 344 344 343 343 344 345 346 346 345 343 343 344 347 346 347 348 349 350 351 350 350 348 350 352 353 353 354 354
345 344 344 344 343 346 349 346 345 345 348 349 346 348 350 348 346 342 344 345 342 346 345 342 342 342 341 343 345 347 348 351 351 351 351 351 351 349 351 351 352 353 353
345 345 347 344 345 346 345 348 348 347 348 351 351 349 348 352 351 346 344 344 341 344 342 345 345 345 342 345 345 347 350 351 352 351 350 352 352 349 351 350 350 351 349
346 346 347 343 346 345 346 346 347 346 349 351 352 352 352 350 352 352 347 345 344 343 344 342 343 344 344 348 349 349 350 351 352 351 352 353 353 352 348 351 348 346 343
352 346 346 346 346 345 345 345 346 345 346 347 350 351 352 352 353 353 352 352 347 345 345 346 345 344 346 348 351 349 346 349 351 351 352 352 353 352 348 350 350 346 342
351 349 345 346 346 346 346 345 346 346 344 347 343 349 349 350 353 353 353 352 348 348 349 349 351 349 349 350 353 347 347 348 348 351 351 350 351 352 350 347 351 349 346
348 346 345 344 346 345 346 345 347 350 348 349 345 342 350 350 348 350 353 353 352 350 352 357 355 356 356 352 349 348 351 345 345 347 348 348 349 349 350 349 348 351 349
351 349 345 345 346 347 347 346 347 347 347 347 350 346 346 348 351 350 351 353 352 353 352 355 356 355 353 353 352 349 347 347 349 349 348 347 347 347 347 349 348 348 350
348 348 348 348 346 347 348 348 349 346 346 350 349 344 346 347 347 352 353 351 352 352 352 352 353 353 351 352 350 347 352 350 350 349 347 345 346 345 341 344 349 349 348
346 346 347 347 348 347 347 347 347 349 347 351 347 348 349 346 349 351 353 352 352 352 351 351 352 352 347 352 347 345 348 353 351 352 351 346 336 334 340 337 340 345 348
347 347 346 346 347 346 347 348 348 350 348 346 351 350 349 349 351 351 351 355 353 354 350 350 350 349 351 352 349 349 350 348 351 349 350 343 334 334 340 341 339 341 347
344 344 346 347 347 347 348 350 350 349 347 349 348 351 351 352 352 349 350 349 348 351 351 351 351 351 352 352 353 352 353 352 348 345 344 340 337 339 342 342 341 339 339
347 347 347 348 347 347 347 347 348 347 346 346 346 345 346 351 352 352 352 353 351 351 351 353 352 352 353 353 355 353 353 352 353 352 348 342 345 342 339 337 338 340 340
343 346 348 349 348 349 349 348 347 347 348 347 350 349 351 348 349 350 351 351 350 349 351 351 351 351 351 351 351 352 354 355 353 352 350 348 345 346 344 343 345 343 341
341 343 345 347 348 349 348 348 349 349 350 352 353 350 349 348 350 350 350 350 349 351 351 349 350 351 354 353 352 353 352 353 352 348 352 347 344 346 346 344 343 338 336
335 335 336 340 341 340 344 346 347 349 351 351 350 351 349 351 352 350 349 350 350 350 350 350 352 354 353 355 353 355 353 354 353 350 349 348 346 346 347 345 346 343 337
332 331 332 332 333 331 336 339 341 344 347 350 351 352 353 350 350 351 350 353 352 350 349 351 350 352 353 354 355 355 355 354 352 351 351 352 348 348 349 349 349 345 341
326 329 327 333 328 325 328 337 338 339 342 344 346 348 348 350 352 350 350 353 354 354 352 351 350 350 349 350 350 350 352 352 351 350 351 353 351 350 352 351 351 347 341
325 326 324 323 319 319 319 322 329 326 330 335 341 345 345 338 342 344 344 347 352 353 353 354 354 353 353 353 352 351 351 352 352 352 351 352 351 351 352 349 351 351 351

GFSMA_925_thetae_096.txt.gz
Theta_e
349 348 350 347 346 346 348 349 347 347 347 347 348 348 346 343 341 338 336 330 331 332 333 335 335 333 332 334 335 337 338 339 340 341 341 341 342 342 341 338 335 332 332
349 348 349 349 347 346 347 348 348 346 345 345 347 347 345 342 344 341 338 336 329 328 328 329 331 332 333 336 338 340 341 341 342 342 342 343 344 344 344 344 343 340 335
351 350 349 348 348 349 351 348 347 346 343 343 345 346 344 345 345 346 344 343 343 338 333 333 335 336 338 340 341 342 342 343 344 344 345 347 346 347 347 347 346 345 343
352 350 348 348 350 349 348 347 346 344 344 344 346 346 345 345 346 347 346 347 348 347 346 342 343 343 344 345 346 346 347 347 347 346 347 346 346 350 352 353 352 350 347
352 349 349 350 351 348 348 346 347 347 346 345 344 345 345 345 346 344 346 348 348 349 349 346 344 345 345 345 346 347 348 348 347 347 347 346 348 352 353 353 354 353 350
352 350 349 351 351 349 348 348 350 348 348 347 344 344 344 345 346 346 345 347 348 349 348 351 351 350 346 346 346 347 348 350 350 349 349 347 349 352 353 354 354 354 350
351 352 349 351 351 351 352 352 348 350 345 345 345 343 342 344 345 345 345 346 346 346 348 350 352 352 352 351 348 347 350 350 350 351 350 350 349 351 352 352 354 354 354
352 352 351 350 351 350 352 353 353 347 345 348 345 345 345 342 342 343 344 344 347 345 346 349 351 352 352 351 349 348 350 351 352 351 351 352 350 351 351 350 353 353 353
351 353 352 351 351 352 349 352 352 352 345 349 352 349 347 346 343 341 344 344 347 346 347 349 349 350 351 351 349 350 351 351 351 350 351 352 352 348 351 348 349 350 347
350 351 353 352 353 350 351 353 351 351 354 348 349 351 354 355 348 345 342 342 345 345 347 347 347 349 352 351 351 350 350 351 351 351 352 353 353 351 349 350 347 344 340
352 351 353 353 354 350 354 354 354 354 350 350 348 351 354 353 355 348 344 342 343 344 345 347 347 349 351 353 351 350 346 349 350 351 351 352 353 352 349 351 348 346 340
353 352 353 353 354 352 352 352 355 354 354 353 352 352 351 351 351 349 347 346 344 345 346 347 348 349 351 352 353 350 348 347 346 348 351 350 350 352 351 348 350 348 345
350 353 353 352 352 353 352 351 350 353 353 351 353 350 351 351 353 353 350 348 346 346 348 348 351 352 352 354 354 349 352 347 346 346 348 348 350 350 350 349 349 350 348
350 352 350 350 352 352 353 354 350 349 350 350 352 353 349 350 351 352 353 352 349 347 350 354 353 354 355 354 354 349 353 352 345 348 348 347 347 347 347 348 348 349 349
353 351 350 349 350 351 352 353 349 352 353 352 351 352 350 348 349 350 352 353 352 352 351 356 352 356 354 353 353 351 352 352 350 349 346 342 338 338 342 343 347 348 348
354 351 351 350 350 350 352 353 350 351 353 352 349 350 350 346 348 348 349 349 351 351 351 351 351 353 354 351 350 350 350 348 350 350 349 352 349 337 339 338 339 343 347
354 351 350 350 351 350 350 351 351 351 353 351 352 351 351 350 347 346 348 349 348 348 349 348 351 351 355 353 353 352 349 348 345 349 346 347 344 336 338 341 340 340 342
350 351 353 351 349 351 352 352 351 351 352 351 349 350 351 347 349 348 347 348 348 349 348 347 347 348 351 352 352 354 351 347 346 345 345 345 339 337 338 342 342 340 340
350 349 350 350 350 352 351 351 353 353 351 350 350 349 350 349 350 346 346 346 344 345 347 347 347 346 348 351 352 351 349 350 349 347 346 344 341 341 341 339 338 338 341
351 349 350 350 350 354 353 353 353 354 352 351 350 350 349 349 351 352 352 351 351 351 348 348 346 345 345 347 349 348 345 346 348 348 348 345 344 344 344 343 342 342 343
352 352 353 354 354 354 352 354 352 352 352 351 351 351 351 350 350 349 350 350 352 351 347 344 345 344 345 347 349 347 347 347 346 348 347 348 344 341 341 342 342 344 342
349 351 352 353 353 352 350 348 348 352 353 353 353 354 353 352 350 348 349 350 350 352 352 351 348 347 349 351 351 350 350 348 349 346 347 346 344 343 342 342 344 344 342
344 344 346 349 343 340 340 345 346 350 353 354 354 353 353 348 350 351 351 350 348 349 350 350 352 352 352 352 353 355 352 352 352 349 348 347 348 347 344 343 347 347 348
341 341 341 341 331 327 335 338 340 346 351 353 353 353 354 353 353 351 352 351 351 352 352 352 352 353 354 353 353 354 353 354 354 351 348 349 347 348 348 347 349 350 349
337 338 339 335 326 324 331 336 340 344 348 350 349 349 349 348 347 348 349 353 353 353 352 351 352 352 352 351 350 350 351 351 350 349 348 347 347 347 347 347 347 349 351
333 334 334 327 321 319 321 327 330 331 335 339 345 341 339 336 339 341 342 343 348 350 348 347 348 349 352 354 354 353 353 353 352 352 350 352 352 352 352 349 348 348 349

GFSMA_925_thetae_099.txt.gz
Theta_e
346 346 346 346 345 347 348 345 345 346 346 345 342 343 341 341 339 336 332 326 327 328 329 329 330 331 334 337 339 340 341 341 342 343 343 343 344 344 344 344 342 339 335
349 347 347 347 345 347 348 346 348 344 344 342 345 344 341 341 343 338 336 330 326 326 328 331 334 336 338 340 342 343 343 344 344 345 345 346 347 347 347 347 348 346 343
352 349 346 346 346 347 350 348 345 344 341 340 344 345 343 344 345 346 343 343 340 336 336 337 338 340 342 344 345 346 346 347 346 346 347 347 347 349 351 352 351 348 347
351 349 347 347 347 348 345 345 343 343 343 343 345 345 343 343 346 347 347 348 349 347 344 344 345 346 346 346 346 347 348 348 347 347 347 347 349 352 353 353 354 354 351
353 348 347 348 352 346 345 343 343 345 344 343 344 344 345 344 347 345 349 350 349 350 349 345 348 346 346 346 347 348 349 350 349 349 348 348 350 352 353 354 354 354 351
352 352 348 349 352 348 346 349 351 344 347 346 344 343 344 344 346 346 348 349 350 350 347 352 353 351 350 349 348 349 350 350 351 351 350 349 350 351 352 352 354 354 354
352 353 350 350 350 350 351 348 349 350 343 342 349 343 342 344 346 345 347 348 348 346 348 352 352 354 353 351 350 349 350 351 351 351 351 351 348 351 349 351 353 353 353
353 352 352 351 352 350 352 352 353 351 342 344 347 346 344 344 344 344 345 346 348 345 347 350 351 354 352 351 350 350 351 350 350 350 351 352 351 348 350 348 349 349 348
352 354 354 353 351 353 351 352 349 350 347 343 350 352 352 353 343 344 345 346 347 345 346 349 349 351 353 352 352 350 349 351 351 351 352 352 352 351 350 348 347 343 340
351 352 353 353 355 351 353 353 349 352 348 345 344 348 351 354 357 346 342 345 345 346 347 347 347 350 352 351 353 350 346 348 349 350 351 352 352 353 349 350 348 346 340
352 350 352 353 354 352 352 355 354 355 348 352 346 347 352 348 348 349 349 343 345 344 345 347 347 348 351 352 354 351 348 346 345 346 349 351 350 352 352 348 350 348 345
352 352 353 353 354 355 355 353 354 354 356 354 354 349 349 351 351 349 347 346 346 345 345 346 347 348 348 351 354 350 352 351 344 347 346 348 348 350 351 350 349 349 348
351 355 353 353 353 355 354 353 354 355 354 354 355 352 346 349 349 350 349 348 345 346 347 347 348 350 352 351 355 349 354 353 348 345 348 347 347 347 348 349 349 349 349
349 355 354 353 353 354 353 352 350 350 350 351 352 354 353 348 349 349 350 349 354 345 347 352 349 352 352 354 354 350 352 353 352 349 347 347 343 339 340 343 346 348 348
353 353 351 351 351 352 353 353 350 350 353 354 353 353 351 348 346 349 350 349 349 354 358 342 353 341 348 352 352 353 351 351 346 350 350 349 347 350 341 338 338 342 345
354 354 351 351 351 351 352 354 351 349 351 352 350 349 352 348 347 346 347 348 348 348 350 350 351 354 357 354 352 354 354 350 349 348 350 345 344 342 339 338 339 338 340
354 353 354 353 352 352 352 353 352 352 355 352 352 354 351 352 349 347 348 348 347 347 348 347 349 350 353 353 355 355 355 352 348 346 345 345 344 339 336 336 341 341 339
353 354 354 354 354 353 353 354 354 351 353 352 351 350 351 349 350 349 347 346 347 348 349 350 347 346 346 349 352 353 353 350 348 349 348 346 344 341 337 338 337 338 338
353 352 353 352 352 352 354 355 355 354 352 352 351 351 350 350 349 348 349 348 347 346 348 348 347 345 344 344 346 351 350 349 351 346 346 346 343 344 344 343 342 341 338
351 352 352 353 353 353 350 354 354 354 353 351 351 351 351 350 351 350 350 351 349 348 348 348 346 346 345 343 344 347 347 345 345 347 347 346 347 346 344 342 342 342 343
351 351 351 352 353 352 352 352 354 354 355 354 353 353 352 351 350 351 351 351 352 352 351 350 346 344 344 351 350 348 350 348 347 346 347 347 345 344 343 343 341 344 343
350 352 352 354 353 351 346 349 350 353 353 354 353 353 353 353 352 350 346 345 348 352 353 353 350 350 352 352 351 352 354 350 350 348 348 349 347 347 347 346 343 345 346
347 349 350 350 346 346 345 346 346 346 352 353 354 353 354 350 350 353 353 351 350 348 348 350 353 354 354 354 354 355 354 354 354 352 351 354 350 350 347 347 347 347 347
345 345 346 342 333 328 336 339 340 343 350 353 353 354 354 354 350 350 350 350 352 352 352 352 352 355 354 353 355 355 354 354 353 353 353 356 351 349 347 347 347 347 348
343 344 343 339 332 325 331 336 340 345 349 350 348 347 348 343 343 344 345 351 352 352 352 350 351 351 351 352 351 351 351 350 350 351 351 352 353 353 353 353 351 351 348
340 340 336 334 326 323 324 329 332 332 340 339 348 342 336 332 333 335 337 340 347 349 349 346 342 345 347 349 351 351 352 352 353 354 351 354 353 353 354 352 352 352 352

GFSMA_925_thetae_102.txt.gz
Theta_e
346 348 346 343 347 346 348 346 347 347 346 343 342 340 341 339 337 332 322 324 325 325 326 329 333 335 338 340 342 343 343 344 344 345 346 346 346 346 346 346 346 343 341
348 346 346 346 348 348 346 345 341 345 344 343 344 343 341 343 340 337 330 326 327 330 334 336 338 340 341 343 345 346 346 346 346 346 346 347 347 348 349 349 349 348 346
345 338 346 346 344 341 344 346 345 344 343 344 344 343 344 344 346 340 342 342 340 339 340 341 343 345 345 346 347 347 347 347 347 347 347 348 349 351 352 351 352 352 350
351 351 349 346 348 350 351 348 347 345 343 345 345 345 344 344 347 347 347 347 346 343 343 345 346 346 346 347 347 348 349 349 349 349 348 349 350 351 352 353 353 354 353
347 347 348 343 345 351 346 347 346 346 345 345 344 345 344 345 347 348 350 351 350 350 343 348 347 348 348 349 349 349 349 350 351 351 350 348 350 350 351 352 353 354 354
352 349 352 348 348 351 348 348 344 344 348 346 347 345 345 345 346 347 350 350 347 349 349 351 351 350 350 349 349 350 350 350 350 350 351 350 348 350 349 351 353 353 353
351 354 351 346 351 350 346 347 350 352 346 345 348 344 343 345 347 346 348 349 348 351 348 352 355 353 353 350 350 350 349 349 349 350 351 351 350 349 348 348 349 348 347
350 353 352 353 348 352 349 351 351 353 344 344 348 353 355 348 346 346 346 348 348 345 349 352 350 351 354 351 350 348 349 350 350 351 351 352 352 351 349 348 347 343 340
351 352 354 349 352 352 352 351 351 355 352 344 342 354 357 354 346 344 344 347 345 346 348 348 351 350 352 352 350 349 346 347 348 350 351 351 351 352 350 349 348 345 339
350 350 352 351 351 342 346 354 351 350 355 351 343 347 345 350 358 356 345 346 348 347 347 349 349 350 351 353 352 348 347 345 345 345 346 351 350 350 352 350 349 347 345
351 351 351 352 352 351 351 347 354 353 354 355 355 349 346 353 349 351 355 345 346 346 345 346 348 351 350 353 353 349 349 351 344 344 346 346 348 349 350 350 349 349 347
352 351 350 352 352 344 345 354 353 352 354 351 353 356 347 344 342 339 354 351 350 344 345 345 346 350 352 355 352 350 353 352 352 347 344 346 347 347 347 348 349 348 348
350 352 352 351 352 352 353 353 353 354 354 353 354 353 347 342 342 347 355 347 350 349 348 350 347 341 347 344 351 350 352 353 352 348 348 346 346 347 344 340 343 346 348
347 351 351 351 352 352 351 351 351 347 353 352 352 352 351 353 349 349 351 343 351 347 340 336 342 338 337 335 342 352 353 352 351 347 347 349 347 344 344 347 339 340 343
347 349 352 352 350 353 349 352 349 350 351 349 350 354 348 348 350 349 348 348 351 348 335 341 334 336 335 334 345 355 352 351 347 351 350 349 344 344 339 341 338 338 337
345 340 345 351 351 350 350 350 352 352 351 346 352 353 351 351 350 349 351 348 352 349 348 345 343 342 337 351 353 354 350 350 350 352 346 344 344 344 338 332 333 338 339
348 350 352 352 351 350 350 351 351 350 351 351 349 350 351 351 347 346 346 343 347 348 351 350 350 350 350 351 351 354 351 353 350 348 348 348 345 344 342 339 335 333 333
352 352 353 352 353 352 352 353 353 352 352 353 352 351 351 348 351 351 350 351 350 349 349 350 348 349 347 343 343 350 352 352 349 349 350 347 346 344 344 343 343 341 340
350 353 353 352 349 351 352 352 351 353 352 352 352 352 351 351 349 349 348 348 349 348 344 345 345 345 345 346 346 346 349 346 348 348 347 347 346 347 345 345 344 343 342
349 351 350 351 351 353 353 353 354 352 352 353 352 351 351 352 350 351 350 350 350 350 350 352 353 352 348 350 351 353 353 355 351 348 346 349 347 348 345 343 345 343 343
348 350 350 350 352 351 352 351 350 352 351 353 353 353 353 352 351 351 351 351 349 348 348 350 351 352 353 353 353 353 356 351 348 349 349 349 349 347 347 348 347 345 343
346 348 347 350 352 349 346 348 348 350 351 352 352 352 352 352 352 351 349 349 346 345 346 349 349 353 353 352 354 356 355 356 357 353 352 350 350 353 354 351 350 346 346
344 344 348 349 347 343 343 344 346 348 347 348 350 351 350 352 351 350 351 349 349 350 350 349 349 351 354 353 354 356 356 356 356 353 352 355 353 354 354 354 350 347 347
344 345 346 339 336 331 335 338 339 343 344 349 352 354 355 351 347 346 347 348 350 347 351 351 350 351 352 353 353 352 352 353 354 353 353 355 353 355 354 354 353 353 352
340 343 343 338 336 330 331 334 338 339 348 350 344 345 346 342 339 340 340 343 348 350 350 348 349 349 347 346 348 349 349 351 352 352 351 354 352 351 353 353 351 350 350
342 341 339 335 328 329 326 329 332 332 335 333 342 338 330 329 327 327 327 327 333 340 338 337 338 338 340 342 344 346 348 350 351 351 351 350 344 344 346 344 347 349 353

GFSMA_925_thetae_105.txt.gz
Theta_e
345 344 335 334 341 344 344 347 346 347 348 342 340 340 341 339 332 321 322 323 324 326 331 334 337 339 341 342 343 344 345 345 346 346 346 347 347 347 347 347 347 345 343
345 344 344 343 344 345 346 338 343 346 345 344 341 340 341 339 335 333 329 331 334 336 338 340 342 343 344 345 346 346 347 347 347 347 347 347 348 349 350 350 350 349 348
341 344 346 346 347 346 347 343 346 346 343 342 344 341 342 342 342 338 340 340 340 341 342 344 345 346 346 346 347 348 348 348 348 348 348 349 350 351 352 352 351 352 352
345 347 348 346 349 349 350 351 349 344 344 344 343 344 344 343 346 346 343 343 342 342 343 345 345 346 346 347 348 349 349 350 349 349 348 349 349 350 351 352 353 353 354
348 349 348 347 352 350 346 348 344 347 342 344 345 344 343 346 346 348 350 348 349 347 346 347 347 347 347 348 349 349 349 349 350 350 350 348 349 349 348 351 352 353 353
351 349 352 350 347 349 347 346 347 349 348 345 348 345 344 345 347 348 350 350 350 351 349 349 351 350 349 348 348 348 349 349 349 350 350 351 348 349 348 347 348 348 348
351 353 351 340 343 350 350 350 351 352 347 346 349 345 346 345 345 347 349 349 348 348 349 352 354 354 352 349 348 349 349 349 350 351 351 351 351 349 349 348 346 342 340
350 353 351 349 349 348 352 349 350 355 350 344 349 352 343 344 345 347 348 349 349 349 349 350 349 352 353 352 349 347 346 347 348 349 350 351 351 351 350 349 347 344 338
349 351 350 349 350 348 350 351 354 354 354 352 348 352 349 349 346 345 346 347 347 346 348 350 350 350 352 353 350 348 345 344 344 345 345 349 349 349 351 349 348 347 343
350 350 350 346 348 345 336 351 353 353 353 353 353 351 348 352 349 344 344 346 344 346 348 348 351 351 353 354 352 349 347 348 345 344 344 345 347 348 349 351 349 348 346
352 350 351 352 351 345 348 351 351 353 352 353 353 350 348 346 346 347 346 344 346 347 345 347 349 349 350 349 348 349 349 351 352 351 345 345 345 346 346 348 349 349 348
349 352 349 351 352 349 348 349 354 354 354 353 352 350 344 342 341 347 344 342 340 343 344 346 345 343 346 342 335 341 348 352 351 350 348 347 347 346 345 341 342 346 347
349 351 350 351 349 348 342 346 351 352 353 353 352 350 348 349 342 341 348 348 338 340 347 343 344 345 341 343 336 342 348 350 352 351 348 349 349 347 344 344 342 340 342
345 348 349 351 349 351 352 351 347 348 350 352 350 354 351 346 351 349 347 340 337 342 343 335 340 339 340 336 335 336 346 353 353 351 350 350 348 345 342 338 340 337 337
340 348 349 350 351 352 351 351 350 348 349 349 349 350 352 352 351 350 350 348 349 344 341 341 338 346 343 338 340 340 350 353 354 350 351 345 343 344 342 335 332 333 337
345 349 348 350 349 350 350 348 351 351 351 350 342 353 352 350 350 344 345 344 348 348 345 346 344 347 346 346 346 349 351 352 352 350 349 349 347 345 343 341 339 335 335
347 339 342 349 349 351 349 351 350 349 348 350 348 350 349 347 350 350 349 351 349 350 349 350 349 350 349 348 346 343 346 353 351 349 349 349 349 347 345 343 343 342 340
350 350 350 351 352 352 351 351 352 352 353 351 350 351 350 349 347 350 349 349 349 348 348 345 346 347 347 348 351 350 348 349 353 349 347 348 347 347 346 345 344 344 344
352 353 353 351 350 350 351 351 352 351 350 351 351 351 351 351 352 349 348 347 350 350 349 352 351 351 351 351 349 349 354 350 347 347 344 342 347 348 347 347 346 345 345
349 349 350 351 350 350 352 352 351 350 350 350 351 352 351 350 350 350 350 349 351 349 349 349 348 346 349 350 350 351 348 346 346 344 344 342 342 347 349 350 352 351 347
343 347 350 351 351 349 347 349 348 349 349 350 352 351 351 351 351 350 349 350 351 348 345 344 345 346 346 348 348 351 353 351 349 348 346 344 349 352 354 353 353 350 351
343 344 346 348 348 347 346 345 346 348 350 351 350 349 350 351 351 350 349 349 348 348 347 348 349 350 349 349 350 353 354 353 355 350 351 350 353 353 353 354 354 353 347
342 343 343 343 344 341 340 342 342 345 347 347 349 349 350 349 349 348 347 348 347 348 349 350 350 350 349 350 352 352 352 351 352 350 351 353 351 352 349 349 352 350 351
344 343 343 339 337 333 335 337 340 343 345 350 349 350 349 348 344 342 343 344 348 350 349 348 349 348 348 349 346 344 347 348 348 349 349 350 352 346 341 340 341 346 349
342 343 340 339 335 332 331 333 335 345 348 343 342 343 339 332 330 330 332 332 337 343 340 337 335 336 336 339 341 344 345 346 348 350 349 347 346 343 340 343 347 344 350
342 341 336 337 333 332 328 329 331 330 333 335 337 334 329 326 323 322 322 322 325 327 325 326 332 334 330 336 327 328 332 340 341 345 341 344 341 342 343 346 342 341 341

GFSMA_925_thetae_108.txt.gz
Theta_e
343 341 332 333 342 340 343 344 345 347 347 343 342 341 339 338 326 323 323 325 326 330 333 335 338 340 341 343 344 345 346 346 347 347 347 348 348 348 348 348 348 347 344
343 339 341 342 343 344 344 343 339 343 346 343 340 341 340 337 329 325 328 332 335 337 338 340 342 343 344 345 346 347 347 347 347 347 348 348 349 350 351 351 350 349 348
343 344 345 345 345 344 344 341 343 345 344 343 340 341 341 342 338 337 337 338 339 340 342 343 344 345 345 346 347 348 348 348 348 348 348 348 349 350 351 352 352 351 351
341 345 346 346 335 339 347 348 349 349 343 342 344 342 343 341 345 343 342 341 340 341 343 345 345 346 346 346 347 348 348 349 349 349 349 348 349 349 349 351 352 353 353
348 349 348 346 346 347 347 349 348 349 345 344 344 343 344 344 346 347 344 347 347 345 346 347 348 347 347 347 347 348 348 349 349 349 350 350 348 349 348 348 349 349 347
348 347 348 347 347 347 350 350 350 350 350 343 345 346 344 344 346 347 347 350 349 350 348 347 350 350 349 348 347 347 348 348 349 350 350 350 350 349 349 347 345 342 341
350 351 348 339 346 347 350 350 351 349 344 346 348 346 345 343 345 345 349 349 347 348 348 349 351 353 351 350 348 348 348 349 349 348 349 350 351 351 350 348 346 343 339
349 349 349 345 345 347 349 351 353 352 352 353 349 348 340 344 344 346 346 349 349 348 349 349 350 354 353 352 350 348 347 347 347 347 345 345 349 350 351 350 348 346 342
350 349 348 348 347 346 348 351 352 353 351 350 350 351 345 344 345 344 346 347 348 348 348 349 351 351 352 352 351 348 346 348 348 347 347 345 345 347 349 351 349 347 345
349 350 349 344 347 344 337 349 350 353 351 350 351 350 348 348 346 343 345 346 346 345 347 348 349 350 349 348 345 346 349 350 351 350 347 345 345 344 344 348 351 349 347
351 349 349 349 348 346 348 348 350 350 352 350 349 345 345 344 344 344 342 338 345 345 346 347 347 348 348 345 336 337 340 349 351 351 350 348 345 346 345 343 343 350 349
350 353 351 351 347 345 347 348 352 352 352 350 350 344 343 340 343 345 340 338 339 338 345 345 345 346 345 344 340 335 338 346 350 350 351 351 350 347 347 343 343 343 348
349 350 350 351 348 346 343 340 351 350 351 349 351 352 348 348 339 341 347 346 337 337 343 345 341 342 341 340 341 339 336 346 349 351 352 352 352 349 347 342 339 340 341
348 348 348 350 350 348 351 350 350 347 350 349 349 350 351 352 350 349 347 342 337 339 344 342 337 340 339 341 338 336 334 342 349 352 352 351 348 344 344 343 333 333 336
346 347 349 347 350 348 349 350 351 349 349 350 348 345 350 352 349 348 348 345 348 344 342 345 341 346 344 343 344 345 348 349 350 351 352 352 351 348 345 344 340 334 334
346 342 349 348 349 349 351 351 350 349 350 350 349 347 351 349 350 350 349 349 349 346 343 346 346 347 348 347 347 347 345 345 344 352 348 347 347 349 347 345 345 342 339
347 346 349 344 348 349 351 351 349 350 349 348 348 348 348 350 347 349 349 350 348 350 347 346 344 347 348 350 350 351 349 348 351 349 347 345 346 347 346 346 345 345 344
348 345 343 349 350 350 351 350 349 350 348 350 349 349 349 351 348 349 348 347 347 348 349 346 348 350 350 350 348 347 352 350 349 347 343 349 343 342 345 346 346 350 352
349 350 351 350 350 351 351 351 351 351 351 350 350 350 350 350 350 350 349 348 348 349 349 349 349 349 348 347 347 344 343 342 342 343 344 343 348 351 353 352 352 352 351
348 348 350 352 351 350 349 349 350 348 348 349 349 350 350 351 351 349 349 350 349 350 347 345 344 344 345 345 346 350 349 348 346 343 344 345 351 352 351 353 353 352 350
346 346 349 349 351 350 347 343 345 346 348 343 348 349 349 349 348 347 348 348 349 350 348 345 346 347 347 348 349 350 350 350 348 348 347 347 349 349 350 348 350 351 351
343 344 344 348 349 347 345 345 343 345 348 349 348 347 344 343 348 347 346 347 349 348 347 347 348 348 348 349 349 349 351 350 350 348 348 348 348 351 342 339 340 345 350
343 343 344 344 341 340 339 340 342 344 346 348 347 347 347 347 347 346 345 347 347 346 347 348 348 348 348 347 347 345 341 342 345 346 349 349 348 344 338 338 345 344 349
344 342 337 333 331 332 336 337 339 342 342 346 347 347 346 343 339 339 340 343 347 345 343 340 335 336 334 333 338 340 341 342 343 344 349 349 340 339 336 337 345 336 340
342 341 338 336 335 334 332 333 340 345 344 342 343 339 333 329 328 329 328 330 334 333 327 327 331 333 327 326 328 331 336 340 342 342 331 334 337 337 339 339 338 338 343
342 340 338 336 333 333 330 330 331 335 338 335 332 331 330 328 325 325 325 323 320 319 321 325 326 325 323 324 325 324 325 328 336 339 323 328 334 327 338 341 334 339 332

GFSMA_925_thetae_111.txt.gz
Theta_e
340 341 333 334 340 341 342 342 344 344 345 342 342 343 343 338 331 327 327 327 329 332 334 336 338 340 342 343 345 346 347 348 347 347 347 347 347 348 348 348 347 347 346
343 342 339 343 343 344 344 342 342 344 345 343 340 339 340 338 327 325 328 331 334 335 337 340 341 343 343 345 346 347 348 348 347 347 347 348 348 349 350 351 351 349 348
343 343 343 342 341 343 345 344 344 344 347 345 340 340 340 338 336 336 336 337 338 339 341 342 343 344 344 345 346 347 348 349 349 348 348 347 348 348 348 350 350 348 349
342 346 343 340 338 344 345 344 346 344 344 343 343 341 341 340 342 342 341 341 340 342 343 345 345 345 346 346 347 347 348 348 349 349 349 350 348 348 348 347 346 345 346
347 346 346 342 344 346 348 347 351 349 344 343 343 342 342 343 342 345 345 347 347 345 345 346 347 347 346 346 347 347 347 348 349 349 350 350 350 350 348 347 346 343 341
347 348 345 343 344 348 350 350 351 349 349 344 343 344 344 344 345 345 347 346 348 348 348 347 345 347 348 348 347 347 348 347 348 348 349 351 351 350 350 349 347 344 340
346 347 347 342 347 349 349 352 350 348 347 347 347 346 345 344 343 345 345 347 348 348 348 348 348 349 351 351 348 347 345 345 345 346 347 346 347 351 350 350 349 346 343
349 347 347 346 345 348 348 350 351 349 351 350 349 344 339 343 344 344 345 346 347 349 349 349 349 351 351 351 349 347 346 348 349 348 347 346 346 346 348 349 350 348 345
348 349 346 347 345 346 348 349 351 349 351 350 351 349 344 342 342 344 345 345 346 347 348 348 349 349 350 350 350 348 347 348 348 349 350 348 346 343 344 346 348 349 347
344 349 348 346 345 344 347 349 348 350 349 350 347 347 347 348 344 341 344 345 345 346 347 348 347 345 349 350 350 347 347 337 348 349 349 350 350 347 341 342 343 346 348
347 347 347 343 348 345 347 349 349 348 349 348 344 345 344 343 342 343 340 339 343 346 346 346 346 346 348 347 344 338 336 335 342 349 351 350 351 351 346 345 343 342 346
349 349 349 349 349 346 347 347 350 351 349 349 347 346 345 340 341 343 339 337 340 339 340 345 344 344 343 343 342 341 339 337 345 348 349 350 351 352 347 346 341 340 341
347 349 351 350 349 347 345 342 350 349 350 349 350 348 348 342 341 344 346 344 339 336 337 340 343 342 340 340 339 339 337 336 338 342 349 350 352 351 344 345 342 334 336
346 348 349 350 349 347 347 345 349 347 349 350 348 350 350 349 348 347 346 343 340 341 344 343 341 343 340 343 343 345 345 346 346 345 351 348 348 349 347 344 343 339 334
349 347 348 348 350 348 349 350 350 348 348 348 349 345 350 349 348 346 347 345 346 341 341 345 343 345 347 346 347 346 345 344 344 351 346 346 346 348 347 346 345 345 344
346 345 347 348 349 349 348 349 351 350 349 349 349 344 350 348 349 349 349 348 348 347 341 346 347 347 347 349 349 350 349 349 350 348 346 344 344 346 346 346 346 345 346
347 345 344 349 348 349 349 350 349 349 350 348 346 348 347 349 348 348 348 349 347 348 346 345 344 346 348 349 347 347 349 349 347 345 347 346 342 340 342 345 346 347 350
347 344 344 348 342 347 350 350 350 350 350 348 347 347 348 349 350 349 349 347 346 348 348 345 346 348 349 349 347 345 342 340 341 343 344 342 347 352 352 352 352 351 350
348 348 348 348 350 351 351 351 350 350 350 351 350 349 349 350 350 349 349 348 347 348 348 348 347 347 345 343 343 344 345 343 343 345 345 346 350 350 348 351 350 350 345
348 348 349 350 351 350 349 349 348 349 349 348 349 349 349 349 350 349 348 347 349 349 349 346 345 343 345 345 347 348 347 346 345 344 346 347 347 349 342 340 346 348 349
346 346 348 349 349 349 349 347 344 346 347 347 345 347 347 345 345 345 343 343 345 348 348 347 345 346 347 347 348 349 349 346 342 347 346 347 349 344 338 342 343 348 348
344 343 344 346 346 347 347 345 344 343 345 346 345 347 347 345 344 346 346 345 346 348 347 345 346 346 346 347 346 344 344 340 344 346 346 347 340 337 335 338 339 344 342
342 343 344 344 344 342 341 339 340 342 345 346 347 347 346 344 345 345 344 346 346 346 345 346 345 342 337 335 334 336 337 339 341 342 347 348 335 333 333 339 340 339 342
343 343 341 336 332 332 335 336 337 340 340 345 345 347 345 344 341 338 338 342 344 339 335 331 331 332 328 328 332 342 342 336 341 333 326 340 337 330 330 339 338 336 333
342 339 334 331 332 331 331 335 342 343 344 342 339 335 332 330 328 325 326 329 331 322 326 325 328 324 326 324 326 330 330 331 335 337 323 326 330 325 328 338 332 331 324
339 334 332 331 330 331 331 330 334 340 338 335 330 327 327 325 325 326 325 323 322 321 323 324 322 321 320 319 319 320 321 324 335 322 315 325 319 318 323 333 322 323 318

GFSMA_925_thetae_114.txt.gz
Theta_e
340 340 333 337 339 341 341 342 341 343 343 341 340 341 343 340 329 327 328 330 331 333 335 338 340 341 342 344 345 346 347 348 347 347 347 348 348 348 349 350 349 347 346
342 340 341 343 342 343 341 341 343 344 344 340 340 340 339 337 327 327 330 331 333 336 338 340 342 343 344 345 346 347 348 348 348 348 348 348 348 348 348 348 348 347 347
342 341 342 342 342 345 345 343 343 344 344 341 340 340 340 338 334 333 334 336 337 339 340 342 343 343 344 345 346 347 348 348 348 349 349 349 349 348 348 346 345 345 344
342 344 342 339 342 345 345 345 345 343 341 342 342 341 341 340 340 340 339 340 338 340 342 342 343 344 345 345 346 347 347 347 348 349 350 350 350 350 349 347 345 343 341
345 344 343 341 344 347 346 348 348 344 342 342 342 342 342 343 342 343 344 343 343 343 342 342 344 345 347 346 346 347 348 347 346 347 347 348 349 350 350 349 347 345 341
346 346 343 344 345 348 349 349 347 349 345 343 343 343 344 343 343 345 345 345 346 346 347 347 347 348 349 350 348 346 346 345 345 346 346 345 346 347 349 350 349 347 344
344 347 344 344 347 348 351 349 347 349 348 346 347 345 345 344 343 343 343 345 347 348 348 347 348 348 350 350 350 348 346 346 349 349 348 346 345 344 345 347 350 349 346
346 346 345 344 347 346 350 350 349 349 349 347 348 341 344 342 344 343 344 344 345 345 347 348 348 348 350 350 351 349 346 347 348 348 347 349 349 346 342 343 348 350 348
346 348 347 346 345 346 348 349 349 349 349 349 349 347 348 347 342 344 345 345 345 346 346 346 346 348 350 351 351 349 347 345 338 343 346 350 351 351 349 344 343 347 348
347 348 348 346 345 344 348 348 349 348 348 348 346 345 346 347 348 347 344 345 345 345 345 346 347 347 348 349 349 349 343 341 335 338 342 348 348 350 350 345 343 342 345
346 348 348 345 346 341 347 349 347 347 347 345 343 344 344 342 341 344 348 341 340 342 345 345 345 345 345 343 344 342 341 338 335 340 345 348 349 352 346 344 342 338 341
348 347 348 346 348 345 346 348 349 349 347 347 346 346 345 341 341 342 343 339 341 341 340 340 341 343 340 340 339 339 338 337 337 345 348 350 349 350 344 341 339 333 335
347 348 349 348 349 347 346 344 349 349 350 348 349 347 347 339 342 346 345 343 340 339 337 341 343 340 341 342 344 345 345 344 345 345 348 346 346 346 346 343 342 340 335
347 346 348 350 349 349 345 343 348 347 348 349 347 348 348 347 347 346 345 343 348 344 344 344 343 345 346 346 346 345 344 345 344 348 345 345 346 347 348 345 345 344 344
347 347 347 349 350 349 348 348 350 347 347 347 347 347 349 349 348 346 346 344 345 350 349 344 345 345 346 348 348 348 348 348 349 348 346 345 343 342 346 346 345 345 345
348 347 346 347 349 349 348 348 349 350 349 348 348 343 348 348 348 349 349 348 347 346 349 345 346 344 345 348 347 349 347 348 346 345 346 345 343 341 340 343 346 346 346
347 346 346 344 348 348 348 348 349 349 349 348 347 347 347 347 347 347 348 348 347 347 347 346 345 344 345 349 348 346 344 344 343 345 344 342 349 351 351 351 351 350 349
346 346 345 346 348 344 347 348 349 349 349 349 348 346 347 348 349 348 348 348 347 346 347 346 346 346 347 347 344 343 343 344 345 344 344 344 350 346 343 346 348 346 345
347 347 345 342 345 346 348 349 349 349 349 349 349 349 348 349 349 349 349 348 348 346 348 347 347 345 343 342 342 344 346 344 342 344 345 347 348 340 339 342 347 345 347
347 347 347 349 349 350 349 350 349 347 347 348 350 349 349 349 348 350 348 347 347 348 348 347 346 345 343 345 346 348 347 345 340 345 346 348 347 336 342 340 345 342 343
345 345 345 346 346 348 348 348 347 345 346 346 348 348 348 348 347 345 344 344 344 344 347 346 345 344 345 345 347 347 346 341 341 348 344 346 337 334 338 341 343 341 342
345 345 344 344 345 346 346 347 346 344 342 344 346 346 347 346 345 344 344 345 344 345 347 345 345 345 345 345 343 336 337 339 343 342 345 346 335 332 340 335 334 337 339
343 342 342 342 343 343 342 342 340 340 342 344 346 346 345 344 343 340 343 343 344 343 344 345 343 339 335 333 332 336 339 339 342 326 333 347 334 329 338 326 325 328 333
342 342 342 342 338 334 335 336 335 337 338 339 343 340 342 343 340 338 338 342 341 335 332 332 332 329 327 328 331 339 340 338 339 329 325 333 331 327 335 328 324 324 322
343 340 336 331 328 330 332 336 338 339 340 339 341 339 338 335 334 328 328 334 328 326 325 327 325 321 321 323 326 329 328 332 338 328 319 327 319 320 324 327 318 317 315
340 333 328 327 328 327 329 331 335 340 338 331 325 325 326 324 324 323 323 323 321 322 323 321 319 319 319 320 321 321 322 328 333 321 310 320 316 314 320 325 314 314 310

GFSMA_925_thetae_117.txt.gz
Theta_e
340 337 336 338 340 341 342 342 342 345 344 343 342 347 344 340 338 337 339 332 334 336 338 340 341 342 344 345 346 347 348 348 348 348 348 347 348 347 346 346 348 348 348
341 339 342 343 342 342 341 342 344 344 346 344 340 341 344 340 330 331 337 337 335 337 339 340 342 344 345 345 346 347 347 348 348 349 349 349 349 348 347 346 345 346 345
342 341 341 341 342 344 344 343 343 343 348 344 341 340 341 339 336 335 336 338 339 338 339 341 343 344 345 345 346 347 347 347 348 349 349 349 350 349 349 347 346 343 343
343 343 342 340 343 346 345 346 345 348 347 346 345 344 341 340 341 341 341 341 340 341 342 343 345 346 346 346 346 346 347 348 348 347 347 347 348 349 349 349 347 346 342
343 343 338 342 346 348 349 353 346 346 348 346 346 345 343 345 344 342 344 345 345 345 345 346 346 346 347 348 347 346 346 346 345 346 346 346 345 346 347 349 349 347 344
346 346 342 344 347 351 354 351 349 347 348 348 346 347 347 347 346 348 348 348 348 348 348 347 348 349 348 349 349 348 346 346 348 349 347 347 345 344 344 345 349 349 346
346 346 344 344 346 350 350 348 350 354 353 348 351 349 349 347 347 344 345 348 349 351 350 350 349 352 352 350 351 350 348 346 348 348 344 348 348 347 343 343 345 349 348
344 346 345 343 346 347 350 348 349 353 353 351 352 348 349 348 348 348 345 345 349 348 350 350 352 352 349 350 350 351 347 346 341 340 339 348 350 350 348 345 342 345 348
347 347 346 345 345 345 352 349 349 350 353 350 349 352 351 350 350 349 350 348 346 349 350 346 348 350 348 349 351 352 349 347 342 335 341 340 347 351 348 345 340 342 345
345 346 346 346 345 344 348 351 351 350 351 353 350 349 348 354 352 351 349 349 348 349 349 350 349 350 346 348 347 346 343 338 338 338 342 348 349 350 343 340 335 338 341
347 347 348 346 346 342 347 348 348 347 350 349 350 350 350 348 348 350 350 348 346 345 345 347 346 345 344 340 344 341 339 337 339 339 347 348 348 350 341 339 332 330 332
349 345 347 346 345 346 344 350 348 348 349 346 348 349 350 349 348 348 349 350 349 349 345 344 344 346 344 341 343 344 344 343 343 345 347 346 346 348 343 341 341 340 336
347 348 346 347 347 347 345 346 348 349 351 353 347 351 349 344 346 351 351 351 350 349 347 349 345 343 342 345 346 345 345 346 345 347 346 344 345 346 347 345 343 344 343
350 347 347 347 347 348 347 345 347 352 350 353 349 348 354 349 348 351 351 349 351 351 350 351 349 346 347 347 348 346 353 348 349 347 346 345 344 343 344 346 345 345 345
350 346 347 347 348 350 348 347 349 349 348 349 350 347 351 354 350 350 349 348 349 349 348 348 348 347 348 351 351 354 352 348 347 346 347 345 343 342 342 343 346 346 345
345 348 348 346 348 350 350 349 350 352 350 351 350 348 346 352 352 352 351 350 350 350 350 349 349 350 348 350 350 351 350 345 343 345 344 344 346 348 349 350 350 349 349
348 347 346 346 347 349 349 349 348 349 351 352 350 348 351 351 350 351 351 352 351 351 349 346 350 348 347 351 353 350 349 350 349 346 345 349 348 345 346 348 348 346 346
347 348 346 345 347 349 348 349 351 350 350 350 349 349 351 350 351 347 351 351 351 351 350 350 350 350 350 350 348 350 349 348 349 347 345 347 342 340 342 346 346 346 346
347 347 346 344 348 348 347 350 349 351 351 350 351 352 352 351 351 348 347 349 351 350 350 351 351 351 349 347 348 350 352 351 346 347 348 345 338 340 342 344 343 343 344
345 347 347 347 348 349 353 351 348 348 348 350 347 351 352 351 350 351 347 348 349 347 348 351 351 350 348 350 349 350 349 349 346 350 348 342 340 341 341 340 340 341 341
344 344 346 345 348 348 348 348 348 349 349 350 350 347 348 347 347 347 346 346 343 343 343 348 350 350 350 348 350 349 346 346 349 344 350 344 341 340 336 334 335 337 337
342 344 345 344 344 344 345 345 345 345 344 345 349 351 347 345 344 344 344 342 344 345 346 350 350 349 350 349 347 342 343 345 347 336 348 341 339 331 330 325 327 330 332
343 344 344 344 342 340 343 342 342 340 340 343 346 351 344 344 343 343 342 342 342 342 343 349 350 348 343 343 335 341 346 346 346 329 338 343 336 337 328 319 320 321 321
344 344 343 342 342 341 341 336 336 337 339 339 340 344 344 340 339 340 337 339 337 330 330 333 335 331 328 327 332 339 343 343 335 328 328 339 330 332 335 322 316 314 313
343 342 342 340 336 333 332 335 337 336 337 337 336 338 340 340 338 335 332 337 327 326 326 328 326 321 321 322 325 332 333 337 340 333 317 328 325 324 330 328 319 312 308
342 339 332 324 325 325 330 332 336 336 334 328 327 327 329 326 326 324 323 328 328 328 324 323 321 319 320 320 321 322 327 333 335 330 312 320 320 318 322 326 318 311 310

GFSMA_925_thetae_120.txt.gz
Theta_e
343 343 345 345 347 347 348 348 348 348 347 344 345 343 340 340 339 341 341 334 336 338 340 342 343 344 345 346 346 347 348 348 348 349 349 349 349 348 348 347 345 345 346
346 345 347 347 348 349 348 348 348 348 344 344 346 344 341 340 341 342 343 342 339 341 342 342 344 344 345 345 346 347 347 347 348 348 349 350 350 350 349 347 346 344 343
348 350 347 348 347 349 353 350 349 347 344 343 345 346 345 344 342 343 343 343 344 343 343 344 345 345 345 345 346 346 347 347 347 347 347 347 347 348 348 349 347 346 343
350 350 348 348 349 353 350 348 346 345 345 345 344 343 345 345 347 347 346 347 347 346 347 346 346 347 347 347 346 346 346 346 345 346 346 345 345 345 345 349 349 348 345
350 350 347 350 355 353 354 351 349 347 346 344 344 345 345 345 347 346 349 349 349 348 348 349 349 348 348 348 348 347 346 345 347 348 348 347 347 345 344 346 349 349 347
351 353 349 352 355 353 353 353 353 351 349 348 344 346 347 346 347 349 349 348 350 352 350 353 353 352 351 349 349 349 348 346 348 349 344 346 349 349 344 344 346 349 349
353 354 349 350 353 353 355 356 354 355 351 353 349 348 348 347 346 347 348 348 349 349 350 352 354 354 354 354 353 350 349 346 347 340 340 342 349 350 350 342 343 347 348
353 353 353 350 354 352 357 357 356 351 351 353 350 347 347 345 344 346 348 349 350 350 350 352 354 356 357 355 357 351 350 347 347 343 336 343 344 349 351 345 344 343 345
352 354 353 352 354 351 352 357 357 355 350 354 357 352 348 348 347 348 350 350 353 351 352 353 354 356 357 355 356 356 353 349 344 336 342 345 347 349 347 343 342 339 342
351 353 353 353 354 351 353 354 355 357 354 352 352 352 355 356 350 350 349 349 350 351 351 351 351 352 353 352 350 347 343 341 337 338 340 347 348 348 343 336 334 332 335
352 350 354 354 353 349 352 356 356 358 354 351 350 352 353 350 352 350 349 349 348 348 347 349 350 349 351 350 349 348 344 343 338 339 346 346 346 347 342 340 337 333 332
350 353 353 354 353 352 352 353 356 356 357 355 352 352 350 349 348 349 348 349 349 348 348 347 347 349 350 350 348 346 345 345 344 344 346 344 346 346 346 342 342 341 339
350 351 353 353 352 354 353 352 356 356 355 355 356 352 352 349 349 350 349 347 348 348 348 349 349 350 350 351 351 347 350 347 347 347 345 344 344 343 346 346 344 344 344
349 349 350 351 351 353 353 354 350 351 351 353 355 355 351 351 350 351 351 349 348 346 347 351 348 349 350 351 352 352 353 349 348 347 347 346 345 344 344 343 345 345 345
350 351 352 352 351 351 351 352 350 351 353 354 352 354 352 347 350 348 349 349 347 346 342 347 345 351 349 349 352 352 352 346 345 345 344 343 346 348 349 349 349 348 348
352 353 354 353 353 353 353 354 351 352 353 351 350 350 353 348 350 350 349 348 348 347 348 343 346 347 351 348 349 351 351 350 350 347 344 347 347 346 348 348 348 347 346
355 355 355 355 354 353 354 355 354 352 353 352 352 352 352 352 350 347 347 347 347 348 348 345 345 347 351 350 350 350 347 349 351 348 345 348 342 341 345 346 346 346 346
354 355 355 354 353 354 354 354 354 351 352 352 351 351 351 349 351 352 349 349 349 350 349 348 348 348 351 351 351 352 351 347 349 348 347 340 341 342 344 344 344 344 344
354 353 353 353 353 353 353 353 353 352 352 352 351 351 351 351 351 351 350 350 350 350 351 352 349 350 350 349 349 351 353 352 348 346 347 339 341 342 341 341 341 341 341
354 353 354 353 352 351 352 353 352 352 352 351 352 351 351 351 352 352 351 352 346 350 350 349 351 348 349 350 350 349 347 349 347 348 346 343 341 338 336 334 335 335 335
351 351 351 351 352 353 352 354 353 352 352 352 352 352 350 351 350 348 349 347 345 350 348 347 349 348 346 345 349 347 347 347 351 344 351 344 343 339 326 325 329 329 329
350 350 349 350 351 349 346 344 344 347 350 351 351 351 352 346 346 345 344 343 344 344 349 349 349 350 350 349 349 346 345 347 350 340 353 344 340 334 325 318 320 320 320
348 348 349 349 346 342 341 342 342 342 345 347 349 351 352 346 345 346 342 342 342 342 342 346 351 350 350 349 343 345 349 349 349 337 342 344 342 336 324 316 315 314 313
345 345 345 346 344 342 340 339 340 339 342 347 345 349 351 344 340 340 339 338 337 337 335 338 341 337 332 329 339 342 345 346 341 336 333 344 336 338 330 323 320 312 306
344 343 342 341 340 337 338 338 336 340 340 337 336 336 338 338 338 337 337 342 332 328 328 330 328 325 322 322 324 334 339 337 346 342 324 330 334 329 332 332 320 313 312
342 341 339 335 332 330 329 334 337 341 341 339 335 330 332 330 328 326 330 336 336 334 327 324 325 324 324 323 322 324 327 331 335 337 317 324 326 319 323 334 323 314 313